Time,TemperatureF,DewpointF,PressureIn,WindDirection,WindDirectionDegrees,WindSpeedMPH,WindSpeedGustMPH,Humidity,HourlyPrecipIn,Conditions,Clouds,dailyrainin,SoftwareType,DateUTC
2013-02-01 00:00:00,28.4,3.6,29.76,West,270,3.8,6.0,34,0.00,,---,0.00,VWS V14.00,2013-02-01 05:00:00,
2013-02-01 00:05:00,28.4,3.6,29.76,SE,135,12.3,12.3,34,0.00,,---,0.00,VWS V14.00,2013-02-01 05:05:00,
2013-02-01 00:10:00,28.4,3.6,29.76,SSW,202,3.8,6.5,34,0.00,,---,0.00,VWS V14.00,2013-02-01 05:10:00,
2013-02-01 00:15:00,28.4,3.6,29.76,SE,135,7.4,7.4,34,0.00,,---,0.00,VWS V14.00,2013-02-01 05:15:00,
2013-02-01 00:20:00,28.2,3.5,29.76,SSW,202,6.0,6.0,34,0.00,,---,0.00,VWS V14.00,2013-02-01 05:20:00,
2013-02-01 00:25:00,28.2,3.5,29.76,SSW,202,12.8,12.8,34,0.00,,---,0.00,VWS V14.00,2013-02-01 05:25:00,
2013-02-01 00:30:00,28.2,3.5,29.76,South,180,2.9,5.8,34,0.00,,---,0.00,VWS V14.00,2013-02-01 05:30:00,
2013-02-01 00:35:00,28.2,3.5,29.79,West,270,5.6,6.0,34,0.00,,---,0.00,VWS V14.00,2013-02-01 05:35:00,
2013-02-01 00:40:00,28.2,3.5,29.79,WSW,248,6.0,6.0,34,0.00,,---,0.00,VWS V14.00,2013-02-01 05:40:00,
2013-02-01 00:45:00,28.0,3.3,29.79,SSW,202,3.6,3.6,34,0.00,,---,0.00,VWS V14.00,2013-02-01 05:45:00,
2013-02-01 00:50:00,27.9,3.2,29.79,SSW,202,2.5,8.5,34,0.00,,---,0.00,VWS V14.00,2013-02-01 05:50:00,
2013-02-01 00:55:00,27.9,3.2,29.79,NW,315,7.6,7.6,34,0.00,,---,0.00,VWS V14.00,2013-02-01 05:55:00,
2013-02-01 01:00:00,27.9,3.2,29.79,WSW,248,3.6,4.9,34,0.00,,---,0.00,VWS V14.00,2013-02-01 06:00:00,
2013-02-01 01:05:00,27.9,3.2,29.79,SSW,202,3.4,10.1,34,0.00,,---,0.00,VWS V14.00,2013-02-01 06:05:00,
2013-02-01 01:10:00,27.9,3.2,29.79,WNW,292,4.0,5.8,34,0.00,,---,0.00,VWS V14.00,2013-02-01 06:10:00,
2013-02-01 01:15:00,27.9,3.8,29.79,SSW,202,4.7,4.7,35,0.00,,---,0.00,VWS V14.00,2013-02-01 06:15:00,
2013-02-01 01:16:00,28.4,3.6,29.76,SW,225,6.5,10.5,34,0.00,,---,0.00,VWS V14.00,2013-02-01 06:16:00,
2013-02-01 01:17:00,28.4,3.6,29.76,SSW,202,8.7,12.8,34,0.00,,---,0.00,VWS V14.00,2013-02-01 06:17:00,
2013-02-01 01:18:00,28.4,3.6,29.76,SSE,158,6.0,8.7,34,0.00,,---,0.00,VWS V14.00,2013-02-01 06:18:00,
2013-02-01 01:19:00,28.4,3.6,29.76,SSW,202,3.8,6.5,34,0.00,,---,0.00,VWS V14.00,2013-02-01 06:19:00,
2013-02-01 01:20:00,27.7,3.6,29.79,South,180,7.2,7.2,35,0.00,,---,0.00,VWS V14.00,2013-02-01 06:20:00,
2013-02-01 01:21:00,28.4,3.6,29.76,WSW,248,3.4,10.3,34,0.00,,---,0.00,VWS V14.00,2013-02-01 06:21:00,
2013-02-01 01:22:00,28.4,3.6,29.76,SSW,202,8.7,8.7,34,0.00,,---,0.00,VWS V14.00,2013-02-01 06:22:00,
2013-02-01 01:23:00,28.4,3.6,29.76,SSW,202,6.3,8.7,34,0.00,,---,0.00,VWS V14.00,2013-02-01 06:23:00,
2013-02-01 01:24:00,28.4,3.6,29.76,SSW,202,4.3,7.4,34,0.00,,---,0.00,VWS V14.00,2013-02-01 06:24:00,
2013-02-01 01:25:00,27.7,3.6,29.79,SW,225,4.7,5.6,35,0.00,,---,0.00,VWS V14.00,2013-02-01 06:25:00,
2013-02-01 01:26:00,28.4,3.6,29.76,South,180,2.7,9.6,34,0.00,,---,0.00,VWS V14.00,2013-02-01 06:26:00,
2013-02-01 01:27:00,28.4,3.6,29.76,SSW,202,3.6,4.0,34,0.00,,---,0.00,VWS V14.00,2013-02-01 06:27:00,
2013-02-01 01:28:00,28.4,3.6,29.76,SSW,202,6.0,13.0,34,0.00,,---,0.00,VWS V14.00,2013-02-01 06:28:00,
2013-02-01 01:29:00,28.2,3.5,29.76,SSW,202,6.0,6.0,34,0.00,,---,0.00,VWS V14.00,2013-02-01 06:29:00,
2013-02-01 01:30:00,27.7,3.6,29.79,SW,225,3.8,5.8,35,0.00,,---,0.00,VWS V14.00,2013-02-01 06:30:00,
2013-02-01 01:31:00,28.2,3.5,29.76,WSW,248,3.6,4.3,34,0.00,,---,0.00,VWS V14.00,2013-02-01 06:31:00,
2013-02-01 01:32:00,28.2,3.5,29.76,SSW,202,1.3,3.6,34,0.00,,---,0.00,VWS V14.00,2013-02-01 06:32:00,
2013-02-01 01:33:00,28.2,3.5,29.76,SSE,158,5.6,5.6,34,0.00,,---,0.00,VWS V14.00,2013-02-01 06:33:00,
2013-02-01 01:34:00,28.2,3.5,29.76,South,180,8.5,12.8,34,0.00,,---,0.00,VWS V14.00,2013-02-01 06:34:00,
2013-02-01 01:35:00,27.7,3.6,29.79,WSW,248,5.4,7.6,35,0.00,,---,0.00,VWS V14.00,2013-02-01 06:35:00,
2013-02-01 01:36:00,28.2,3.5,29.76,SSW,202,3.1,6.0,34,0.00,,---,0.00,VWS V14.00,2013-02-01 06:36:00,
2013-02-01 01:37:00,28.2,3.5,29.76,WSW,248,3.8,3.8,34,0.00,,---,0.00,VWS V14.00,2013-02-01 06:37:00,
2013-02-01 01:38:00,28.2,3.5,29.76,North,0,5.8,5.8,34,0.00,,---,0.00,VWS V14.00,2013-02-01 06:38:00,
2013-02-01 01:39:00,28.2,3.5,29.76,South,180,2.9,5.8,34,0.00,,---,0.00,VWS V14.00,2013-02-01 06:39:00,
2013-02-01 01:40:00,27.5,3.5,29.79,WSW,248,3.8,6.7,35,0.00,,---,0.00,VWS V14.00,2013-02-01 06:40:00,
2013-02-01 01:41:00,28.2,3.5,29.76,WNW,292,6.5,6.5,34,0.00,,---,0.00,VWS V14.00,2013-02-01 06:41:00,
2013-02-01 01:42:00,28.2,3.5,29.79,SSW,202,4.3,6.5,34,0.00,,---,0.00,VWS V14.00,2013-02-01 06:42:00,
2013-02-01 01:43:00,28.2,3.5,29.79,South,180,5.8,5.8,34,0.00,,---,0.00,VWS V14.00,2013-02-01 06:43:00,
2013-02-01 01:44:00,28.2,3.5,29.79,SSE,158,3.1,6.0,34,0.00,,---,0.00,VWS V14.00,2013-02-01 06:44:00,
2013-02-01 01:45:00,27.5,3.5,29.79,SW,225,5.8,5.8,35,0.00,,---,0.00,VWS V14.00,2013-02-01 06:45:00,
2013-02-01 01:46:00,28.2,3.5,29.79,SSE,158,1.1,5.6,34,0.00,,---,0.00,VWS V14.00,2013-02-01 06:46:00,
2013-02-01 01:47:00,28.2,3.5,29.79,South,180,3.1,6.0,34,0.00,,---,0.00,VWS V14.00,2013-02-01 06:47:00,
2013-02-01 01:48:00,28.2,3.5,29.79,SW,225,5.6,5.6,34,0.00,,---,0.00,VWS V14.00,2013-02-01 06:48:00,
2013-02-01 01:49:00,28.2,3.5,29.79,SW,225,3.1,6.5,34,0.00,,---,0.00,VWS V14.00,2013-02-01 06:49:00,
2013-02-01 01:50:00,27.3,3.3,29.79,SSE,158,8.1,8.1,35,0.00,,---,0.00,VWS V14.00,2013-02-01 06:50:00,
2013-02-01 01:51:00,28.0,3.3,29.79,SSW,202,2.7,6.3,34,0.00,,---,0.00,VWS V14.00,2013-02-01 06:51:00,
2013-02-01 01:52:00,28.0,3.3,29.79,South,180,2.0,4.9,34,0.00,,---,0.00,VWS V14.00,2013-02-01 06:52:00,
2013-02-01 01:53:00,28.0,3.3,29.79,SSW,202,2.2,2.7,34,0.00,,---,0.00,VWS V14.00,2013-02-01 06:53:00,
2013-02-01 01:54:00,28.0,3.3,29.79,SSW,202,3.6,3.6,34,0.00,,---,0.00,VWS V14.00,2013-02-01 06:54:00,
2013-02-01 01:55:00,27.3,3.3,29.79,NW,315,6.3,8.7,35,0.00,,---,0.00,VWS V14.00,2013-02-01 06:55:00,
2013-02-01 01:56:00,28.0,3.3,29.79,South,180,4.9,9.8,34,0.00,,---,0.00,VWS V14.00,2013-02-01 06:56:00,
2013-02-01 01:57:00,28.0,3.3,29.79,WSW,248,3.6,7.6,34,0.00,,---,0.00,VWS V14.00,2013-02-01 06:57:00,
2013-02-01 01:58:00,28.0,3.3,29.79,SE,135,3.6,4.0,34,0.00,,---,0.00,VWS V14.00,2013-02-01 06:58:00,
2013-02-01 01:59:00,27.9,3.2,29.79,SSW,202,2.5,8.5,34,0.00,,---,0.00,VWS V14.00,2013-02-01 06:59:00,
2013-02-01 02:00:00,27.3,3.3,29.79,SW,225,3.6,6.5,35,0.00,,---,0.00,VWS V14.00,2013-02-01 07:00:00,
2013-02-01 02:01:00,27.9,3.2,29.79,WSW,248,5.4,5.8,34,0.00,,---,0.00,VWS V14.00,2013-02-01 07:01:00,
2013-02-01 02:02:00,27.9,3.2,29.79,South,180,3.1,7.2,34,0.00,,---,0.00,VWS V14.00,2013-02-01 07:02:00,
2013-02-01 02:03:00,27.9,3.2,29.79,South,180,3.4,6.0,34,0.00,,---,0.00,VWS V14.00,2013-02-01 07:03:00,
2013-02-01 02:04:00,27.9,3.2,29.79,NW,315,7.6,7.6,34,0.00,,---,0.00,VWS V14.00,2013-02-01 07:04:00,
2013-02-01 02:05:00,27.3,3.3,29.79,West,270,1.6,4.7,35,0.00,,---,0.00,VWS V14.00,2013-02-01 07:05:00,
2013-02-01 02:06:00,27.9,3.2,29.79,South,180,2.0,8.1,34,0.00,,---,0.00,VWS V14.00,2013-02-01 07:06:00,
2013-02-01 02:07:00,27.9,3.2,29.79,SSW,202,4.0,6.3,34,0.00,,---,0.00,VWS V14.00,2013-02-01 07:07:00,
2013-02-01 02:08:00,27.9,3.2,29.79,SSW,202,2.5,4.5,34,0.00,,---,0.00,VWS V14.00,2013-02-01 07:08:00,
2013-02-01 02:09:00,27.9,3.2,29.79,WSW,248,3.6,4.9,34,0.00,,---,0.00,VWS V14.00,2013-02-01 07:09:00,
2013-02-01 02:10:00,27.3,3.3,29.79,WNW,292,3.1,4.0,35,0.00,,---,0.00,VWS V14.00,2013-02-01 07:10:00,
2013-02-01 02:11:00,27.9,3.2,29.79,NW,315,3.4,4.0,34,0.00,,---,0.00,VWS V14.00,2013-02-01 07:11:00,
2013-02-01 02:12:00,27.9,3.2,29.79,ESE,112,6.9,7.2,34,0.00,,---,0.00,VWS V14.00,2013-02-01 07:12:00,
2013-02-01 02:13:00,27.9,3.2,29.79,SSE,158,10.1,10.1,34,0.00,,---,0.00,VWS V14.00,2013-02-01 07:13:00,
2013-02-01 02:14:00,27.9,3.2,29.79,SSW,202,3.4,10.1,34,0.00,,---,0.00,VWS V14.00,2013-02-01 07:14:00,
2013-02-01 02:15:00,27.1,3.1,29.79,South,180,2.7,6.0,35,0.00,,---,0.00,VWS V14.00,2013-02-01 07:15:00,
2013-02-01 02:16:00,27.9,3.2,29.79,South,180,4.9,10.5,34,0.00,,---,0.00,VWS V14.00,2013-02-01 07:16:00,
2013-02-01 02:17:00,27.9,3.2,29.79,NNE,22,4.5,6.3,34,0.00,,---,0.00,VWS V14.00,2013-02-01 07:17:00,
2013-02-01 02:18:00,27.9,3.2,29.79,WSW,248,5.8,5.8,34,0.00,,---,0.00,VWS V14.00,2013-02-01 07:18:00,
2013-02-01 02:19:00,27.9,3.2,29.79,WNW,292,4.0,5.8,34,0.00,,---,0.00,VWS V14.00,2013-02-01 07:19:00,
2013-02-01 02:20:00,27.1,3.1,29.79,SSE,158,4.3,7.2,35,0.00,,---,0.00,VWS V14.00,2013-02-01 07:20:00,
2013-02-01 02:21:00,27.9,3.8,29.79,South,180,10.1,10.1,35,0.00,,---,0.00,VWS V14.00,2013-02-01 07:21:00,
2013-02-01 02:22:00,27.9,3.8,29.79,SSW,202,6.3,10.1,35,0.00,,---,0.00,VWS V14.00,2013-02-01 07:22:00,
2013-02-01 02:23:00,27.9,3.8,29.79,WSW,248,6.7,6.7,35,0.00,,---,0.00,VWS V14.00,2013-02-01 07:23:00,
2013-02-01 02:24:00,27.9,3.8,29.79,SSW,202,3.1,6.7,35,0.00,,---,0.00,VWS V14.00,2013-02-01 07:24:00,
2013-02-01 02:25:00,27.1,3.1,29.79,South,180,4.9,5.4,35,0.00,,---,0.00,VWS V14.00,2013-02-01 07:25:00,
2013-02-01 02:26:00,27.9,3.8,29.79,SW,225,3.8,4.9,35,0.00,,---,0.00,VWS V14.00,2013-02-01 07:26:00,
2013-02-01 02:27:00,27.9,3.8,29.79,SW,225,5.4,5.4,35,0.00,,---,0.00,VWS V14.00,2013-02-01 07:27:00,
2013-02-01 02:28:00,27.9,3.8,29.79,SW,225,4.9,6.0,35,0.00,,---,0.00,VWS V14.00,2013-02-01 07:28:00,
2013-02-01 02:29:00,27.7,3.6,29.79,South,180,7.2,7.2,35,0.00,,---,0.00,VWS V14.00,2013-02-01 07:29:00,
2013-02-01 02:30:00,27.1,3.1,29.79,WSW,248,3.8,9.6,35,0.00,,---,0.00,VWS V14.00,2013-02-01 07:30:00,
2013-02-01 02:31:00,27.7,3.6,29.79,SSW,202,8.1,9.8,35,0.00,,---,0.00,VWS V14.00,2013-02-01 07:31:00,
2013-02-01 02:32:00,27.7,3.6,29.79,SSE,158,2.5,9.0,35,0.00,,---,0.00,VWS V14.00,2013-02-01 07:32:00,
2013-02-01 02:33:00,27.7,3.6,29.79,SSW,202,2.5,5.6,35,0.00,,---,0.00,VWS V14.00,2013-02-01 07:33:00,
2013-02-01 02:34:00,27.7,3.6,29.79,SW,225,4.7,5.6,35,0.00,,---,0.00,VWS V14.00,2013-02-01 07:34:00,
2013-02-01 02:35:00,27.1,3.7,29.79,SSE,158,7.2,9.8,36,0.00,,---,0.00,VWS V14.00,2013-02-01 07:35:00,
2013-02-01 02:36:00,27.7,3.6,29.79,SSW,202,6.5,8.5,35,0.00,,---,0.00,VWS V14.00,2013-02-01 07:36:00,
2013-02-01 02:37:00,27.7,3.6,29.79,NNW,338,4.0,6.5,35,0.00,,---,0.00,VWS V14.00,2013-02-01 07:37:00,
2013-02-01 02:38:00,27.7,3.6,29.79,SSW,202,4.0,4.0,35,0.00,,---,0.00,VWS V14.00,2013-02-01 07:38:00,
2013-02-01 02:39:00,27.7,3.6,29.79,SW,225,3.8,5.8,35,0.00,,---,0.00,VWS V14.00,2013-02-01 07:39:00,
2013-02-01 02:40:00,27.1,3.7,29.79,WSW,248,4.3,6.0,36,0.00,,---,0.00,VWS V14.00,2013-02-01 07:40:00,
2013-02-01 02:41:00,27.7,3.6,29.79,SW,225,7.8,9.8,35,0.00,,---,0.00,VWS V14.00,2013-02-01 07:41:00,
2013-02-01 02:42:00,27.7,3.6,29.79,SSW,202,7.6,7.8,35,0.00,,---,0.00,VWS V14.00,2013-02-01 07:42:00,
2013-02-01 02:43:00,27.7,3.6,29.79,SSW,202,7.6,7.6,35,0.00,,---,0.00,VWS V14.00,2013-02-01 07:43:00,
2013-02-01 02:44:00,27.7,3.6,29.79,WSW,248,5.4,7.6,35,0.00,,---,0.00,VWS V14.00,2013-02-01 07:44:00,
2013-02-01 02:45:00,27.1,3.7,29.79,South,180,12.8,12.8,36,0.00,,---,0.00,VWS V14.00,2013-02-01 07:45:00,
2013-02-01 02:46:00,27.7,3.6,29.79,SSE,158,2.5,6.3,35,0.00,,---,0.00,VWS V14.00,2013-02-01 07:46:00,
2013-02-01 02:47:00,27.7,3.6,29.79,SSE,158,6.5,6.5,35,0.00,,---,0.00,VWS V14.00,2013-02-01 07:47:00,
2013-02-01 02:48:00,27.5,3.5,29.79,SSE,158,4.3,6.5,35,0.00,,---,0.00,VWS V14.00,2013-02-01 07:48:00,
2013-02-01 02:49:00,27.5,3.5,29.79,WSW,248,3.8,6.7,35,0.00,,---,0.00,VWS V14.00,2013-02-01 07:49:00,
2013-02-01 02:50:00,27.1,3.7,29.79,South,180,8.7,14.3,36,0.00,,---,0.00,VWS V14.00,2013-02-01 07:50:00,
2013-02-01 02:51:00,27.5,3.5,29.79,SSE,158,5.4,6.3,35,0.00,,---,0.00,VWS V14.00,2013-02-01 07:51:00,
2013-02-01 02:52:00,27.5,3.5,29.79,SSE,158,6.5,6.5,35,0.00,,---,0.00,VWS V14.00,2013-02-01 07:52:00,
2013-02-01 02:53:00,27.5,3.5,29.79,SSW,202,5.8,8.5,35,0.00,,---,0.00,VWS V14.00,2013-02-01 07:53:00,
2013-02-01 02:54:00,27.5,3.5,29.79,SW,225,5.8,5.8,35,0.00,,---,0.00,VWS V14.00,2013-02-01 07:54:00,
2013-02-01 02:55:00,27.1,3.7,29.79,SSE,158,6.0,7.2,36,0.00,,---,0.00,VWS V14.00,2013-02-01 07:55:00,
2013-02-01 02:56:00,27.3,3.3,29.79,SSE,158,6.5,6.5,35,0.00,,---,0.00,VWS V14.00,2013-02-01 07:56:00,
2013-02-01 02:57:00,27.3,3.3,29.79,South,180,5.4,9.6,35,0.00,,---,0.00,VWS V14.00,2013-02-01 07:57:00,
2013-02-01 02:58:00,27.3,3.3,29.79,South,180,7.2,7.2,35,0.00,,---,0.00,VWS V14.00,2013-02-01 07:58:00,
2013-02-01 02:59:00,27.3,3.3,29.79,SSE,158,8.1,8.1,35,0.00,,---,0.00,VWS V14.00,2013-02-01 07:59:00,
2013-02-01 03:00:00,27.1,3.7,29.79,SE,135,5.4,6.0,36,0.00,,---,0.00,VWS V14.00,2013-02-01 08:00:00,
2013-02-01 03:01:00,27.3,3.3,29.79,SSW,202,4.0,7.2,35,0.00,,---,0.00,VWS V14.00,2013-02-01 08:01:00,
2013-02-01 03:02:00,27.3,3.3,29.79,SSW,202,3.8,5.6,35,0.00,,---,0.00,VWS V14.00,2013-02-01 08:02:00,
2013-02-01 03:03:00,27.3,3.3,29.79,South,180,4.3,6.3,35,0.00,,---,0.00,VWS V14.00,2013-02-01 08:03:00,
2013-02-01 03:04:00,27.3,3.3,29.79,NW,315,6.3,8.7,35,0.00,,---,0.00,VWS V14.00,2013-02-01 08:04:00,
2013-02-01 03:05:00,27.1,3.7,29.79,SSW,202,4.9,6.5,36,0.00,,---,0.00,VWS V14.00,2013-02-01 08:05:00,
2013-02-01 03:06:00,27.3,3.3,29.79,NNW,338,4.7,6.7,35,0.00,,---,0.00,VWS V14.00,2013-02-01 08:06:00,
2013-02-01 03:07:00,27.3,3.3,29.79,SSE,158,4.9,4.9,35,0.00,,---,0.00,VWS V14.00,2013-02-01 08:07:00,
2013-02-01 03:08:00,27.3,3.3,29.79,SSW,202,3.6,4.9,35,0.00,,---,0.00,VWS V14.00,2013-02-01 08:08:00,
2013-02-01 03:09:00,27.3,3.3,29.79,SW,225,3.6,6.5,35,0.00,,---,0.00,VWS V14.00,2013-02-01 08:09:00,
2013-02-01 03:10:00,27.3,3.9,29.79,SW,225,4.0,7.4,36,0.00,,---,0.00,VWS V14.00,2013-02-01 08:10:00,
2013-02-01 03:11:00,27.3,3.3,29.79,South,180,5.6,7.4,35,0.00,,---,0.00,VWS V14.00,2013-02-01 08:11:00,
2013-02-01 03:12:00,27.3,3.3,29.79,SSW,202,6.3,6.3,35,0.00,,---,0.00,VWS V14.00,2013-02-01 08:12:00,
2013-02-01 03:13:00,27.3,3.3,29.79,SSE,158,4.3,6.3,35,0.00,,---,0.00,VWS V14.00,2013-02-01 08:13:00,
2013-02-01 03:14:00,27.3,3.3,29.79,West,270,1.6,4.7,35,0.00,,---,0.00,VWS V14.00,2013-02-01 08:14:00,
2013-02-01 03:15:00,27.1,3.7,29.79,NW,315,5.4,5.4,36,0.00,,---,0.00,VWS V14.00,2013-02-01 08:15:00,
2013-02-01 03:16:00,27.3,3.3,29.79,WNW,292,2.0,4.3,35,0.00,,---,0.00,VWS V14.00,2013-02-01 08:16:00,
2013-02-01 03:17:00,27.3,3.3,29.79,ESE,112,5.4,10.5,35,0.00,,---,0.00,VWS V14.00,2013-02-01 08:17:00,
2013-02-01 03:18:00,27.3,3.3,29.79,SSW,202,2.5,5.4,35,0.00,,---,0.00,VWS V14.00,2013-02-01 08:18:00,
2013-02-01 03:19:00,27.3,3.3,29.79,WNW,292,3.1,4.0,35,0.00,,---,0.00,VWS V14.00,2013-02-01 08:19:00,
2013-02-01 03:20:00,27.1,4.3,29.79,ENE,68,1.3,3.6,37,0.00,,---,0.00,VWS V14.00,2013-02-01 08:20:00,
2013-02-01 03:21:00,27.3,3.3,29.79,SSW,202,3.8,6.5,35,0.00,,---,0.00,VWS V14.00,2013-02-01 08:21:00,
2013-02-01 03:22:00,27.1,3.1,29.79,WSW,248,3.8,6.5,35,0.00,,---,0.00,VWS V14.00,2013-02-01 08:22:00,
2013-02-01 03:23:00,27.1,3.1,29.79,SSW,202,6.0,6.0,35,0.00,,---,0.00,VWS V14.00,2013-02-01 08:23:00,
2013-02-01 03:24:00,27.1,3.1,29.79,South,180,2.7,6.0,35,0.00,,---,0.00,VWS V14.00,2013-02-01 08:24:00,
2013-02-01 03:25:00,27.0,4.2,29.79,SSW,202,3.8,4.7,37,0.00,,---,0.00,VWS V14.00,2013-02-01 08:25:00,
2013-02-01 03:26:00,27.1,3.1,29.79,SSW,202,6.5,6.5,35,0.00,,---,0.00,VWS V14.00,2013-02-01 08:26:00,
2013-02-01 03:27:00,27.1,3.1,29.79,South,180,3.8,6.5,35,0.00,,---,0.00,VWS V14.00,2013-02-01 08:27:00,
2013-02-01 03:28:00,27.1,3.1,29.79,NNE,22,4.3,4.9,35,0.00,,---,0.00,VWS V14.00,2013-02-01 08:28:00,
2013-02-01 03:29:00,27.1,3.1,29.79,SSE,158,4.3,7.2,35,0.00,,---,0.00,VWS V14.00,2013-02-01 08:29:00,
2013-02-01 03:30:00,27.0,4.2,29.79,South,180,2.7,2.9,37,0.00,,---,0.00,VWS V14.00,2013-02-01 08:30:00,
2013-02-01 03:31:00,27.1,3.1,29.79,SSE,158,4.3,4.3,35,0.00,,---,0.00,VWS V14.00,2013-02-01 08:31:00,
2013-02-01 03:32:00,27.1,3.1,29.79,North,0,4.7,5.6,35,0.00,,---,0.00,VWS V14.00,2013-02-01 08:32:00,
2013-02-01 03:33:00,27.1,3.1,29.79,SSW,202,4.3,8.7,35,0.00,,---,0.00,VWS V14.00,2013-02-01 08:33:00,
2013-02-01 03:34:00,27.1,3.1,29.79,SSW,202,4.0,5.4,35,0.00,,---,0.00,VWS V14.00,2013-02-01 08:34:00,
2013-02-01 03:35:00,26.8,4.0,29.76,SSE,158,3.8,4.3,37,0.00,,---,0.00,VWS V14.00,2013-02-01 08:35:00,
2013-02-01 03:36:00,27.1,3.1,29.79,South,180,2.9,4.9,35,0.00,,---,0.00,VWS V14.00,2013-02-01 08:36:00,
2013-02-01 03:37:00,27.1,3.1,29.79,SSW,202,8.7,8.7,35,0.00,,---,0.00,VWS V14.00,2013-02-01 08:37:00,
2013-02-01 03:38:00,27.1,3.1,29.79,West,270,3.8,14.1,35,0.00,,---,0.00,VWS V14.00,2013-02-01 08:38:00,
2013-02-01 03:39:00,27.1,3.1,29.79,WSW,248,3.8,9.6,35,0.00,,---,0.00,VWS V14.00,2013-02-01 08:39:00,
2013-02-01 03:40:00,26.6,3.8,29.76,SSW,202,2.2,4.3,37,0.00,,---,0.00,VWS V14.00,2013-02-01 08:40:00,
2013-02-01 03:41:00,27.1,3.1,29.79,SSW,202,3.8,7.6,35,0.00,,---,0.00,VWS V14.00,2013-02-01 08:41:00,
2013-02-01 03:42:00,27.1,3.7,29.79,South,180,7.6,7.6,36,0.00,,---,0.00,VWS V14.00,2013-02-01 08:42:00,
2013-02-01 03:43:00,27.1,3.7,29.79,SSE,158,9.8,9.8,36,0.00,,---,0.00,VWS V14.00,2013-02-01 08:43:00,
2013-02-01 03:44:00,27.1,3.7,29.79,SSE,158,7.2,9.8,36,0.00,,---,0.00,VWS V14.00,2013-02-01 08:44:00,
2013-02-01 03:45:00,26.4,3.7,29.76,South,180,2.9,2.9,37,0.00,,---,0.00,VWS V14.00,2013-02-01 08:45:00,
2013-02-01 03:46:00,27.1,3.7,29.79,WSW,248,6.5,6.5,36,0.00,,---,0.00,VWS V14.00,2013-02-01 08:46:00,
2013-02-01 03:47:00,27.1,3.7,29.79,SSW,202,3.8,6.5,36,0.00,,---,0.00,VWS V14.00,2013-02-01 08:47:00,
2013-02-01 03:48:00,27.1,3.7,29.79,SSW,202,5.8,5.8,36,0.00,,---,0.00,VWS V14.00,2013-02-01 08:48:00,
2013-02-01 03:49:00,27.1,3.7,29.79,WSW,248,4.3,6.0,36,0.00,,---,0.00,VWS V14.00,2013-02-01 08:49:00,
2013-02-01 03:50:00,26.4,4.3,29.79,SSW,202,3.4,3.8,38,0.00,,---,0.00,VWS V14.00,2013-02-01 08:50:00,
2013-02-01 03:51:00,27.1,3.7,29.79,SSW,202,3.8,7.4,36,0.00,,---,0.00,VWS V14.00,2013-02-01 08:51:00,
2013-02-01 03:52:00,27.1,3.7,29.79,South,180,4.0,5.6,36,0.00,,---,0.00,VWS V14.00,2013-02-01 08:52:00,
2013-02-01 03:53:00,27.1,3.7,29.79,West,270,7.6,9.6,36,0.00,,---,0.00,VWS V14.00,2013-02-01 08:53:00,
2013-02-01 03:54:00,27.1,3.7,29.79,South,180,12.8,12.8,36,0.00,,---,0.00,VWS V14.00,2013-02-01 08:54:00,
2013-02-01 03:55:00,26.2,4.1,29.79,South,180,3.6,4.0,38,0.00,,---,0.00,VWS V14.00,2013-02-01 08:55:00,
2013-02-01 03:56:00,27.1,3.7,29.79,SSW,202,5.4,7.6,36,0.00,,---,0.00,VWS V14.00,2013-02-01 08:56:00,
2013-02-01 03:57:00,27.1,3.7,29.79,SW,225,4.5,12.8,36,0.00,,---,0.00,VWS V14.00,2013-02-01 08:57:00,
2013-02-01 03:58:00,27.1,3.7,29.79,South,180,5.4,8.7,36,0.00,,---,0.00,VWS V14.00,2013-02-01 08:58:00,
2013-02-01 03:59:00,27.1,3.7,29.79,South,180,10.5,14.3,36,0.00,,---,0.00,VWS V14.00,2013-02-01 08:59:00,
2013-02-01 04:00:00,26.1,3.9,29.79,South,180,3.6,4.0,38,0.00,,---,0.00,VWS V14.00,2013-02-01 09:00:00,
2013-02-01 04:01:00,27.1,3.7,29.79,SSW,202,5.6,6.3,36,0.00,,---,0.00,VWS V14.00,2013-02-01 09:01:00,
2013-02-01 04:02:00,27.1,3.7,29.79,SSW,202,5.6,5.6,36,0.00,,---,0.00,VWS V14.00,2013-02-01 09:02:00,
2013-02-01 04:03:00,27.1,3.7,29.79,SSW,202,7.2,9.4,36,0.00,,---,0.00,VWS V14.00,2013-02-01 09:03:00,
2013-02-01 04:04:00,27.1,3.7,29.79,SSE,158,6.0,7.2,36,0.00,,---,0.00,VWS V14.00,2013-02-01 09:04:00,
2013-02-01 04:05:00,26.1,3.9,29.76,South,180,2.7,4.3,38,0.00,,---,0.00,VWS V14.00,2013-02-01 09:05:00,
2013-02-01 04:06:00,27.1,3.7,29.79,SSW,202,1.6,7.8,36,0.00,,---,0.00,VWS V14.00,2013-02-01 09:06:00,
2013-02-01 04:07:00,27.1,3.7,29.79,SSE,158,5.8,7.6,36,0.00,,---,0.00,VWS V14.00,2013-02-01 09:07:00,
2013-02-01 04:08:00,27.1,3.7,29.79,SSW,202,6.0,6.0,36,0.00,,---,0.00,VWS V14.00,2013-02-01 09:08:00,
2013-02-01 04:09:00,27.1,3.7,29.79,SE,135,5.4,6.0,36,0.00,,---,0.00,VWS V14.00,2013-02-01 09:09:00,
2013-02-01 04:10:00,26.1,3.9,29.76,South,180,4.5,5.4,38,0.00,,---,0.00,VWS V14.00,2013-02-01 09:10:00,
2013-02-01 04:11:00,27.1,3.7,29.79,SSW,202,3.4,5.6,36,0.00,,---,0.00,VWS V14.00,2013-02-01 09:11:00,
2013-02-01 04:12:00,27.1,3.7,29.79,SW,225,3.8,4.5,36,0.00,,---,0.00,VWS V14.00,2013-02-01 09:12:00,
2013-02-01 04:13:00,27.1,3.7,29.79,South,180,6.3,9.6,36,0.00,,---,0.00,VWS V14.00,2013-02-01 09:13:00,
2013-02-01 04:14:00,27.1,3.7,29.79,SSW,202,4.9,6.5,36,0.00,,---,0.00,VWS V14.00,2013-02-01 09:14:00,
2013-02-01 04:15:00,25.9,3.8,29.76,SSW,202,3.1,3.8,38,0.00,,---,0.00,VWS V14.00,2013-02-01 09:15:00,
2013-02-01 04:16:00,27.1,3.7,29.79,SSW,202,4.3,6.5,36,0.00,,---,0.00,VWS V14.00,2013-02-01 09:16:00,
2013-02-01 04:17:00,27.1,3.7,29.79,NNE,22,7.8,7.8,36,0.00,,---,0.00,VWS V14.00,2013-02-01 09:17:00,
2013-02-01 04:18:00,27.1,3.7,29.79,SSW,202,7.4,9.8,36,0.00,,---,0.00,VWS V14.00,2013-02-01 09:18:00,
2013-02-01 04:19:00,27.3,3.9,29.79,SW,225,4.0,7.4,36,0.00,,---,0.00,VWS V14.00,2013-02-01 09:19:00,
2013-02-01 04:20:00,25.9,3.8,29.79,SSW,202,5.4,5.4,38,0.00,,---,0.00,VWS V14.00,2013-02-01 09:20:00,
2013-02-01 04:21:00,27.3,3.9,29.79,SSW,202,4.0,6.0,36,0.00,,---,0.00,VWS V14.00,2013-02-01 09:21:00,
2013-02-01 04:22:00,27.3,3.9,29.79,SSW,202,2.9,4.3,36,0.00,,---,0.00,VWS V14.00,2013-02-01 09:22:00,
2013-02-01 04:23:00,27.1,3.7,29.79,SSE,158,4.7,4.7,36,0.00,,---,0.00,VWS V14.00,2013-02-01 09:23:00,
2013-02-01 04:24:00,27.1,3.7,29.79,SSW,202,3.8,5.4,36,0.00,,---,0.00,VWS V14.00,2013-02-01 09:24:00,
2013-02-01 04:25:00,25.9,4.3,29.79,South,180,3.1,4.9,39,0.00,,---,0.00,VWS V14.00,2013-02-01 09:25:00,
2013-02-01 04:26:00,27.1,4.3,29.79,SSW,202,4.3,4.7,37,0.00,,---,0.00,VWS V14.00,2013-02-01 09:26:00,
2013-02-01 04:27:00,27.1,4.3,29.79,WSW,248,3.4,4.3,37,0.00,,---,0.00,VWS V14.00,2013-02-01 09:27:00,
2013-02-01 04:28:00,27.1,4.3,29.79,SSW,202,2.5,3.4,37,0.00,,---,0.00,VWS V14.00,2013-02-01 09:28:00,
2013-02-01 04:29:00,27.1,4.3,29.79,ENE,68,1.3,3.6,37,0.00,,---,0.00,VWS V14.00,2013-02-01 09:29:00,
2013-02-01 04:30:00,25.9,4.3,29.79,SE,135,2.9,2.9,39,0.00,,---,0.00,VWS V14.00,2013-02-01 09:30:00,
2013-02-01 04:31:00,27.1,4.3,29.79,SW,225,3.6,3.6,37,0.00,,---,0.00,VWS V14.00,2013-02-01 09:31:00,
2013-02-01 04:32:00,27.0,4.2,29.79,South,180,3.1,3.6,37,0.00,,---,0.00,VWS V14.00,2013-02-01 09:32:00,
2013-02-01 04:33:00,27.0,4.2,29.79,SSW,202,4.7,4.7,37,0.00,,---,0.00,VWS V14.00,2013-02-01 09:33:00,
2013-02-01 04:34:00,27.0,4.2,29.79,SSW,202,3.8,4.7,37,0.00,,---,0.00,VWS V14.00,2013-02-01 09:34:00,
2013-02-01 04:35:00,25.7,4.2,29.79,South,180,2.2,3.6,39,0.00,,---,0.00,VWS V14.00,2013-02-01 09:35:00,
2013-02-01 04:36:00,27.0,4.2,29.79,SW,225,0.9,3.8,37,0.00,,---,0.00,VWS V14.00,2013-02-01 09:36:00,
2013-02-01 04:37:00,27.0,4.2,29.79,South,180,2.0,3.4,37,0.00,,---,0.00,VWS V14.00,2013-02-01 09:37:00,
2013-02-01 04:38:00,27.0,4.2,29.79,SW,225,2.5,3.1,37,0.00,,---,0.00,VWS V14.00,2013-02-01 09:38:00,
2013-02-01 04:39:00,27.0,4.2,29.79,South,180,2.7,2.9,37,0.00,,---,0.00,VWS V14.00,2013-02-01 09:39:00,
2013-02-01 04:40:00,25.7,4.2,29.79,ESE,112,2.5,4.0,39,0.00,,---,0.00,VWS V14.00,2013-02-01 09:40:00,
2013-02-01 04:41:00,27.0,4.2,29.79,SSW,202,1.3,3.6,37,0.00,,---,0.00,VWS V14.00,2013-02-01 09:41:00,
2013-02-01 04:42:00,27.0,4.2,29.76,South,180,2.9,3.8,37,0.00,,---,0.00,VWS V14.00,2013-02-01 09:42:00,
2013-02-01 04:43:00,26.8,4.0,29.76,SW,225,4.3,4.3,37,0.00,,---,0.00,VWS V14.00,2013-02-01 09:43:00,
2013-02-01 04:44:00,26.8,4.0,29.76,SSE,158,3.8,4.3,37,0.00,,---,0.00,VWS V14.00,2013-02-01 09:44:00,
2013-02-01 04:45:00,25.5,4.0,29.79,SSE,158,4.3,4.3,39,0.00,,---,0.00,VWS V14.00,2013-02-01 09:45:00,
2013-02-01 04:46:00,26.8,4.0,29.76,SSW,202,4.7,4.7,37,0.00,,---,0.00,VWS V14.00,2013-02-01 09:46:00,
2013-02-01 04:47:00,26.6,3.8,29.76,SSW,202,2.7,4.7,37,0.00,,---,0.00,VWS V14.00,2013-02-01 09:47:00,
2013-02-01 04:48:00,26.6,3.8,29.76,WSW,248,2.7,3.6,37,0.00,,---,0.00,VWS V14.00,2013-02-01 09:48:00,
2013-02-01 04:49:00,26.6,3.8,29.76,SSW,202,2.2,4.3,37,0.00,,---,0.00,VWS V14.00,2013-02-01 09:49:00,
2013-02-01 04:50:00,25.3,3.9,29.79,SSW,202,3.8,3.8,39,0.00,,---,0.00,VWS V14.00,2013-02-01 09:50:00,
2013-02-01 04:51:00,26.6,3.8,29.76,SSW,202,1.6,3.8,37,0.00,,---,0.00,VWS V14.00,2013-02-01 09:51:00,
2013-02-01 04:52:00,26.6,3.8,29.76,South,180,4.0,4.0,37,0.00,,---,0.00,VWS V14.00,2013-02-01 09:52:00,
2013-02-01 04:53:00,26.6,3.8,29.76,SSE,158,2.5,4.7,37,0.00,,---,0.00,VWS V14.00,2013-02-01 09:53:00,
2013-02-01 04:54:00,26.4,3.7,29.76,South,180,2.9,2.9,37,0.00,,---,0.00,VWS V14.00,2013-02-01 09:54:00,
2013-02-01 04:55:00,25.3,3.9,29.79,SSW,202,2.7,4.7,39,0.00,,---,0.00,VWS V14.00,2013-02-01 09:55:00,
2013-02-01 04:56:00,26.4,4.3,29.76,WSW,248,2.5,3.8,38,0.00,,---,0.00,VWS V14.00,2013-02-01 09:56:00,
2013-02-01 04:57:00,26.4,4.3,29.79,SSW,202,3.8,3.8,38,0.00,,---,0.00,VWS V14.00,2013-02-01 09:57:00,
2013-02-01 04:58:00,26.4,4.3,29.79,SSW,202,3.1,3.8,38,0.00,,---,0.00,VWS V14.00,2013-02-01 09:58:00,
2013-02-01 04:59:00,26.4,4.3,29.79,ESE,112,3.4,3.8,38,0.00,,---,0.00,VWS V14.00,2013-02-01 09:59:00,
2013-02-01 05:00:00,25.3,3.9,29.79,South,180,5.8,5.8,39,0.00,,---,0.00,VWS V14.00,2013-02-01 10:00:00,
2013-02-01 05:01:00,26.4,4.3,29.79,South,180,2.5,3.8,38,0.00,,---,0.00,VWS V14.00,2013-02-01 10:01:00,
2013-02-01 05:02:00,26.4,4.3,29.79,South,180,2.9,3.6,38,0.00,,---,0.00,VWS V14.00,2013-02-01 10:02:00,
2013-02-01 05:03:00,26.4,4.3,29.79,SSW,202,1.6,3.8,38,0.00,,---,0.00,VWS V14.00,2013-02-01 10:03:00,
2013-02-01 05:04:00,26.2,4.1,29.79,South,180,3.6,4.0,38,0.00,,---,0.00,VWS V14.00,2013-02-01 10:04:00,
2013-02-01 05:05:00,25.3,3.9,29.79,South,180,3.4,5.8,39,0.00,,---,0.00,VWS V14.00,2013-02-01 10:05:00,
2013-02-01 05:06:00,26.2,4.1,29.79,South,180,3.6,4.9,38,0.00,,---,0.00,VWS V14.00,2013-02-01 10:06:00,
2013-02-01 05:07:00,26.2,4.1,29.79,South,180,2.9,4.9,38,0.00,,---,0.00,VWS V14.00,2013-02-01 10:07:00,
2013-02-01 05:08:00,26.2,4.1,29.79,South,180,2.7,4.3,38,0.00,,---,0.00,VWS V14.00,2013-02-01 10:08:00,
2013-02-01 05:09:00,26.1,3.9,29.79,SSE,158,4.3,4.3,38,0.00,,---,0.00,VWS V14.00,2013-02-01 10:09:00,
2013-02-01 05:10:00,25.3,3.9,29.79,SW,225,2.9,4.9,39,0.00,,---,0.00,VWS V14.00,2013-02-01 10:10:00,
2013-02-01 05:11:00,26.1,3.9,29.79,WSW,248,3.4,4.3,38,0.00,,---,0.00,VWS V14.00,2013-02-01 10:11:00,
2013-02-01 05:12:00,26.1,3.9,29.76,SSW,202,3.6,4.9,38,0.00,,---,0.00,VWS V14.00,2013-02-01 10:12:00,
2013-02-01 05:13:00,26.1,3.9,29.76,SSE,158,3.6,4.9,38,0.00,,---,0.00,VWS V14.00,2013-02-01 10:13:00,
2013-02-01 05:14:00,26.1,3.9,29.76,South,180,2.7,4.3,38,0.00,,---,0.00,VWS V14.00,2013-02-01 10:14:00,
2013-02-01 05:15:00,25.3,4.4,29.79,SSW,202,3.8,3.8,40,0.00,,---,0.00,VWS V14.00,2013-02-01 10:15:00,
2013-02-01 05:16:00,26.1,3.9,29.76,SSW,202,3.6,3.8,38,0.00,,---,0.00,VWS V14.00,2013-02-01 10:16:00,
2013-02-01 05:17:00,26.1,3.9,29.76,SSW,202,2.7,6.0,38,0.00,,---,0.00,VWS V14.00,2013-02-01 10:17:00,
2013-02-01 05:18:00,26.1,3.9,29.76,SSW,202,5.4,5.4,38,0.00,,---,0.00,VWS V14.00,2013-02-01 10:18:00,
2013-02-01 05:19:00,26.1,3.9,29.76,South,180,4.5,5.4,38,0.00,,---,0.00,VWS V14.00,2013-02-01 10:19:00,
2013-02-01 05:20:00,25.3,4.4,29.79,SSW,202,1.3,3.8,40,0.00,,---,0.00,VWS V14.00,2013-02-01 10:20:00,
2013-02-01 05:21:00,26.1,3.9,29.76,South,180,2.5,4.0,38,0.00,,---,0.00,VWS V14.00,2013-02-01 10:21:00,
2013-02-01 05:22:00,26.1,3.9,29.76,SSE,158,3.1,3.1,38,0.00,,---,0.00,VWS V14.00,2013-02-01 10:22:00,
2013-02-01 05:23:00,25.9,3.8,29.76,SSE,158,3.8,5.4,38,0.00,,---,0.00,VWS V14.00,2013-02-01 10:23:00,
2013-02-01 05:24:00,25.9,3.8,29.76,SSW,202,3.1,3.8,38,0.00,,---,0.00,VWS V14.00,2013-02-01 10:24:00,
2013-02-01 05:25:00,25.3,4.4,29.79,SSW,202,3.4,4.7,40,0.00,,---,0.00,VWS V14.00,2013-02-01 10:25:00,
2013-02-01 05:26:00,25.9,3.8,29.76,SSE,158,3.4,3.8,38,0.00,,---,0.00,VWS V14.00,2013-02-01 10:26:00,
2013-02-01 05:27:00,25.9,3.8,29.79,SSW,202,4.0,4.0,38,0.00,,---,0.00,VWS V14.00,2013-02-01 10:27:00,
2013-02-01 05:28:00,25.9,3.8,29.79,SSW,202,3.8,4.7,38,0.00,,---,0.00,VWS V14.00,2013-02-01 10:28:00,
2013-02-01 05:29:00,25.9,3.8,29.79,SSW,202,5.4,5.4,38,0.00,,---,0.00,VWS V14.00,2013-02-01 10:29:00,
2013-02-01 05:30:00,25.3,4.4,29.79,SSW,202,4.0,4.0,40,0.00,,---,0.00,VWS V14.00,2013-02-01 10:30:00,
2013-02-01 05:31:00,25.9,3.8,29.79,South,180,3.6,5.4,38,0.00,,---,0.00,VWS V14.00,2013-02-01 10:31:00,
2013-02-01 05:32:00,25.9,3.8,29.79,SSE,158,4.9,4.9,38,0.00,,---,0.00,VWS V14.00,2013-02-01 10:32:00,
2013-02-01 05:33:00,25.9,3.8,29.79,SW,225,2.9,4.9,38,0.00,,---,0.00,VWS V14.00,2013-02-01 10:33:00,
2013-02-01 05:34:00,25.9,4.3,29.79,South,180,3.8,4.9,39,0.00,,---,0.00,VWS V14.00,2013-02-01 10:34:00,
2013-02-01 05:35:00,25.5,4.6,29.79,West,270,4.9,6.3,40,0.00,,---,0.00,VWS V14.00,2013-02-01 10:35:00,
2013-02-01 05:36:00,25.7,4.2,29.79,South,180,3.6,4.0,39,0.00,,---,0.00,VWS V14.00,2013-02-01 10:36:00,
2013-02-01 05:37:00,25.7,4.2,29.79,SSW,202,2.5,3.6,39,0.00,,---,0.00,VWS V14.00,2013-02-01 10:37:00,
2013-02-01 05:38:00,25.7,4.2,29.79,SSE,158,2.7,4.3,39,0.00,,---,0.00,VWS V14.00,2013-02-01 10:38:00,
2013-02-01 05:39:00,25.9,4.3,29.79,SE,135,2.9,2.9,39,0.00,,---,0.00,VWS V14.00,2013-02-01 10:39:00,
2013-02-01 05:40:00,25.7,4.7,29.79,SSW,202,3.6,4.9,40,0.00,,---,0.00,VWS V14.00,2013-02-01 10:40:00,
2013-02-01 05:41:00,25.7,4.2,29.79,South,180,2.7,4.3,39,0.00,,---,0.00,VWS V14.00,2013-02-01 10:41:00,
2013-02-01 05:42:00,25.7,4.2,29.79,SSW,202,1.3,2.7,39,0.00,,---,0.00,VWS V14.00,2013-02-01 10:42:00,
2013-02-01 05:43:00,25.7,4.2,29.79,SSW,202,2.9,2.9,39,0.00,,---,0.00,VWS V14.00,2013-02-01 10:43:00,
2013-02-01 05:44:00,25.7,4.2,29.79,South,180,2.2,3.6,39,0.00,,---,0.00,VWS V14.00,2013-02-01 10:44:00,
2013-02-01 05:45:00,25.7,5.3,29.79,SSE,158,4.0,9.6,41,0.00,,---,0.00,VWS V14.00,2013-02-01 10:45:00,
2013-02-01 05:46:00,25.7,4.2,29.79,SSW,202,3.6,4.0,39,0.00,,---,0.00,VWS V14.00,2013-02-01 10:46:00,
2013-02-01 05:47:00,25.7,4.2,29.79,SSW,202,3.1,4.3,39,0.00,,---,0.00,VWS V14.00,2013-02-01 10:47:00,
2013-02-01 05:48:00,25.7,4.2,29.79,South,180,3.4,3.8,39,0.00,,---,0.00,VWS V14.00,2013-02-01 10:48:00,
2013-02-01 05:49:00,25.7,4.2,29.79,ESE,112,2.5,4.0,39,0.00,,---,0.00,VWS V14.00,2013-02-01 10:49:00,
2013-02-01 05:50:00,25.9,5.4,29.79,WSW,248,9.4,9.8,41,0.00,,---,0.00,VWS V14.00,2013-02-01 10:50:00,
2013-02-01 05:51:00,25.5,4.0,29.79,SSW,202,3.8,4.7,39,0.00,,---,0.00,VWS V14.00,2013-02-01 10:51:00,
2013-02-01 05:52:00,25.5,4.0,29.79,South,180,3.4,3.8,39,0.00,,---,0.00,VWS V14.00,2013-02-01 10:52:00,
2013-02-01 05:53:00,25.5,4.0,29.79,South,180,2.7,3.4,39,0.00,,---,0.00,VWS V14.00,2013-02-01 10:53:00,
2013-02-01 05:54:00,25.5,4.0,29.79,SSE,158,4.3,4.3,39,0.00,,---,0.00,VWS V14.00,2013-02-01 10:54:00,
2013-02-01 05:55:00,26.1,5.6,29.79,South,180,5.8,8.5,41,0.00,,---,0.00,VWS V14.00,2013-02-01 10:55:00,
2013-02-01 05:56:00,25.5,4.0,29.79,SSE,158,3.8,4.3,39,0.00,,---,0.00,VWS V14.00,2013-02-01 10:56:00,
2013-02-01 05:57:00,25.5,4.0,29.79,South,180,3.1,3.8,39,0.00,,---,0.00,VWS V14.00,2013-02-01 10:57:00,
2013-02-01 05:58:00,25.3,3.9,29.79,SSE,158,3.1,3.1,39,0.00,,---,0.00,VWS V14.00,2013-02-01 10:58:00,
2013-02-01 05:59:00,25.3,3.9,29.79,South,180,2.9,3.8,39,0.00,,---,0.00,VWS V14.00,2013-02-01 10:59:00,
2013-02-01 06:00:00,26.1,5.6,29.79,SSE,158,4.0,6.0,41,0.00,,---,0.00,VWS V14.00,2013-02-01 11:00:00,
2013-02-01 06:01:00,25.3,3.9,29.79,SSW,202,2.5,2.7,39,0.00,,---,0.00,VWS V14.00,2013-02-01 11:01:00,
2013-02-01 06:02:00,25.3,3.9,29.79,SSW,202,4.0,4.0,39,0.00,,---,0.00,VWS V14.00,2013-02-01 11:02:00,
2013-02-01 06:03:00,25.3,3.9,29.79,SSW,202,4.7,4.7,39,0.00,,---,0.00,VWS V14.00,2013-02-01 11:03:00,
2013-02-01 06:04:00,25.3,3.9,29.79,SSW,202,2.7,4.7,39,0.00,,---,0.00,VWS V14.00,2013-02-01 11:04:00,
2013-02-01 06:05:00,26.1,5.6,29.79,SSW,202,4.3,6.5,41,0.00,,---,0.00,VWS V14.00,2013-02-01 11:05:00,
2013-02-01 06:06:00,25.3,3.9,29.79,SSW,202,3.1,3.6,39,0.00,,---,0.00,VWS V14.00,2013-02-01 11:06:00,
2013-02-01 06:07:00,25.3,3.9,29.79,SSW,202,1.6,3.8,39,0.00,,---,0.00,VWS V14.00,2013-02-01 11:07:00,
2013-02-01 06:08:00,25.3,3.9,29.79,SSW,202,3.1,5.4,39,0.00,,---,0.00,VWS V14.00,2013-02-01 11:08:00,
2013-02-01 06:09:00,25.3,3.9,29.79,SSW,202,3.4,5.8,39,0.00,,---,0.00,VWS V14.00,2013-02-01 11:09:00,
2013-02-01 06:10:00,26.2,5.2,29.79,WSW,248,6.5,6.5,40,0.00,,---,0.00,VWS V14.00,2013-02-01 11:10:00,
2013-02-01 06:11:00,25.3,3.9,29.79,South,180,3.8,4.7,39,0.00,,---,0.00,VWS V14.00,2013-02-01 11:11:00,
2013-02-01 06:12:00,25.3,3.9,29.79,South,180,4.0,4.0,39,0.00,,---,0.00,VWS V14.00,2013-02-01 11:12:00,
2013-02-01 06:13:00,25.3,3.9,29.79,SSW,202,4.9,6.3,39,0.00,,---,0.00,VWS V14.00,2013-02-01 11:13:00,
2013-02-01 06:14:00,25.3,3.9,29.79,South,180,3.4,5.8,39,0.00,,---,0.00,VWS V14.00,2013-02-01 11:14:00,
2013-02-01 06:15:00,26.2,5.8,29.79,SW,225,1.3,3.8,41,0.00,,---,0.00,VWS V14.00,2013-02-01 11:15:00,
2013-02-01 06:16:00,25.3,3.9,29.79,SSW,202,6.0,6.0,39,0.00,,---,0.00,VWS V14.00,2013-02-01 11:16:00,
2013-02-01 06:17:00,25.3,3.9,29.79,SSW,202,2.5,6.0,39,0.00,,---,0.00,VWS V14.00,2013-02-01 11:17:00,
2013-02-01 06:18:00,25.3,3.9,29.79,South,180,3.8,4.3,39,0.00,,---,0.00,VWS V14.00,2013-02-01 11:18:00,
2013-02-01 06:19:00,25.3,3.9,29.79,SSE,158,3.1,4.9,39,0.00,,---,0.00,VWS V14.00,2013-02-01 11:19:00,
2013-02-01 06:20:00,26.2,5.8,29.82,SSW,202,2.9,5.8,41,0.00,,---,0.00,VWS V14.00,2013-02-01 11:20:00,
2013-02-01 06:21:00,25.3,3.9,29.79,SSW,202,2.7,4.9,39,0.00,,---,0.00,VWS V14.00,2013-02-01 11:21:00,
2013-02-01 06:22:00,25.3,4.4,29.79,SSE,158,2.9,3.1,40,0.00,,---,0.00,VWS V14.00,2013-02-01 11:22:00,
2013-02-01 06:23:00,25.3,4.4,29.79,SSE,158,2.0,3.6,40,0.00,,---,0.00,VWS V14.00,2013-02-01 11:23:00,
2013-02-01 06:24:00,25.3,4.4,29.79,SSW,202,3.8,3.8,40,0.00,,---,0.00,VWS V14.00,2013-02-01 11:24:00,
2013-02-01 06:25:00,26.1,5.6,29.82,SSE,158,4.5,5.6,41,0.00,,---,0.00,VWS V14.00,2013-02-01 11:25:00,
2013-02-01 06:26:00,25.3,4.4,29.79,SSW,202,2.5,3.1,40,0.00,,---,0.00,VWS V14.00,2013-02-01 11:26:00,
2013-02-01 06:27:00,25.3,4.4,29.79,South,180,3.1,3.1,40,0.00,,---,0.00,VWS V14.00,2013-02-01 11:27:00,
2013-02-01 06:28:00,25.3,4.4,29.79,SSW,202,3.6,4.3,40,0.00,,---,0.00,VWS V14.00,2013-02-01 11:28:00,
2013-02-01 06:29:00,25.3,4.4,29.79,SSW,202,1.3,3.8,40,0.00,,---,0.00,VWS V14.00,2013-02-01 11:29:00,
2013-02-01 06:30:00,26.1,5.6,29.82,SSW,202,2.5,4.3,41,0.00,,---,0.00,VWS V14.00,2013-02-01 11:30:00,
2013-02-01 06:31:00,25.3,4.4,29.79,South,180,4.9,4.9,40,0.00,,---,0.00,VWS V14.00,2013-02-01 11:31:00,
2013-02-01 06:32:00,25.3,4.4,29.79,South,180,3.6,6.5,40,0.00,,---,0.00,VWS V14.00,2013-02-01 11:32:00,
2013-02-01 06:33:00,25.3,4.4,29.79,SSW,202,4.7,6.9,40,0.00,,---,0.00,VWS V14.00,2013-02-01 11:33:00,
2013-02-01 06:34:00,25.3,4.4,29.79,SSW,202,3.8,4.7,40,0.00,,---,0.00,VWS V14.00,2013-02-01 11:34:00,
2013-02-01 06:35:00,26.1,5.6,29.82,WSW,248,2.9,6.3,41,0.00,,---,0.00,VWS V14.00,2013-02-01 11:35:00,
2013-02-01 06:36:00,25.3,4.4,29.79,SSE,158,2.7,4.0,40,0.00,,---,0.00,VWS V14.00,2013-02-01 11:36:00,
2013-02-01 06:37:00,25.3,4.4,29.79,West,270,3.4,4.9,40,0.00,,---,0.00,VWS V14.00,2013-02-01 11:37:00,
2013-02-01 06:38:00,25.3,4.4,29.79,SW,225,3.4,4.0,40,0.00,,---,0.00,VWS V14.00,2013-02-01 11:38:00,
2013-02-01 06:39:00,25.3,4.4,29.79,SSW,202,4.0,4.0,40,0.00,,---,0.00,VWS V14.00,2013-02-01 11:39:00,
2013-02-01 06:40:00,26.1,5.6,29.82,West,270,1.6,6.9,41,0.00,,---,0.00,VWS V14.00,2013-02-01 11:40:00,
2013-02-01 06:41:00,25.3,4.4,29.79,WSW,248,3.8,6.5,40,0.00,,---,0.00,VWS V14.00,2013-02-01 11:41:00,
2013-02-01 06:42:00,25.3,4.4,29.79,South,180,3.1,3.8,40,0.00,,---,0.00,VWS V14.00,2013-02-01 11:42:00,
2013-02-01 06:43:00,25.3,4.4,29.79,SSE,158,3.8,3.8,40,0.00,,---,0.00,VWS V14.00,2013-02-01 11:43:00,
2013-02-01 06:44:00,25.5,4.6,29.79,South,180,2.7,6.3,40,0.00,,---,0.00,VWS V14.00,2013-02-01 11:44:00,
2013-02-01 06:45:00,26.1,5.6,29.82,WNW,292,2.9,2.9,41,0.00,,---,0.00,VWS V14.00,2013-02-01 11:45:00,
2013-02-01 06:46:00,25.5,4.6,29.79,SSW,202,6.3,6.3,40,0.00,,---,0.00,VWS V14.00,2013-02-01 11:46:00,
2013-02-01 06:47:00,25.7,4.7,29.79,SW,225,3.8,6.3,40,0.00,,---,0.00,VWS V14.00,2013-02-01 11:47:00,
2013-02-01 06:48:00,25.7,4.7,29.79,South,180,2.7,4.0,40,0.00,,---,0.00,VWS V14.00,2013-02-01 11:48:00,
2013-02-01 06:49:00,25.7,4.7,29.79,SSW,202,3.6,4.9,40,0.00,,---,0.00,VWS V14.00,2013-02-01 11:49:00,
2013-02-01 06:50:00,25.9,5.4,29.82,SSE,158,2.5,3.4,41,0.00,,---,0.00,VWS V14.00,2013-02-01 11:50:00,
2013-02-01 06:51:00,25.7,4.7,29.79,SSE,158,6.3,7.6,40,0.00,,---,0.00,VWS V14.00,2013-02-01 11:51:00,
2013-02-01 06:52:00,25.7,4.7,29.79,South,180,7.4,7.4,40,0.00,,---,0.00,VWS V14.00,2013-02-01 11:52:00,
2013-02-01 06:53:00,25.7,4.7,29.79,South,180,9.6,9.6,40,0.00,,---,0.00,VWS V14.00,2013-02-01 11:53:00,
2013-02-01 06:54:00,25.7,5.3,29.79,SSW,202,3.8,9.6,41,0.00,,---,0.00,VWS V14.00,2013-02-01 11:54:00,
2013-02-01 06:55:00,25.9,5.4,29.82,SW,225,4.3,5.6,41,0.00,,---,0.00,VWS V14.00,2013-02-01 11:55:00,
2013-02-01 06:56:00,25.9,5.4,29.79,SSW,202,3.1,4.0,41,0.00,,---,0.00,VWS V14.00,2013-02-01 11:56:00,
2013-02-01 06:57:00,25.9,5.4,29.79,SSW,202,3.8,6.3,41,0.00,,---,0.00,VWS V14.00,2013-02-01 11:57:00,
2013-02-01 06:58:00,25.9,5.4,29.79,SSW,202,5.8,5.8,41,0.00,,---,0.00,VWS V14.00,2013-02-01 11:58:00,
2013-02-01 06:59:00,25.9,5.4,29.79,WSW,248,9.4,9.8,41,0.00,,---,0.00,VWS V14.00,2013-02-01 11:59:00,
2013-02-01 07:00:00,25.7,5.3,29.82,SSW,202,1.6,2.2,41,0.00,,---,0.00,VWS V14.00,2013-02-01 12:00:00,
2013-02-01 07:01:00,26.1,5.6,29.79,SSW,202,4.7,8.5,41,0.00,,---,0.00,VWS V14.00,2013-02-01 12:01:00,
2013-02-01 07:02:00,26.1,5.6,29.79,SSW,202,2.9,4.9,41,0.00,,---,0.00,VWS V14.00,2013-02-01 12:02:00,
2013-02-01 07:03:00,26.1,5.6,29.79,South,180,3.8,3.8,41,0.00,,---,0.00,VWS V14.00,2013-02-01 12:03:00,
2013-02-01 07:04:00,26.1,5.6,29.79,South,180,5.8,8.5,41,0.00,,---,0.00,VWS V14.00,2013-02-01 12:04:00,
2013-02-01 07:05:00,25.7,5.3,29.82,West,270,3.8,3.8,41,0.00,,---,0.00,VWS V14.00,2013-02-01 12:05:00,
2013-02-01 07:06:00,26.1,5.6,29.79,SSW,202,7.8,7.8,41,0.00,,---,0.00,VWS V14.00,2013-02-01 12:06:00,
2013-02-01 07:07:00,26.1,5.6,29.79,WNW,292,6.3,10.3,41,0.00,,---,0.00,VWS V14.00,2013-02-01 12:07:00,
2013-02-01 07:08:00,26.1,5.6,29.79,SSW,202,6.0,6.5,41,0.00,,---,0.00,VWS V14.00,2013-02-01 12:08:00,
2013-02-01 07:09:00,26.1,5.6,29.79,SSW,202,3.6,6.0,41,0.00,,---,0.00,VWS V14.00,2013-02-01 12:09:00,
2013-02-01 07:10:00,25.7,5.3,29.82,SSW,202,2.5,5.8,41,0.00,,---,0.00,VWS V14.00,2013-02-01 12:10:00,
2013-02-01 07:11:00,26.1,5.6,29.79,SSW,202,4.9,6.9,41,0.00,,---,0.00,VWS V14.00,2013-02-01 12:11:00,
2013-02-01 07:12:00,26.1,5.6,29.79,South,180,3.4,6.0,41,0.00,,---,0.00,VWS V14.00,2013-02-01 12:12:00,
2013-02-01 07:13:00,26.1,5.1,29.79,South,180,6.5,6.5,40,0.00,,---,0.00,VWS V14.00,2013-02-01 12:13:00,
2013-02-01 07:14:00,26.1,5.6,29.79,SSW,202,5.8,6.5,41,0.00,,---,0.00,VWS V14.00,2013-02-01 12:14:00,
2013-02-01 07:15:00,25.7,5.3,29.82,WNW,292,2.5,3.6,41,0.00,,---,0.00,VWS V14.00,2013-02-01 12:15:00,
2013-02-01 07:16:00,26.1,5.6,29.79,SW,225,2.5,5.4,41,0.00,,---,0.00,VWS V14.00,2013-02-01 12:16:00,
2013-02-01 07:17:00,26.2,5.8,29.79,WNW,292,4.0,7.2,41,0.00,,---,0.00,VWS V14.00,2013-02-01 12:17:00,
2013-02-01 07:18:00,26.2,5.8,29.79,South,180,5.6,5.6,41,0.00,,---,0.00,VWS V14.00,2013-02-01 12:18:00,
2013-02-01 07:19:00,26.2,5.2,29.79,SSE,158,4.0,6.5,40,0.00,,---,0.00,VWS V14.00,2013-02-01 12:19:00,
2013-02-01 07:20:00,25.7,5.3,29.82,SSW,202,2.7,4.0,41,0.00,,---,0.00,VWS V14.00,2013-02-01 12:20:00,
2013-02-01 07:21:00,26.2,5.2,29.79,SW,225,2.9,3.6,40,0.00,,---,0.00,VWS V14.00,2013-02-01 12:21:00,
2013-02-01 07:22:00,26.2,5.8,29.79,SSE,158,2.7,3.6,41,0.00,,---,0.00,VWS V14.00,2013-02-01 12:22:00,
2013-02-01 07:23:00,26.2,5.2,29.79,SSW,202,3.8,3.8,40,0.00,,---,0.00,VWS V14.00,2013-02-01 12:23:00,
2013-02-01 07:24:00,26.2,5.8,29.79,SSW,202,1.3,3.8,41,0.00,,---,0.00,VWS V14.00,2013-02-01 12:24:00,
2013-02-01 07:25:00,25.7,5.3,29.82,South,180,3.4,3.4,41,0.00,,---,0.00,VWS V14.00,2013-02-01 12:25:00,
2013-02-01 07:26:00,26.2,5.8,29.79,SW,225,2.0,2.5,41,0.00,,---,0.00,VWS V14.00,2013-02-01 12:26:00,
2013-02-01 07:27:00,26.2,5.8,29.82,SE,135,2.0,2.0,41,0.00,,---,0.00,VWS V14.00,2013-02-01 12:27:00,
2013-02-01 07:28:00,26.2,5.8,29.82,SSW,202,5.8,5.8,41,0.00,,---,0.00,VWS V14.00,2013-02-01 12:28:00,
2013-02-01 07:29:00,26.2,5.8,29.82,WSW,248,3.8,5.8,41,0.00,,---,0.00,VWS V14.00,2013-02-01 12:29:00,
2013-02-01 07:30:00,25.9,5.4,29.82,South,180,3.6,3.6,41,0.00,,---,0.00,VWS V14.00,2013-02-01 12:30:00,
2013-02-01 07:31:00,26.2,5.8,29.82,SSW,202,2.7,3.6,41,0.00,,---,0.00,VWS V14.00,2013-02-01 12:31:00,
2013-02-01 07:32:00,26.2,5.8,29.82,SSE,158,3.6,3.6,41,0.00,,---,0.00,VWS V14.00,2013-02-01 12:32:00,
2013-02-01 07:33:00,26.1,5.6,29.82,SSW,202,5.6,5.6,41,0.00,,---,0.00,VWS V14.00,2013-02-01 12:33:00,
2013-02-01 07:34:00,26.1,5.6,29.82,SSW,202,3.4,5.6,41,0.00,,---,0.00,VWS V14.00,2013-02-01 12:34:00,
2013-02-01 07:35:00,26.1,5.6,29.82,SSW,202,3.1,3.8,41,0.00,,---,0.00,VWS V14.00,2013-02-01 12:35:00,
2013-02-01 07:36:00,26.1,5.6,29.82,South,180,3.6,3.8,41,0.00,,---,0.00,VWS V14.00,2013-02-01 12:36:00,
2013-02-01 07:37:00,26.1,5.6,29.82,South,180,2.0,3.6,41,0.00,,---,0.00,VWS V14.00,2013-02-01 12:37:00,
2013-02-01 07:38:00,26.1,5.6,29.82,South,180,4.3,4.7,41,0.00,,---,0.00,VWS V14.00,2013-02-01 12:38:00,
2013-02-01 07:39:00,26.1,5.6,29.82,SSW,202,2.5,4.3,41,0.00,,---,0.00,VWS V14.00,2013-02-01 12:39:00,
2013-02-01 07:40:00,26.1,5.6,29.82,NW,315,5.8,6.5,41,0.00,,---,0.00,VWS V14.00,2013-02-01 12:40:00,
2013-02-01 07:41:00,26.1,5.6,29.82,WNW,292,4.3,5.6,41,0.00,,---,0.00,VWS V14.00,2013-02-01 12:41:00,
2013-02-01 07:42:00,26.1,5.6,29.82,ESE,112,3.1,4.3,41,0.00,,---,0.00,VWS V14.00,2013-02-01 12:42:00,
2013-02-01 07:43:00,26.1,5.6,29.82,South,180,5.6,5.6,41,0.00,,---,0.00,VWS V14.00,2013-02-01 12:43:00,
2013-02-01 07:44:00,26.1,5.6,29.82,SW,225,2.2,6.3,41,0.00,,---,0.00,VWS V14.00,2013-02-01 12:44:00,
2013-02-01 07:45:00,26.2,5.8,29.82,SW,225,2.9,4.9,41,0.00,,---,0.00,VWS V14.00,2013-02-01 12:45:00,
2013-02-01 07:46:00,26.1,5.6,29.82,WSW,248,2.0,5.4,41,0.00,,---,0.00,VWS V14.00,2013-02-01 12:46:00,
2013-02-01 07:47:00,26.1,5.6,29.82,SSW,202,2.7,2.7,41,0.00,,---,0.00,VWS V14.00,2013-02-01 12:47:00,
2013-02-01 07:48:00,26.1,5.6,29.82,North,0,6.9,9.2,41,0.00,,---,0.00,VWS V14.00,2013-02-01 12:48:00,
2013-02-01 07:49:00,26.1,5.6,29.82,West,270,1.6,6.9,41,0.00,,---,0.00,VWS V14.00,2013-02-01 12:49:00,
2013-02-01 07:50:00,26.4,5.9,29.85,South,180,1.3,2.0,41,0.00,,---,0.00,VWS V14.00,2013-02-01 12:50:00,
2013-02-01 07:51:00,26.1,5.6,29.82,SW,225,1.1,2.2,41,0.00,,---,0.00,VWS V14.00,2013-02-01 12:51:00,
2013-02-01 07:52:00,26.1,5.6,29.82,WNW,292,1.6,2.7,41,0.00,,---,0.00,VWS V14.00,2013-02-01 12:52:00,
2013-02-01 07:53:00,26.1,5.6,29.82,WNW,292,1.1,2.0,41,0.00,,---,0.00,VWS V14.00,2013-02-01 12:53:00,
2013-02-01 07:54:00,26.1,5.6,29.82,WNW,292,2.9,2.9,41,0.00,,---,0.00,VWS V14.00,2013-02-01 12:54:00,
2013-02-01 07:55:00,26.4,5.9,29.85,WSW,248,5.6,8.5,41,0.00,,---,0.00,VWS V14.00,2013-02-01 12:55:00,
2013-02-01 07:56:00,25.9,5.4,29.82,West,270,1.6,2.5,41,0.00,,---,0.00,VWS V14.00,2013-02-01 12:56:00,
2013-02-01 07:57:00,25.9,5.4,29.82,WSW,248,2.0,4.0,41,0.00,,---,0.00,VWS V14.00,2013-02-01 12:57:00,
2013-02-01 07:58:00,25.9,5.4,29.82,SSW,202,1.6,4.0,41,0.00,,---,0.00,VWS V14.00,2013-02-01 12:58:00,
2013-02-01 07:59:00,25.9,5.4,29.82,South,180,3.4,3.4,41,0.00,,---,0.00,VWS V14.00,2013-02-01 12:59:00,
2013-02-01 08:00:00,26.6,6.1,29.85,WNW,292,1.6,2.0,41,0.00,,---,0.00,VWS V14.00,2013-02-01 13:00:00,
2013-02-01 08:01:00,25.9,5.4,29.82,SW,225,4.3,4.3,41,0.00,,---,0.00,VWS V14.00,2013-02-01 13:01:00,
2013-02-01 08:02:00,25.9,5.4,29.82,SSW,202,1.6,4.3,41,0.00,,---,0.00,VWS V14.00,2013-02-01 13:02:00,
2013-02-01 08:03:00,25.9,5.4,29.82,SSE,158,2.7,3.4,41,0.00,,---,0.00,VWS V14.00,2013-02-01 13:03:00,
2013-02-01 08:05:00,26.8,6.2,29.85,WNW,292,2.5,2.5,41,0.00,,---,0.00,VWS V14.00,2013-02-01 13:05:00,
2013-02-01 08:06:00,25.7,5.3,29.82,South,180,3.1,3.4,41,0.00,,---,0.00,VWS V14.00,2013-02-01 13:06:00,
2013-02-01 08:07:00,25.7,5.3,29.82,WSW,248,3.8,4.9,41,0.00,,---,0.00,VWS V14.00,2013-02-01 13:07:00,
2013-02-01 08:08:00,25.7,5.3,29.82,South,180,0.9,3.8,41,0.00,,---,0.00,VWS V14.00,2013-02-01 13:08:00,
2013-02-01 08:09:00,25.7,5.3,29.82,SSW,202,2.7,2.7,41,0.00,,---,0.00,VWS V14.00,2013-02-01 13:09:00,
2013-02-01 08:10:00,26.8,6.2,29.85,WNW,292,2.0,4.3,41,0.00,,---,0.00,VWS V14.00,2013-02-01 13:10:00,
2013-02-01 08:11:00,25.7,5.3,29.82,SSE,158,1.1,4.3,41,0.00,,---,0.00,VWS V14.00,2013-02-01 13:11:00,
2013-02-01 08:12:00,25.7,5.3,29.82,WSW,248,5.8,5.8,41,0.00,,---,0.00,VWS V14.00,2013-02-01 13:12:00,
2013-02-01 08:13:00,25.7,5.3,29.82,SSW,202,3.8,5.8,41,0.00,,---,0.00,VWS V14.00,2013-02-01 13:13:00,
2013-02-01 08:14:00,25.7,5.3,29.82,West,270,3.8,3.8,41,0.00,,---,0.00,VWS V14.00,2013-02-01 13:14:00,
2013-02-01 08:15:00,27.0,6.4,29.85,WNW,292,2.7,3.1,41,0.00,,---,0.00,VWS V14.00,2013-02-01 13:15:00,
2013-02-01 08:16:00,25.7,5.3,29.82,SSW,202,3.6,3.6,41,0.00,,---,0.00,VWS V14.00,2013-02-01 13:16:00,
2013-02-01 08:17:00,25.7,5.3,29.82,SSW,202,2.9,3.6,41,0.00,,---,0.00,VWS V14.00,2013-02-01 13:17:00,
2013-02-01 08:18:00,25.7,5.3,29.82,WSW,248,1.3,3.4,41,0.00,,---,0.00,VWS V14.00,2013-02-01 13:18:00,
2013-02-01 08:19:00,25.7,5.3,29.82,SSW,202,2.5,5.8,41,0.00,,---,0.00,VWS V14.00,2013-02-01 13:19:00,
2013-02-01 08:20:00,27.1,6.6,29.82,SW,225,2.5,4.3,41,0.00,,---,0.00,VWS V14.00,2013-02-01 13:20:00,
2013-02-01 08:21:00,25.7,5.3,29.82,SSW,202,2.5,3.8,41,0.00,,---,0.00,VWS V14.00,2013-02-01 13:21:00,
2013-02-01 08:22:00,25.7,5.3,29.82,West,270,0.9,2.5,41,0.00,,---,0.00,VWS V14.00,2013-02-01 13:22:00,
2013-02-01 08:23:00,25.7,5.3,29.82,SW,225,3.6,3.6,41,0.00,,---,0.00,VWS V14.00,2013-02-01 13:23:00,
2013-02-01 08:24:00,25.7,5.3,29.82,SSW,202,1.6,3.6,41,0.00,,---,0.00,VWS V14.00,2013-02-01 13:24:00,
2013-02-01 08:25:00,27.3,6.7,29.82,West,270,2.7,2.9,41,0.00,,---,0.00,VWS V14.00,2013-02-01 13:25:00,
2013-02-01 08:26:00,25.7,5.3,29.82,SSE,158,3.4,4.0,41,0.00,,---,0.00,VWS V14.00,2013-02-01 13:26:00,
2013-02-01 08:27:00,25.7,5.3,29.82,SW,225,4.7,4.7,41,0.00,,---,0.00,VWS V14.00,2013-02-01 13:27:00,
2013-02-01 08:28:00,25.7,5.3,29.82,SSE,158,2.5,4.7,41,0.00,,---,0.00,VWS V14.00,2013-02-01 13:28:00,
2013-02-01 08:29:00,25.7,5.3,29.82,SW,225,2.0,4.0,41,0.00,,---,0.00,VWS V14.00,2013-02-01 13:29:00,
2013-02-01 08:30:00,27.5,6.9,29.82,SW,225,3.8,5.4,41,0.00,,---,0.00,VWS V14.00,2013-02-01 13:30:00,
2013-02-01 08:32:00,25.7,5.3,29.82,SW,225,3.6,4.5,41,0.00,,---,0.00,VWS V14.00,2013-02-01 13:32:00,
2013-02-01 08:33:00,25.7,5.3,29.82,South,180,3.4,3.6,41,0.00,,---,0.00,VWS V14.00,2013-02-01 13:33:00,
2013-02-01 08:34:00,25.7,5.3,29.82,South,180,3.4,3.4,41,0.00,,---,0.00,VWS V14.00,2013-02-01 13:34:00,
2013-02-01 08:35:00,27.5,6.4,29.85,NW,315,5.6,7.6,40,0.00,,---,0.00,VWS V14.00,2013-02-01 13:35:00,
2013-02-01 08:36:00,25.9,5.4,29.82,SSW,202,3.4,3.4,41,0.00,,---,0.00,VWS V14.00,2013-02-01 13:36:00,
2013-02-01 08:37:00,25.9,5.4,29.82,South,180,4.3,4.3,41,0.00,,---,0.00,VWS V14.00,2013-02-01 13:37:00,
2013-02-01 08:38:00,25.9,5.4,29.82,SSW,202,1.1,4.3,41,0.00,,---,0.00,VWS V14.00,2013-02-01 13:38:00,
2013-02-01 08:39:00,25.9,5.4,29.82,SW,225,5.6,5.6,41,0.00,,---,0.00,VWS V14.00,2013-02-01 13:39:00,
2013-02-01 08:40:00,27.7,6.5,29.85,SSW,202,2.7,3.4,40,0.00,,---,0.00,VWS V14.00,2013-02-01 13:40:00,
2013-02-01 08:41:00,26.1,5.6,29.82,SSW,202,5.4,5.4,41,0.00,,---,0.00,VWS V14.00,2013-02-01 13:41:00,
2013-02-01 08:42:00,26.1,5.6,29.82,SSE,158,2.9,5.4,41,0.00,,---,0.00,VWS V14.00,2013-02-01 13:42:00,
2013-02-01 08:43:00,26.1,5.6,29.82,West,270,3.8,6.3,41,0.00,,---,0.00,VWS V14.00,2013-02-01 13:43:00,
2013-02-01 08:44:00,26.1,5.6,29.82,South,180,2.7,3.8,41,0.00,,---,0.00,VWS V14.00,2013-02-01 13:44:00,
2013-02-01 08:45:00,27.9,6.7,29.85,SSE,158,3.1,3.1,40,0.00,,---,0.00,VWS V14.00,2013-02-01 13:45:00,
2013-02-01 08:46:00,26.1,5.6,29.82,NNW,338,2.5,6.3,41,0.00,,---,0.00,VWS V14.00,2013-02-01 13:46:00,
2013-02-01 08:47:00,26.1,5.6,29.82,West,270,2.2,2.7,41,0.00,,---,0.00,VWS V14.00,2013-02-01 13:47:00,
2013-02-01 08:48:00,26.1,5.6,29.82,SW,225,6.5,6.5,41,0.00,,---,0.00,VWS V14.00,2013-02-01 13:48:00,
2013-02-01 08:49:00,26.1,5.6,29.82,NW,315,5.8,6.5,41,0.00,,---,0.00,VWS V14.00,2013-02-01 13:49:00,
2013-02-01 08:50:00,27.9,6.7,29.85,SW,225,2.7,3.6,40,0.00,,---,0.00,VWS V14.00,2013-02-01 13:50:00,
2013-02-01 08:51:00,26.2,5.8,29.82,SSE,158,2.9,2.9,41,0.00,,---,0.00,VWS V14.00,2013-02-01 13:51:00,
2013-02-01 08:52:00,26.2,5.8,29.82,SW,225,1.3,2.9,41,0.00,,---,0.00,VWS V14.00,2013-02-01 13:52:00,
2013-02-01 08:53:00,26.2,5.8,29.82,NNW,338,4.9,4.9,41,0.00,,---,0.00,VWS V14.00,2013-02-01 13:53:00,
2013-02-01 08:54:00,26.2,5.8,29.82,SW,225,2.9,4.9,41,0.00,,---,0.00,VWS V14.00,2013-02-01 13:54:00,
2013-02-01 08:55:00,28.0,6.8,29.85,West,270,2.9,4.5,40,0.00,,---,0.00,VWS V14.00,2013-02-01 13:55:00,
2013-02-01 08:56:00,26.2,5.8,29.82,West,270,2.7,3.8,41,0.00,,---,0.00,VWS V14.00,2013-02-01 13:56:00,
2013-02-01 08:57:00,26.4,5.9,29.85,NW,315,0.0,3.4,41,0.00,,---,0.00,VWS V14.00,2013-02-01 13:57:00,
2013-02-01 08:58:00,26.4,5.9,29.85,WSW,248,1.6,2.2,41,0.00,,---,0.00,VWS V14.00,2013-02-01 13:58:00,
2013-02-01 08:59:00,26.4,5.9,29.85,SSW,202,2.7,2.7,41,0.00,,---,0.00,VWS V14.00,2013-02-01 13:59:00,
2013-02-01 09:00:00,28.0,6.8,29.85,SSW,202,3.1,3.1,40,0.00,,---,0.00,VWS V14.00,2013-02-01 14:00:00,
2013-02-01 09:01:00,26.4,5.9,29.85,WNW,292,2.0,3.4,41,0.00,,---,0.00,VWS V14.00,2013-02-01 14:01:00,
2013-02-01 09:02:00,26.4,5.9,29.85,West,270,2.5,2.5,41,0.00,,---,0.00,VWS V14.00,2013-02-01 14:02:00,
2013-02-01 09:03:00,26.4,5.9,29.85,WSW,248,3.4,3.4,41,0.00,,---,0.00,VWS V14.00,2013-02-01 14:03:00,
2013-02-01 09:04:00,26.4,5.9,29.85,West,270,3.4,8.5,41,0.00,,---,0.00,VWS V14.00,2013-02-01 14:04:00,
2013-02-01 09:05:00,28.2,6.4,29.85,North,0,1.6,3.1,39,0.00,,---,0.00,VWS V14.00,2013-02-01 14:05:00,
2013-02-01 09:06:00,26.6,6.1,29.85,SSW,202,2.0,3.6,41,0.00,,---,0.00,VWS V14.00,2013-02-01 14:06:00,
2013-02-01 09:07:00,26.6,6.1,29.85,WSW,248,2.9,7.6,41,0.00,,---,0.00,VWS V14.00,2013-02-01 14:07:00,
2013-02-01 09:08:00,26.6,6.1,29.85,SSE,158,2.0,2.9,41,0.00,,---,0.00,VWS V14.00,2013-02-01 14:08:00,
2013-02-01 09:09:00,26.6,6.1,29.85,NW,315,3.6,3.6,41,0.00,,---,0.00,VWS V14.00,2013-02-01 14:09:00,
2013-02-01 09:10:00,28.4,6.6,29.85,NW,315,5.8,5.8,39,0.00,,---,0.00,VWS V14.00,2013-02-01 14:10:00,
2013-02-01 09:11:00,26.6,6.1,29.85,SSW,202,6.3,7.4,41,0.00,,---,0.00,VWS V14.00,2013-02-01 14:11:00,
2013-02-01 09:12:00,26.8,6.2,29.85,South,180,6.0,6.3,41,0.00,,---,0.00,VWS V14.00,2013-02-01 14:12:00,
2013-02-01 09:13:00,26.8,6.2,29.85,WNW,292,0.0,6.0,41,0.00,,---,0.00,VWS V14.00,2013-02-01 14:13:00,
2013-02-01 09:14:00,26.8,6.2,29.85,WNW,292,3.4,3.4,41,0.00,,---,0.00,VWS V14.00,2013-02-01 14:14:00,
2013-02-01 09:15:00,28.6,6.2,29.85,SW,225,2.5,3.8,38,0.00,,---,0.00,VWS V14.00,2013-02-01 14:15:00,
2013-02-01 09:16:00,26.8,6.2,29.85,ENE,68,2.0,9.4,41,0.00,,---,0.00,VWS V14.00,2013-02-01 14:16:00,
2013-02-01 09:17:00,26.8,6.2,29.85,West,270,3.1,3.1,41,0.00,,---,0.00,VWS V14.00,2013-02-01 14:17:00,
2013-02-01 09:18:00,26.8,6.2,29.85,WNW,292,4.3,4.3,41,0.00,,---,0.00,VWS V14.00,2013-02-01 14:18:00,
2013-02-01 09:19:00,26.8,6.2,29.85,NNW,338,1.1,4.3,41,0.00,,---,0.00,VWS V14.00,2013-02-01 14:19:00,
2013-02-01 09:20:00,28.6,6.2,29.85,NNE,22,4.3,6.0,38,0.00,,---,0.00,VWS V14.00,2013-02-01 14:20:00,
2013-02-01 09:21:00,27.0,6.4,29.85,SW,225,3.1,3.6,41,0.00,,---,0.00,VWS V14.00,2013-02-01 14:21:00,
2013-02-01 09:22:00,27.0,6.4,29.85,SE,135,3.6,3.6,41,0.00,,---,0.00,VWS V14.00,2013-02-01 14:22:00,
2013-02-01 09:23:00,27.0,6.4,29.85,SW,225,3.1,4.9,41,0.00,,---,0.00,VWS V14.00,2013-02-01 14:23:00,
2013-02-01 09:24:00,27.0,6.4,29.85,WSW,248,2.5,3.1,41,0.00,,---,0.00,VWS V14.00,2013-02-01 14:24:00,
2013-02-01 09:25:00,28.6,5.6,29.85,West,270,4.0,6.9,37,0.00,,---,0.00,VWS V14.00,2013-02-01 14:25:00,
2013-02-01 09:26:00,27.0,6.4,29.85,West,270,1.3,2.9,41,0.00,,---,0.00,VWS V14.00,2013-02-01 14:26:00,
2013-02-01 09:27:00,27.0,6.4,29.82,NW,315,2.5,4.5,41,0.00,,---,0.00,VWS V14.00,2013-02-01 14:27:00,
2013-02-01 09:28:00,27.1,6.6,29.82,NW,315,3.8,3.8,41,0.00,,---,0.00,VWS V14.00,2013-02-01 14:28:00,
2013-02-01 09:29:00,27.1,6.6,29.82,SW,225,2.5,4.3,41,0.00,,---,0.00,VWS V14.00,2013-02-01 14:29:00,
2013-02-01 09:30:00,28.6,5.6,29.85,NW,315,3.4,3.4,37,0.00,,---,0.00,VWS V14.00,2013-02-01 14:30:00,
2013-02-01 09:31:00,27.1,6.6,29.82,WSW,248,2.2,2.2,41,0.00,,---,0.00,VWS V14.00,2013-02-01 14:31:00,
2013-02-01 09:32:00,27.1,6.6,29.82,North,0,3.4,3.4,41,0.00,,---,0.00,VWS V14.00,2013-02-01 14:32:00,
2013-02-01 09:33:00,27.3,6.7,29.82,NNW,338,2.9,4.3,41,0.00,,---,0.00,VWS V14.00,2013-02-01 14:33:00,
2013-02-01 09:34:00,27.3,6.7,29.82,NNW,338,2.2,2.9,41,0.00,,---,0.00,VWS V14.00,2013-02-01 14:34:00,
2013-02-01 09:35:00,28.6,5.6,29.85,SSW,202,2.7,3.6,37,0.00,,---,0.00,VWS V14.00,2013-02-01 14:35:00,
2013-02-01 09:36:00,27.3,6.7,29.82,WSW,248,3.4,4.0,41,0.00,,---,0.00,VWS V14.00,2013-02-01 14:36:00,
2013-02-01 09:37:00,27.3,6.7,29.82,SSW,202,8.7,8.7,41,0.00,,---,0.00,VWS V14.00,2013-02-01 14:37:00,
2013-02-01 09:38:00,27.5,6.9,29.82,West,270,5.4,8.7,41,0.00,,---,0.00,VWS V14.00,2013-02-01 14:38:00,
2013-02-01 09:39:00,27.5,6.9,29.82,South,180,2.9,5.4,41,0.00,,---,0.00,VWS V14.00,2013-02-01 14:39:00,
2013-02-01 09:40:00,28.8,5.8,29.85,WSW,248,1.1,3.4,37,0.00,,---,0.00,VWS V14.00,2013-02-01 14:40:00,
2013-02-01 09:41:00,27.5,6.9,29.82,West,270,3.6,4.9,41,0.00,,---,0.00,VWS V14.00,2013-02-01 14:41:00,
2013-02-01 09:42:00,27.5,6.9,29.85,SSE,158,7.2,7.2,41,0.00,,---,0.00,VWS V14.00,2013-02-01 14:42:00,
2013-02-01 09:43:00,27.5,6.4,29.85,SSW,202,4.3,7.2,40,0.00,,---,0.00,VWS V14.00,2013-02-01 14:43:00,
2013-02-01 09:44:00,27.5,6.4,29.85,SSW,202,3.8,7.6,40,0.00,,---,0.00,VWS V14.00,2013-02-01 14:44:00,
2013-02-01 09:45:00,28.9,5.9,29.85,SW,225,3.4,4.9,37,0.00,,---,0.00,VWS V14.00,2013-02-01 14:45:00,
2013-02-01 09:46:00,27.5,6.4,29.85,WSW,248,3.4,3.6,40,0.00,,---,0.00,VWS V14.00,2013-02-01 14:46:00,
2013-02-01 09:47:00,27.7,6.5,29.85,ESE,112,3.6,4.0,40,0.00,,---,0.00,VWS V14.00,2013-02-01 14:47:00,
2013-02-01 09:48:00,27.7,6.5,29.85,NW,315,3.4,3.6,40,0.00,,---,0.00,VWS V14.00,2013-02-01 14:48:00,
2013-02-01 09:49:00,27.7,6.5,29.85,SSW,202,2.7,3.4,40,0.00,,---,0.00,VWS V14.00,2013-02-01 14:49:00,
2013-02-01 09:50:00,28.9,5.9,29.85,SW,225,4.3,4.3,37,0.00,,---,0.00,VWS V14.00,2013-02-01 14:50:00,
2013-02-01 09:51:00,27.7,6.5,29.85,WSW,248,3.4,3.4,40,0.00,,---,0.00,VWS V14.00,2013-02-01 14:51:00,
2013-02-01 09:52:00,27.7,6.5,29.85,SSE,158,2.0,3.4,40,0.00,,---,0.00,VWS V14.00,2013-02-01 14:52:00,
2013-02-01 09:53:00,27.7,6.5,29.85,WSW,248,2.0,2.7,40,0.00,,---,0.00,VWS V14.00,2013-02-01 14:53:00,
2013-02-01 09:54:00,27.9,6.7,29.85,SE,135,4.7,4.7,40,0.00,,---,0.00,VWS V14.00,2013-02-01 14:54:00,
2013-02-01 09:55:00,29.1,6.1,29.85,WSW,248,2.5,4.7,37,0.00,,---,0.00,VWS V14.00,2013-02-01 14:55:00,
2013-02-01 09:56:00,27.9,6.7,29.85,NW,315,2.9,2.9,40,0.00,,---,0.00,VWS V14.00,2013-02-01 14:56:00,
2013-02-01 09:57:00,27.9,6.7,29.85,West,270,3.8,4.3,40,0.00,,---,0.00,VWS V14.00,2013-02-01 14:57:00,
2013-02-01 09:58:00,27.9,6.7,29.85,WNW,292,3.6,10.7,40,0.00,,---,0.00,VWS V14.00,2013-02-01 14:58:00,
2013-02-01 09:59:00,27.9,6.7,29.85,WNW,292,2.0,3.6,40,0.00,,---,0.00,VWS V14.00,2013-02-01 14:59:00,
2013-02-01 10:00:00,29.3,6.3,29.85,South,180,3.6,4.0,37,0.00,,---,0.00,VWS V14.00,2013-02-01 15:00:00,
2013-02-01 10:01:00,27.9,6.7,29.85,SSW,202,4.0,4.0,40,0.00,,---,0.00,VWS V14.00,2013-02-01 15:01:00,
2013-02-01 10:02:00,28.0,6.8,29.85,SSW,202,2.9,4.0,40,0.00,,---,0.00,VWS V14.00,2013-02-01 15:02:00,
2013-02-01 10:03:00,28.0,6.8,29.85,South,180,4.5,6.0,40,0.00,,---,0.00,VWS V14.00,2013-02-01 15:03:00,
2013-02-01 10:04:00,28.0,6.8,29.85,SW,225,4.0,4.5,40,0.00,,---,0.00,VWS V14.00,2013-02-01 15:04:00,
2013-02-01 10:05:00,29.3,6.3,29.85,South,180,6.5,6.5,37,0.00,,---,0.00,VWS V14.00,2013-02-01 15:05:00,
2013-02-01 10:06:00,28.0,6.8,29.85,SSE,158,2.5,4.3,40,0.00,,---,0.00,VWS V14.00,2013-02-01 15:06:00,
2013-02-01 10:07:00,28.0,6.8,29.85,SSE,158,4.0,4.0,40,0.00,,---,0.00,VWS V14.00,2013-02-01 15:07:00,
2013-02-01 10:08:00,28.0,6.8,29.85,WNW,292,3.1,6.3,40,0.00,,---,0.00,VWS V14.00,2013-02-01 15:08:00,
2013-02-01 10:09:00,28.0,6.8,29.85,SSW,202,3.1,3.1,40,0.00,,---,0.00,VWS V14.00,2013-02-01 15:09:00,
2013-02-01 10:10:00,29.3,5.7,29.85,SW,225,4.9,4.9,36,0.00,,---,0.00,VWS V14.00,2013-02-01 15:10:00,
2013-02-01 10:11:00,28.2,6.4,29.85,South,180,6.3,9.8,39,0.00,,---,0.00,VWS V14.00,2013-02-01 15:11:00,
2013-02-01 10:12:00,28.2,6.4,29.85,SSE,158,8.5,8.5,39,0.00,,---,0.00,VWS V14.00,2013-02-01 15:12:00,
2013-02-01 10:13:00,28.2,6.4,29.85,WSW,248,2.9,8.5,39,0.00,,---,0.00,VWS V14.00,2013-02-01 15:13:00,
2013-02-01 10:14:00,28.2,6.4,29.85,ENE,68,2.0,3.1,39,0.00,,---,0.00,VWS V14.00,2013-02-01 15:14:00,
2013-02-01 10:15:00,29.5,5.8,29.85,East,90,2.2,5.6,36,0.00,,---,0.00,VWS V14.00,2013-02-01 15:15:00,
2013-02-01 10:16:00,28.2,6.4,29.85,WNW,292,3.6,3.6,39,0.00,,---,0.00,VWS V14.00,2013-02-01 15:16:00,
2013-02-01 10:17:00,28.2,6.4,29.85,West,270,3.4,3.8,39,0.00,,---,0.00,VWS V14.00,2013-02-01 15:17:00,
2013-02-01 10:18:00,28.4,6.6,29.85,SW,225,3.8,4.3,39,0.00,,---,0.00,VWS V14.00,2013-02-01 15:18:00,
2013-02-01 10:19:00,28.4,6.6,29.85,NW,315,5.8,5.8,39,0.00,,---,0.00,VWS V14.00,2013-02-01 15:19:00,
2013-02-01 10:20:00,29.5,5.8,29.85,NNE,22,1.6,2.5,36,0.00,,---,0.00,VWS V14.00,2013-02-01 15:20:00,
2013-02-01 10:21:00,28.6,6.8,29.85,West,270,4.0,4.0,39,0.00,,---,0.00,VWS V14.00,2013-02-01 15:21:00,
2013-02-01 10:22:00,28.6,6.2,29.85,NW,315,3.8,4.0,38,0.00,,---,0.00,VWS V14.00,2013-02-01 15:22:00,
2013-02-01 10:23:00,28.6,6.2,29.85,East,90,3.6,3.8,38,0.00,,---,0.00,VWS V14.00,2013-02-01 15:23:00,
2013-02-01 10:24:00,28.6,6.2,29.85,SW,225,2.5,3.8,38,0.00,,---,0.00,VWS V14.00,2013-02-01 15:24:00,
2013-02-01 10:25:00,29.7,6.0,29.85,NW,315,1.6,2.7,36,0.00,,---,0.00,VWS V14.00,2013-02-01 15:25:00,
2013-02-01 10:26:00,28.6,6.2,29.85,West,270,3.1,5.6,38,0.00,,---,0.00,VWS V14.00,2013-02-01 15:26:00,
2013-02-01 10:27:00,28.6,6.2,29.85,WNW,292,3.6,3.6,38,0.00,,---,0.00,VWS V14.00,2013-02-01 15:27:00,
2013-02-01 10:28:00,28.6,6.2,29.85,NW,315,2.0,4.3,38,0.00,,---,0.00,VWS V14.00,2013-02-01 15:28:00,
2013-02-01 10:29:00,28.6,6.2,29.85,NNE,22,4.3,6.0,38,0.00,,---,0.00,VWS V14.00,2013-02-01 15:29:00,
2013-02-01 10:30:00,29.7,6.0,29.85,NNW,338,3.4,4.0,36,0.00,,---,0.00,VWS V14.00,2013-02-01 15:30:00,
2013-02-01 10:31:00,28.6,5.6,29.85,WNW,292,3.4,4.7,37,0.00,,---,0.00,VWS V14.00,2013-02-01 15:31:00,
2013-02-01 10:32:00,28.6,5.6,29.85,NE,45,3.6,3.6,37,0.00,,---,0.00,VWS V14.00,2013-02-01 15:32:00,
2013-02-01 10:33:00,28.6,5.6,29.85,WSW,248,5.8,5.8,37,0.00,,---,0.00,VWS V14.00,2013-02-01 15:33:00,
2013-02-01 10:34:00,28.6,5.6,29.85,West,270,4.0,6.9,37,0.00,,---,0.00,VWS V14.00,2013-02-01 15:34:00,
2013-02-01 10:35:00,29.8,6.2,29.85,SSW,202,3.4,3.4,36,0.00,,---,0.00,VWS V14.00,2013-02-01 15:35:00,
2013-02-01 10:36:00,28.6,5.6,29.85,WNW,292,5.8,6.5,37,0.00,,---,0.00,VWS V14.00,2013-02-01 15:36:00,
2013-02-01 10:37:00,28.6,5.6,29.85,WSW,248,3.6,5.8,37,0.00,,---,0.00,VWS V14.00,2013-02-01 15:37:00,
2013-02-01 10:38:00,28.6,5.6,29.85,West,270,2.9,3.6,37,0.00,,---,0.00,VWS V14.00,2013-02-01 15:38:00,
2013-02-01 10:39:00,28.6,5.6,29.85,West,270,2.9,3.4,37,0.00,,---,0.00,VWS V14.00,2013-02-01 15:39:00,
2013-02-01 10:40:00,30.0,6.3,29.85,NE,45,2.7,4.3,36,0.00,,---,0.00,VWS V14.00,2013-02-01 15:40:00,
2013-02-01 10:41:00,28.6,5.6,29.85,WNW,292,4.0,5.6,37,0.00,,---,0.00,VWS V14.00,2013-02-01 15:41:00,
2013-02-01 10:42:00,28.6,5.6,29.85,North,0,3.6,5.6,37,0.00,,---,0.00,VWS V14.00,2013-02-01 15:42:00,
2013-02-01 10:43:00,28.6,5.6,29.85,WNW,292,2.5,4.5,37,0.00,,---,0.00,VWS V14.00,2013-02-01 15:43:00,
2013-02-01 10:44:00,28.6,5.6,29.85,SSW,202,2.7,3.6,37,0.00,,---,0.00,VWS V14.00,2013-02-01 15:44:00,
2013-02-01 10:45:00,30.0,5.7,29.85,NW,315,3.1,4.0,35,0.00,,---,0.00,VWS V14.00,2013-02-01 15:45:00,
2013-02-01 10:46:00,28.8,5.8,29.85,SSE,158,4.0,4.3,37,0.00,,---,0.00,VWS V14.00,2013-02-01 15:46:00,
2013-02-01 10:47:00,28.8,5.8,29.85,South,180,1.6,4.0,37,0.00,,---,0.00,VWS V14.00,2013-02-01 15:47:00,
2013-02-01 10:48:00,28.8,5.8,29.85,West,270,3.1,4.3,37,0.00,,---,0.00,VWS V14.00,2013-02-01 15:48:00,
2013-02-01 10:49:00,28.8,5.8,29.85,SSW,202,2.5,3.4,37,0.00,,---,0.00,VWS V14.00,2013-02-01 15:49:00,
2013-02-01 10:50:00,30.2,5.9,29.85,East,90,2.0,4.0,35,0.00,,---,0.00,VWS V14.00,2013-02-01 15:50:00,
2013-02-01 10:51:00,28.8,5.8,29.85,SW,225,4.9,5.8,37,0.00,,---,0.00,VWS V14.00,2013-02-01 15:51:00,
2013-02-01 10:52:00,28.8,5.8,29.85,SSE,158,4.0,5.6,37,0.00,,---,0.00,VWS V14.00,2013-02-01 15:52:00,
2013-02-01 10:53:00,28.9,5.9,29.85,WNW,292,2.5,6.7,37,0.00,,---,0.00,VWS V14.00,2013-02-01 15:53:00,
2013-02-01 10:54:00,28.9,5.9,29.85,SW,225,3.4,4.9,37,0.00,,---,0.00,VWS V14.00,2013-02-01 15:54:00,
2013-02-01 10:55:00,30.2,5.9,29.85,WNW,292,1.3,2.7,35,0.00,,---,0.00,VWS V14.00,2013-02-01 15:55:00,
2013-02-01 10:56:00,28.9,5.9,29.85,SW,225,5.4,5.4,37,0.00,,---,0.00,VWS V14.00,2013-02-01 15:56:00,
2013-02-01 10:57:00,28.9,5.9,29.85,West,270,3.4,5.8,37,0.00,,---,0.00,VWS V14.00,2013-02-01 15:57:00,
2013-02-01 10:58:00,28.9,5.9,29.85,ESE,112,1.3,4.0,37,0.00,,---,0.00,VWS V14.00,2013-02-01 15:58:00,
2013-02-01 10:59:00,28.9,5.9,29.85,SW,225,4.3,4.3,37,0.00,,---,0.00,VWS V14.00,2013-02-01 15:59:00,
2013-02-01 11:00:00,30.2,5.9,29.85,WNW,292,2.9,6.0,35,0.00,,---,0.00,VWS V14.00,2013-02-01 16:00:00,
2013-02-01 11:01:00,28.9,5.9,29.85,WSW,248,2.0,5.4,37,0.00,,---,0.00,VWS V14.00,2013-02-01 16:01:00,
2013-02-01 11:02:00,28.9,5.9,29.85,East,90,6.3,6.3,37,0.00,,---,0.00,VWS V14.00,2013-02-01 16:02:00,
2013-02-01 11:03:00,28.9,5.9,29.85,North,0,4.7,6.3,37,0.00,,---,0.00,VWS V14.00,2013-02-01 16:03:00,
2013-02-01 11:04:00,29.1,6.1,29.85,NNW,338,5.6,5.6,37,0.00,,---,0.00,VWS V14.00,2013-02-01 16:04:00,
2013-02-01 11:05:00,30.4,6.0,29.85,NW,315,3.6,4.0,35,0.00,,---,0.00,VWS V14.00,2013-02-01 16:05:00,
2013-02-01 11:06:00,29.1,6.1,29.85,NNE,22,2.0,6.5,37,0.00,,---,0.00,VWS V14.00,2013-02-01 16:06:00,
2013-02-01 11:07:00,29.3,6.3,29.85,ESE,112,4.3,4.3,37,0.00,,---,0.00,VWS V14.00,2013-02-01 16:07:00,
2013-02-01 11:08:00,29.3,6.3,29.85,WNW,292,4.0,6.5,37,0.00,,---,0.00,VWS V14.00,2013-02-01 16:08:00,
2013-02-01 11:09:00,29.3,6.3,29.85,South,180,3.6,4.0,37,0.00,,---,0.00,VWS V14.00,2013-02-01 16:09:00,
2013-02-01 11:10:00,30.6,5.5,29.85,SW,225,2.9,3.8,34,0.00,,---,0.00,VWS V14.00,2013-02-01 16:10:00,
2013-02-01 11:11:00,29.3,6.3,29.85,NNW,338,2.0,3.8,37,0.00,,---,0.00,VWS V14.00,2013-02-01 16:11:00,
2013-02-01 11:12:00,29.3,6.3,29.85,North,0,3.1,6.3,37,0.00,,---,0.00,VWS V14.00,2013-02-01 16:12:00,
2013-02-01 11:13:00,29.3,6.3,29.85,WSW,248,5.8,8.1,37,0.00,,---,0.00,VWS V14.00,2013-02-01 16:13:00,
2013-02-01 11:14:00,29.3,6.3,29.85,South,180,13.0,13.0,37,0.00,,---,0.00,VWS V14.00,2013-02-01 16:14:00,
2013-02-01 11:15:00,30.7,6.3,29.85,SSW,202,4.3,5.4,35,0.00,,---,0.00,VWS V14.00,2013-02-01 16:15:00,
2013-02-01 11:16:00,29.3,5.7,29.85,NNW,338,5.4,5.4,36,0.00,,---,0.00,VWS V14.00,2013-02-01 16:16:00,
2013-02-01 11:17:00,29.3,5.7,29.85,WNW,292,4.3,5.8,36,0.00,,---,0.00,VWS V14.00,2013-02-01 16:17:00,
2013-02-01 11:18:00,29.3,5.7,29.85,SSW,202,3.1,4.3,36,0.00,,---,0.00,VWS V14.00,2013-02-01 16:18:00,
2013-02-01 11:19:00,29.3,5.7,29.85,SW,225,4.9,4.9,36,0.00,,---,0.00,VWS V14.00,2013-02-01 16:19:00,
2013-02-01 11:20:00,30.7,5.7,29.85,NNW,338,2.7,3.4,34,0.00,,---,0.00,VWS V14.00,2013-02-01 16:20:00,
2013-02-01 11:21:00,29.3,5.7,29.85,SW,225,2.2,3.1,36,0.00,,---,0.00,VWS V14.00,2013-02-01 16:21:00,
2013-02-01 11:22:00,29.5,5.8,29.85,SSW,202,2.5,2.5,36,0.00,,---,0.00,VWS V14.00,2013-02-01 16:22:00,
2013-02-01 11:23:00,29.5,5.8,29.85,WSW,248,3.1,8.1,36,0.00,,---,0.00,VWS V14.00,2013-02-01 16:23:00,
2013-02-01 11:24:00,29.5,5.8,29.85,South,180,0.9,5.6,36,0.00,,---,0.00,VWS V14.00,2013-02-01 16:24:00,
2013-02-01 11:25:00,30.9,5.9,29.85,WSW,248,2.9,4.9,34,0.00,,---,0.00,VWS V14.00,2013-02-01 16:25:00,
2013-02-01 11:26:00,29.5,5.8,29.85,WSW,248,3.8,4.7,36,0.00,,---,0.00,VWS V14.00,2013-02-01 16:26:00,
2013-02-01 11:27:00,29.5,5.8,29.85,East,90,1.1,3.8,36,0.00,,---,0.00,VWS V14.00,2013-02-01 16:27:00,
2013-02-01 11:28:00,29.5,5.8,29.85,NNE,22,2.5,2.9,36,0.00,,---,0.00,VWS V14.00,2013-02-01 16:28:00,
2013-02-01 11:29:00,29.5,5.8,29.85,WNW,292,1.3,2.5,36,0.00,,---,0.00,VWS V14.00,2013-02-01 16:29:00,
2013-02-01 11:30:00,31.1,6.0,29.85,West,270,3.8,3.8,34,0.00,,---,0.00,VWS V14.00,2013-02-01 16:30:00,
2013-02-01 11:31:00,29.7,6.0,29.85,SW,225,2.9,5.4,36,0.00,,---,0.00,VWS V14.00,2013-02-01 16:31:00,
2013-02-01 11:32:00,29.7,6.0,29.85,SSE,158,3.4,4.9,36,0.00,,---,0.00,VWS V14.00,2013-02-01 16:32:00,
2013-02-01 11:33:00,29.7,6.0,29.85,SE,135,2.0,3.4,36,0.00,,---,0.00,VWS V14.00,2013-02-01 16:33:00,
2013-02-01 11:34:00,29.7,5.4,29.85,NW,315,1.6,2.7,35,0.00,,---,0.00,VWS V14.00,2013-02-01 16:34:00,
2013-02-01 11:35:00,31.1,6.0,29.85,NNE,22,3.6,3.8,34,0.00,,---,0.00,VWS V14.00,2013-02-01 16:35:00,
2013-02-01 11:36:00,29.7,6.0,29.85,ENE,68,2.9,5.4,36,0.00,,---,0.00,VWS V14.00,2013-02-01 16:36:00,
2013-02-01 11:37:00,29.7,5.4,29.85,SSE,158,6.5,6.5,35,0.00,,---,0.00,VWS V14.00,2013-02-01 16:37:00,
2013-02-01 11:38:00,29.7,6.0,29.85,NE,45,4.0,10.1,36,0.00,,---,0.00,VWS V14.00,2013-02-01 16:38:00,
2013-02-01 11:39:00,29.7,6.0,29.85,WNW,292,3.4,4.0,36,0.00,,---,0.00,VWS V14.00,2013-02-01 16:39:00,
2013-02-01 11:40:00,31.1,6.0,29.85,WNW,292,3.8,6.5,34,0.00,,---,0.00,VWS V14.00,2013-02-01 16:40:00,
2013-02-01 11:41:00,29.7,6.0,29.85,NNW,338,1.1,4.3,36,0.00,,---,0.00,VWS V14.00,2013-02-01 16:41:00,
2013-02-01 11:42:00,29.8,6.2,29.85,West,270,1.6,4.7,36,0.00,,---,0.00,VWS V14.00,2013-02-01 16:42:00,
2013-02-01 11:43:00,29.8,6.2,29.85,SSW,202,2.2,5.8,36,0.00,,---,0.00,VWS V14.00,2013-02-01 16:43:00,
2013-02-01 11:44:00,29.8,6.2,29.85,SSW,202,3.4,3.4,36,0.00,,---,0.00,VWS V14.00,2013-02-01 16:44:00,
2013-02-01 11:45:00,31.1,6.0,29.85,NE,45,2.9,3.6,34,0.00,,---,0.00,VWS V14.00,2013-02-01 16:45:00,
2013-02-01 11:46:00,29.8,6.2,29.85,ENE,68,1.3,4.3,36,0.00,,---,0.00,VWS V14.00,2013-02-01 16:46:00,
2013-02-01 11:47:00,30.0,6.3,29.85,SSW,202,2.5,3.1,36,0.00,,---,0.00,VWS V14.00,2013-02-01 16:47:00,
2013-02-01 11:48:00,30.0,6.3,29.85,NW,315,3.1,6.5,36,0.00,,---,0.00,VWS V14.00,2013-02-01 16:48:00,
2013-02-01 11:49:00,30.0,6.3,29.85,NNW,338,3.4,4.3,36,0.00,,---,0.00,VWS V14.00,2013-02-01 16:49:00,
2013-02-01 11:50:00,31.3,6.2,29.85,NW,315,6.0,6.0,34,0.00,,---,0.00,VWS V14.00,2013-02-01 16:50:00,
2013-02-01 11:51:00,30.0,6.3,29.85,NNW,338,5.4,5.4,36,0.00,,---,0.00,VWS V14.00,2013-02-01 16:51:00,
2013-02-01 11:52:00,30.2,6.5,29.85,WNW,292,2.0,5.8,36,0.00,,---,0.00,VWS V14.00,2013-02-01 16:52:00,
2013-02-01 11:53:00,30.0,6.3,29.85,NNW,338,2.7,5.6,36,0.00,,---,0.00,VWS V14.00,2013-02-01 16:53:00,
2013-02-01 11:54:00,30.0,5.7,29.85,NW,315,3.1,4.0,35,0.00,,---,0.00,VWS V14.00,2013-02-01 16:54:00,
2013-02-01 11:55:00,31.1,5.4,29.85,WNW,292,7.4,7.6,33,0.00,,---,0.00,VWS V14.00,2013-02-01 16:55:00,
2013-02-01 11:56:00,30.0,5.7,29.85,West,270,3.8,6.0,35,0.00,,---,0.00,VWS V14.00,2013-02-01 16:56:00,
2013-02-01 11:57:00,30.2,5.9,29.85,NNW,338,2.5,4.9,35,0.00,,---,0.00,VWS V14.00,2013-02-01 16:57:00,
2013-02-01 11:58:00,30.2,5.9,29.85,SSW,202,4.0,4.0,35,0.00,,---,0.00,VWS V14.00,2013-02-01 16:58:00,
2013-02-01 11:59:00,30.2,5.9,29.85,ENE,68,2.5,4.0,35,0.00,,---,0.00,VWS V14.00,2013-02-01 16:59:00,
2013-02-01 12:00:00,31.1,5.4,29.85,NNW,338,4.3,4.3,33,0.00,,---,0.00,VWS V14.00,2013-02-01 17:00:00,
2013-02-01 12:01:00,30.2,5.9,29.85,NNE,22,2.7,5.4,35,0.00,,---,0.00,VWS V14.00,2013-02-01 17:01:00,
2013-02-01 12:02:00,30.2,5.9,29.85,SW,225,3.6,3.6,35,0.00,,---,0.00,VWS V14.00,2013-02-01 17:02:00,
2013-02-01 12:03:00,30.2,5.9,29.85,North,0,2.7,6.3,35,0.00,,---,0.00,VWS V14.00,2013-02-01 17:03:00,
2013-02-01 12:04:00,30.2,5.9,29.85,NNE,22,1.6,2.7,35,0.00,,---,0.00,VWS V14.00,2013-02-01 17:04:00,
2013-02-01 12:05:00,31.1,5.4,29.85,NW,315,1.3,3.4,33,0.00,,---,0.00,VWS V14.00,2013-02-01 17:05:00,
2013-02-01 12:06:00,30.2,5.9,29.85,North,0,6.0,6.3,35,0.00,,---,0.00,VWS V14.00,2013-02-01 17:06:00,
2013-02-01 12:07:00,30.2,5.9,29.85,WNW,292,3.6,6.0,35,0.00,,---,0.00,VWS V14.00,2013-02-01 17:07:00,
2013-02-01 12:08:00,30.2,5.9,29.85,West,270,4.9,6.5,35,0.00,,---,0.00,VWS V14.00,2013-02-01 17:08:00,
2013-02-01 12:09:00,30.2,5.9,29.85,WNW,292,2.9,6.0,35,0.00,,---,0.00,VWS V14.00,2013-02-01 17:09:00,
2013-02-01 12:10:00,31.1,5.4,29.85,WNW,292,2.9,4.3,33,0.00,,---,0.00,VWS V14.00,2013-02-01 17:10:00,
2013-02-01 12:11:00,30.2,5.9,29.85,WSW,248,2.5,2.7,35,0.00,,---,0.00,VWS V14.00,2013-02-01 17:11:00,
2013-02-01 12:12:00,30.4,6.0,29.85,NNW,338,4.9,4.9,35,0.00,,---,0.00,VWS V14.00,2013-02-01 17:12:00,
2013-02-01 12:13:00,30.4,6.0,29.85,North,0,4.0,4.9,35,0.00,,---,0.00,VWS V14.00,2013-02-01 17:13:00,
2013-02-01 12:14:00,30.4,6.0,29.85,North,0,2.5,4.0,35,0.00,,---,0.00,VWS V14.00,2013-02-01 17:14:00,
2013-02-01 12:15:00,31.1,5.4,29.85,SW,225,4.7,4.7,33,0.00,,---,0.00,VWS V14.00,2013-02-01 17:15:00,
2013-02-01 12:16:00,30.4,6.0,29.85,NW,315,5.4,5.4,35,0.00,,---,0.00,VWS V14.00,2013-02-01 17:16:00,
2013-02-01 12:17:00,30.6,6.2,29.85,SW,225,3.4,5.4,35,0.00,,---,0.00,VWS V14.00,2013-02-01 17:17:00,
2013-02-01 12:18:00,30.6,6.2,29.85,NNW,338,2.9,5.4,35,0.00,,---,0.00,VWS V14.00,2013-02-01 17:18:00,
2013-02-01 12:19:00,30.6,5.5,29.85,SW,225,2.9,3.8,34,0.00,,---,0.00,VWS V14.00,2013-02-01 17:19:00,
2013-02-01 12:20:00,31.1,5.4,29.85,WNW,292,4.0,4.0,33,0.00,,---,0.00,VWS V14.00,2013-02-01 17:20:00,
2013-02-01 12:21:00,30.7,5.7,29.85,NNE,22,3.4,3.8,34,0.00,,---,0.00,VWS V14.00,2013-02-01 17:21:00,
2013-02-01 12:22:00,30.7,5.7,29.85,NW,315,2.7,4.0,34,0.00,,---,0.00,VWS V14.00,2013-02-01 17:22:00,
2013-02-01 12:23:00,30.7,5.7,29.85,WNW,292,4.3,4.3,34,0.00,,---,0.00,VWS V14.00,2013-02-01 17:23:00,
2013-02-01 12:24:00,30.7,6.3,29.85,SSW,202,2.9,5.4,35,0.00,,---,0.00,VWS V14.00,2013-02-01 17:24:00,
2013-02-01 12:25:00,31.1,5.4,29.85,SW,225,5.4,6.5,33,0.00,,---,0.00,VWS V14.00,2013-02-01 17:25:00,
2013-02-01 12:26:00,30.9,5.9,29.85,WNW,292,2.7,4.0,34,0.00,,---,0.00,VWS V14.00,2013-02-01 17:26:00,
2013-02-01 12:27:00,30.9,5.9,29.85,North,0,3.1,3.6,34,0.00,,---,0.00,VWS V14.00,2013-02-01 17:27:00,
2013-02-01 12:28:00,30.9,5.9,29.85,NE,45,3.4,3.4,34,0.00,,---,0.00,VWS V14.00,2013-02-01 17:28:00,
2013-02-01 12:29:00,30.7,5.7,29.85,ENE,68,2.7,3.4,34,0.00,,---,0.00,VWS V14.00,2013-02-01 17:29:00,
2013-02-01 12:30:00,30.9,5.2,29.85,NNW,338,2.9,3.6,33,0.00,,---,0.00,VWS V14.00,2013-02-01 17:30:00,
2013-02-01 12:31:00,30.9,5.9,29.85,NW,315,2.7,4.0,34,0.00,,---,0.00,VWS V14.00,2013-02-01 17:31:00,
2013-02-01 12:32:00,30.9,5.9,29.85,North,0,3.4,4.0,34,0.00,,---,0.00,VWS V14.00,2013-02-01 17:32:00,
2013-02-01 12:33:00,30.9,5.9,29.85,SW,225,2.5,4.3,34,0.00,,---,0.00,VWS V14.00,2013-02-01 17:33:00,
2013-02-01 12:34:00,30.9,5.9,29.85,WSW,248,2.9,4.9,34,0.00,,---,0.00,VWS V14.00,2013-02-01 17:34:00,
2013-02-01 12:35:00,30.6,4.9,29.85,NNW,338,3.6,4.0,33,0.00,,---,0.00,VWS V14.00,2013-02-01 17:35:00,
2013-02-01 12:36:00,31.1,6.0,29.85,SW,225,3.6,5.8,34,0.00,,---,0.00,VWS V14.00,2013-02-01 17:36:00,
2013-02-01 12:37:00,31.1,6.0,29.85,West,270,5.8,7.6,34,0.00,,---,0.00,VWS V14.00,2013-02-01 17:37:00,
2013-02-01 12:38:00,31.1,6.0,29.85,WNW,292,2.5,5.8,34,0.00,,---,0.00,VWS V14.00,2013-02-01 17:38:00,
2013-02-01 12:39:00,31.1,6.0,29.85,WSW,248,5.4,5.4,34,0.00,,---,0.00,VWS V14.00,2013-02-01 17:39:00,
2013-02-01 12:40:00,30.7,5.1,29.85,NNW,338,2.9,4.0,33,0.00,,---,0.00,VWS V14.00,2013-02-01 17:40:00,
2013-02-01 12:41:00,31.1,6.0,29.85,WNW,292,4.7,5.6,34,0.00,,---,0.00,VWS V14.00,2013-02-01 17:41:00,
2013-02-01 12:42:00,31.1,6.0,29.85,NW,315,3.6,5.4,34,0.00,,---,0.00,VWS V14.00,2013-02-01 17:42:00,
2013-02-01 12:43:00,31.1,6.0,29.85,NW,315,2.7,4.3,34,0.00,,---,0.00,VWS V14.00,2013-02-01 17:43:00,
2013-02-01 12:44:00,31.1,6.0,29.85,NNE,22,3.6,3.8,34,0.00,,---,0.00,VWS V14.00,2013-02-01 17:44:00,
2013-02-01 12:45:00,30.9,5.2,29.85,West,270,11.0,11.0,33,0.00,,---,0.00,VWS V14.00,2013-02-01 17:45:00,
2013-02-01 12:46:00,31.1,6.0,29.85,NNE,22,7.4,7.4,34,0.00,,---,0.00,VWS V14.00,2013-02-01 17:46:00,
2013-02-01 12:47:00,31.1,6.0,29.85,NW,315,7.6,7.6,34,0.00,,---,0.00,VWS V14.00,2013-02-01 17:47:00,
2013-02-01 12:48:00,31.1,6.0,29.85,SSW,202,2.7,7.6,34,0.00,,---,0.00,VWS V14.00,2013-02-01 17:48:00,
2013-02-01 12:49:00,31.1,6.0,29.85,ESE,112,3.8,6.5,34,0.00,,---,0.00,VWS V14.00,2013-02-01 17:49:00,
2013-02-01 12:50:00,30.7,5.1,29.85,North,0,0.9,3.1,33,0.00,,---,0.00,VWS V14.00,2013-02-01 17:50:00,
2013-02-01 12:51:00,31.1,6.0,29.85,West,270,2.5,7.2,34,0.00,,---,0.00,VWS V14.00,2013-02-01 17:51:00,
2013-02-01 12:52:00,31.3,6.2,29.85,NW,315,7.6,7.6,34,0.00,,---,0.00,VWS V14.00,2013-02-01 17:52:00,
2013-02-01 12:53:00,31.1,5.4,29.85,WNW,292,3.6,7.6,33,0.00,,---,0.00,VWS V14.00,2013-02-01 17:53:00,
2013-02-01 12:54:00,31.1,6.0,29.85,NE,45,2.9,3.6,34,0.00,,---,0.00,VWS V14.00,2013-02-01 17:54:00,
2013-02-01 12:55:00,30.4,4.1,29.85,NNW,338,5.8,8.5,32,0.00,,---,0.00,VWS V14.00,2013-02-01 17:55:00,
2013-02-01 12:56:00,31.1,5.4,29.85,West,270,5.8,5.8,33,0.00,,---,0.00,VWS V14.00,2013-02-01 17:56:00,
2013-02-01 12:57:00,31.1,6.0,29.85,ESE,112,5.6,6.0,34,0.00,,---,0.00,VWS V14.00,2013-02-01 17:57:00,
2013-02-01 12:58:00,31.1,5.4,29.85,South,180,1.3,5.6,33,0.00,,---,0.00,VWS V14.00,2013-02-01 17:58:00,
2013-02-01 12:59:00,31.3,6.2,29.85,NNW,338,5.6,6.0,34,0.00,,---,0.00,VWS V14.00,2013-02-01 17:59:00,
2013-02-01 13:00:00,30.2,4.6,29.85,NNW,338,3.1,3.8,33,0.00,,---,0.00,VWS V14.00,2013-02-01 18:00:00,
2013-02-01 13:01:00,31.3,6.2,29.85,NNW,338,7.6,9.4,34,0.00,,---,0.00,VWS V14.00,2013-02-01 18:01:00,
2013-02-01 13:02:00,31.3,5.5,29.85,North,0,2.5,7.6,33,0.00,,---,0.00,VWS V14.00,2013-02-01 18:02:00,
2013-02-01 13:03:00,31.3,5.5,29.85,NNW,338,3.4,5.6,33,0.00,,---,0.00,VWS V14.00,2013-02-01 18:03:00,
2013-02-01 13:04:00,31.1,5.4,29.85,WNW,292,4.9,7.6,33,0.00,,---,0.00,VWS V14.00,2013-02-01 18:04:00,
2013-02-01 13:05:00,30.4,4.1,29.85,NNW,338,3.1,5.8,32,0.00,,---,0.00,VWS V14.00,2013-02-01 18:05:00,
2013-02-01 13:06:00,31.1,5.4,29.85,NW,315,3.8,4.3,33,0.00,,---,0.00,VWS V14.00,2013-02-01 18:06:00,
2013-02-01 13:07:00,31.1,5.4,29.85,West,270,2.0,3.8,33,0.00,,---,0.00,VWS V14.00,2013-02-01 18:07:00,
2013-02-01 13:08:00,31.1,5.4,29.85,SW,225,3.6,8.5,33,0.00,,---,0.00,VWS V14.00,2013-02-01 18:08:00,
2013-02-01 13:09:00,31.1,5.4,29.85,NNW,338,2.9,4.3,33,0.00,,---,0.00,VWS V14.00,2013-02-01 18:09:00,
2013-02-01 13:10:00,30.2,4.6,29.85,NNW,338,7.2,7.2,33,0.00,,---,0.00,VWS V14.00,2013-02-01 18:10:00,
2013-02-01 13:11:00,31.1,5.4,29.85,North,0,4.3,8.5,33,0.00,,---,0.00,VWS V14.00,2013-02-01 18:11:00,
2013-02-01 13:12:00,31.1,5.4,29.85,West,270,3.8,4.3,33,0.00,,---,0.00,VWS V14.00,2013-02-01 18:12:00,
2013-02-01 13:13:00,31.1,5.4,29.85,NNW,338,2.5,4.0,33,0.00,,---,0.00,VWS V14.00,2013-02-01 18:13:00,
2013-02-01 13:14:00,31.1,5.4,29.85,WSW,248,6.0,6.0,33,0.00,,---,0.00,VWS V14.00,2013-02-01 18:14:00,
2013-02-01 13:15:00,30.0,4.4,29.85,WNW,292,3.6,5.6,33,0.00,,---,0.00,VWS V14.00,2013-02-01 18:15:00,
2013-02-01 13:16:00,31.1,5.4,29.85,SE,135,3.8,6.3,33,0.00,,---,0.00,VWS V14.00,2013-02-01 18:16:00,
2013-02-01 13:17:00,31.1,5.4,29.85,WNW,292,3.4,5.8,33,0.00,,---,0.00,VWS V14.00,2013-02-01 18:17:00,
2013-02-01 13:18:00,31.1,5.4,29.85,SE,135,1.1,3.4,33,0.00,,---,0.00,VWS V14.00,2013-02-01 18:18:00,
2013-02-01 13:19:00,31.1,5.4,29.85,WNW,292,2.9,4.3,33,0.00,,---,0.00,VWS V14.00,2013-02-01 18:19:00,
2013-02-01 13:20:00,29.8,4.2,29.88,NW,315,3.6,5.8,33,0.00,,---,0.00,VWS V14.00,2013-02-01 18:20:00,
2013-02-01 13:21:00,31.1,5.4,29.85,SW,225,2.7,4.3,33,0.00,,---,0.00,VWS V14.00,2013-02-01 18:21:00,
2013-02-01 13:22:00,31.1,5.4,29.85,NW,315,6.3,8.5,33,0.00,,---,0.00,VWS V14.00,2013-02-01 18:22:00,
2013-02-01 13:23:00,31.1,5.4,29.85,ENE,68,4.0,6.3,33,0.00,,---,0.00,VWS V14.00,2013-02-01 18:23:00,
2013-02-01 13:24:00,31.1,5.4,29.85,ENE,68,3.8,4.7,33,0.00,,---,0.00,VWS V14.00,2013-02-01 18:24:00,
2013-02-01 13:25:00,30.0,4.4,29.88,SSW,202,6.7,6.7,33,0.00,,---,0.00,VWS V14.00,2013-02-01 18:25:00,
2013-02-01 13:26:00,31.1,5.4,29.85,WNW,292,2.7,5.6,33,0.00,,---,0.00,VWS V14.00,2013-02-01 18:26:00,
2013-02-01 13:27:00,31.1,5.4,29.85,NNE,22,4.0,6.3,33,0.00,,---,0.00,VWS V14.00,2013-02-01 18:27:00,
2013-02-01 13:28:00,31.1,5.4,29.85,North,0,4.0,7.2,33,0.00,,---,0.00,VWS V14.00,2013-02-01 18:28:00,
2013-02-01 13:29:00,31.1,5.4,29.85,NW,315,3.6,4.0,33,0.00,,---,0.00,VWS V14.00,2013-02-01 18:29:00,
2013-02-01 13:30:00,30.2,4.6,29.88,NW,315,9.6,9.6,33,0.00,,---,0.00,VWS V14.00,2013-02-01 18:30:00,
2013-02-01 13:31:00,31.1,5.4,29.85,WNW,292,7.4,12.5,33,0.00,,---,0.00,VWS V14.00,2013-02-01 18:31:00,
2013-02-01 13:32:00,31.1,5.4,29.85,West,270,4.9,7.4,33,0.00,,---,0.00,VWS V14.00,2013-02-01 18:32:00,
2013-02-01 13:33:00,31.1,5.4,29.85,NW,315,6.5,6.5,33,0.00,,---,0.00,VWS V14.00,2013-02-01 18:33:00,
2013-02-01 13:34:00,31.1,5.4,29.85,North,0,2.9,6.5,33,0.00,,---,0.00,VWS V14.00,2013-02-01 18:34:00,
2013-02-01 13:35:00,29.8,4.2,29.88,West,270,3.4,8.1,33,0.00,,---,0.00,VWS V14.00,2013-02-01 18:35:00,
2013-02-01 13:36:00,31.1,5.4,29.85,NE,45,3.8,3.8,33,0.00,,---,0.00,VWS V14.00,2013-02-01 18:36:00,
2013-02-01 13:37:00,31.1,5.4,29.85,WNW,292,2.9,4.7,33,0.00,,---,0.00,VWS V14.00,2013-02-01 18:37:00,
2013-02-01 13:38:00,30.9,5.2,29.85,SSE,158,3.6,3.8,33,0.00,,---,0.00,VWS V14.00,2013-02-01 18:38:00,
2013-02-01 13:39:00,30.9,5.2,29.85,NNW,338,2.5,3.6,33,0.00,,---,0.00,VWS V14.00,2013-02-01 18:39:00,
2013-02-01 13:40:00,29.5,3.9,29.88,WSW,248,2.5,7.4,33,0.00,,---,0.00,VWS V14.00,2013-02-01 18:40:00,
2013-02-01 13:41:00,30.7,5.1,29.85,NE,45,2.9,4.0,33,0.00,,---,0.00,VWS V14.00,2013-02-01 18:41:00,
2013-02-01 13:42:00,30.7,5.1,29.85,South,180,2.9,2.9,33,0.00,,---,0.00,VWS V14.00,2013-02-01 18:42:00,
2013-02-01 13:43:00,30.6,4.9,29.85,West,270,4.0,4.0,33,0.00,,---,0.00,VWS V14.00,2013-02-01 18:43:00,
2013-02-01 13:44:00,30.6,4.9,29.85,NNW,338,3.6,4.0,33,0.00,,---,0.00,VWS V14.00,2013-02-01 18:44:00,
2013-02-01 13:45:00,29.5,3.9,29.88,SSW,202,3.8,7.8,33,0.00,,---,0.00,VWS V14.00,2013-02-01 18:45:00,
2013-02-01 13:46:00,30.6,4.9,29.85,West,270,2.7,4.0,33,0.00,,---,0.00,VWS V14.00,2013-02-01 18:46:00,
2013-02-01 13:47:00,30.6,4.9,29.85,NW,315,2.2,4.0,33,0.00,,---,0.00,VWS V14.00,2013-02-01 18:47:00,
2013-02-01 13:48:00,30.7,5.1,29.85,WNW,292,3.8,3.8,33,0.00,,---,0.00,VWS V14.00,2013-02-01 18:48:00,
2013-02-01 13:49:00,30.7,5.1,29.85,West,270,3.6,4.0,33,0.00,,---,0.00,VWS V14.00,2013-02-01 18:49:00,
2013-02-01 13:50:00,29.7,4.1,29.88,West,270,2.9,5.4,33,0.00,,---,0.00,VWS V14.00,2013-02-01 18:50:00,
2013-02-01 13:51:00,30.7,5.1,29.85,WNW,292,4.7,4.7,33,0.00,,---,0.00,VWS V14.00,2013-02-01 18:51:00,
2013-02-01 13:52:00,30.7,5.1,29.85,ESE,112,3.1,4.7,33,0.00,,---,0.00,VWS V14.00,2013-02-01 18:52:00,
2013-02-01 13:53:00,30.9,5.2,29.85,SSE,158,3.1,7.2,33,0.00,,---,0.00,VWS V14.00,2013-02-01 18:53:00,
2013-02-01 13:54:00,30.9,5.2,29.85,NNE,22,7.2,11.0,33,0.00,,---,0.00,VWS V14.00,2013-02-01 18:54:00,
2013-02-01 13:55:00,29.8,4.2,29.88,SW,225,10.5,10.5,33,0.00,,---,0.00,VWS V14.00,2013-02-01 18:55:00,
2013-02-01 13:56:00,30.7,5.1,29.85,North,0,3.8,6.3,33,0.00,,---,0.00,VWS V14.00,2013-02-01 18:56:00,
2013-02-01 13:57:00,30.7,5.1,29.85,SSW,202,3.8,5.8,33,0.00,,---,0.00,VWS V14.00,2013-02-01 18:57:00,
2013-02-01 13:58:00,30.7,5.1,29.85,NNW,338,3.1,4.9,33,0.00,,---,0.00,VWS V14.00,2013-02-01 18:58:00,
2013-02-01 13:59:00,30.7,5.1,29.85,NW,315,7.4,7.4,33,0.00,,---,0.00,VWS V14.00,2013-02-01 18:59:00,
2013-02-01 14:00:00,29.5,3.9,29.88,WSW,248,7.8,7.8,33,0.00,,---,0.00,VWS V14.00,2013-02-01 19:00:00,
2013-02-01 14:01:00,30.6,4.2,29.85,NW,315,4.3,4.3,32,0.00,,---,0.00,VWS V14.00,2013-02-01 19:01:00,
2013-02-01 14:02:00,30.6,4.2,29.85,WSW,248,6.0,6.5,32,0.00,,---,0.00,VWS V14.00,2013-02-01 19:02:00,
2013-02-01 14:03:00,30.4,4.1,29.85,North,0,8.5,8.5,32,0.00,,---,0.00,VWS V14.00,2013-02-01 19:03:00,
2013-02-01 14:04:00,30.4,4.1,29.85,NNE,22,4.9,8.5,32,0.00,,---,0.00,VWS V14.00,2013-02-01 19:04:00,
2013-02-01 14:05:00,29.5,3.9,29.91,South,180,7.2,7.2,33,0.00,,---,0.00,VWS V14.00,2013-02-01 19:05:00,
2013-02-01 14:06:00,30.2,4.6,29.85,NE,45,3.1,7.6,33,0.00,,---,0.00,VWS V14.00,2013-02-01 19:06:00,
2013-02-01 14:08:00,30.2,4.6,29.85,WNW,292,3.8,5.6,33,0.00,,---,0.00,VWS V14.00,2013-02-01 19:08:00,
2013-02-01 14:09:00,30.2,4.6,29.85,WSW,248,6.0,6.0,33,0.00,,---,0.00,VWS V14.00,2013-02-01 19:09:00,
2013-02-01 14:10:00,29.5,3.9,29.91,WNW,292,2.5,6.3,33,0.00,,---,0.00,VWS V14.00,2013-02-01 19:10:00,
2013-02-01 14:11:00,30.4,4.1,29.85,SE,135,9.8,9.8,32,0.00,,---,0.00,VWS V14.00,2013-02-01 19:11:00,
2013-02-01 14:12:00,30.4,4.1,29.85,East,90,3.4,9.8,32,0.00,,---,0.00,VWS V14.00,2013-02-01 19:12:00,
2013-02-01 14:13:00,30.4,4.1,29.85,NNW,338,5.8,5.8,32,0.00,,---,0.00,VWS V14.00,2013-02-01 19:13:00,
2013-02-01 14:14:00,30.4,4.1,29.85,NNW,338,3.1,5.8,32,0.00,,---,0.00,VWS V14.00,2013-02-01 19:14:00,
2013-02-01 14:15:00,29.5,3.9,29.91,WSW,248,5.6,5.6,33,0.00,,---,0.00,VWS V14.00,2013-02-01 19:15:00,
2013-02-01 14:16:00,30.2,4.6,29.85,NW,315,5.6,9.6,33,0.00,,---,0.00,VWS V14.00,2013-02-01 19:16:00,
2013-02-01 14:17:00,30.2,4.6,29.85,SSW,202,3.8,6.3,33,0.00,,---,0.00,VWS V14.00,2013-02-01 19:17:00,
2013-02-01 14:18:00,30.2,4.6,29.85,SSE,158,7.2,7.2,33,0.00,,---,0.00,VWS V14.00,2013-02-01 19:18:00,
2013-02-01 14:19:00,30.2,4.6,29.85,SSW,202,3.8,7.4,33,0.00,,---,0.00,VWS V14.00,2013-02-01 19:19:00,
2013-02-01 14:20:00,29.3,3.8,29.91,NW,315,6.5,6.5,33,0.00,,---,0.00,VWS V14.00,2013-02-01 19:20:00,
2013-02-01 14:21:00,30.0,4.4,29.85,West,270,3.4,7.8,33,0.00,,---,0.00,VWS V14.00,2013-02-01 19:21:00,
2013-02-01 14:22:00,30.0,4.4,29.85,NW,315,6.5,6.5,33,0.00,,---,0.00,VWS V14.00,2013-02-01 19:22:00,
2013-02-01 14:23:00,30.0,4.4,29.85,SSW,202,4.9,6.5,33,0.00,,---,0.00,VWS V14.00,2013-02-01 19:23:00,
2013-02-01 14:24:00,30.0,4.4,29.85,East,90,8.7,8.7,33,0.00,,---,0.00,VWS V14.00,2013-02-01 19:24:00,
2013-02-01 14:25:00,29.1,3.6,29.91,WSW,248,2.9,3.6,33,0.00,,---,0.00,VWS V14.00,2013-02-01 19:25:00,
2013-02-01 14:26:00,29.8,4.2,29.85,WSW,248,3.4,7.6,33,0.00,,---,0.00,VWS V14.00,2013-02-01 19:26:00,
2013-02-01 14:27:00,29.8,4.2,29.88,SSW,202,2.9,6.3,33,0.00,,---,0.00,VWS V14.00,2013-02-01 19:27:00,
2013-02-01 14:28:00,29.8,4.2,29.88,NW,315,2.5,3.1,33,0.00,,---,0.00,VWS V14.00,2013-02-01 19:28:00,
2013-02-01 14:29:00,29.8,4.2,29.88,West,270,4.3,5.8,33,0.00,,---,0.00,VWS V14.00,2013-02-01 19:29:00,
2013-02-01 14:30:00,29.3,3.8,29.91,NNW,338,2.5,6.5,33,0.00,,---,0.00,VWS V14.00,2013-02-01 19:30:00,
2013-02-01 14:31:00,29.8,4.2,29.88,WNW,292,3.6,6.3,33,0.00,,---,0.00,VWS V14.00,2013-02-01 19:31:00,
2013-02-01 14:32:00,29.8,4.2,29.88,West,270,2.9,6.5,33,0.00,,---,0.00,VWS V14.00,2013-02-01 19:32:00,
2013-02-01 14:34:00,30.0,4.4,29.88,WNW,292,5.6,6.7,33,0.00,,---,0.00,VWS V14.00,2013-02-01 19:34:00,
2013-02-01 14:35:00,29.5,3.9,29.88,NW,315,4.0,8.7,33,0.00,,---,0.00,VWS V14.00,2013-02-01 19:35:00,
2013-02-01 14:36:00,30.2,4.6,29.88,West,270,3.1,5.4,33,0.00,,---,0.00,VWS V14.00,2013-02-01 19:36:00,
2013-02-01 14:37:00,30.2,4.6,29.88,SW,225,6.0,6.0,33,0.00,,---,0.00,VWS V14.00,2013-02-01 19:37:00,
2013-02-01 14:38:00,30.2,4.6,29.88,WNW,292,3.1,6.0,33,0.00,,---,0.00,VWS V14.00,2013-02-01 19:38:00,
2013-02-01 14:39:00,30.2,4.6,29.88,East,90,5.4,9.6,33,0.00,,---,0.00,VWS V14.00,2013-02-01 19:39:00,
2013-02-01 14:40:00,29.7,4.1,29.88,NNW,338,2.2,8.1,33,0.00,,---,0.00,VWS V14.00,2013-02-01 19:40:00,
2013-02-01 14:41:00,30.0,4.4,29.88,SW,225,3.8,4.7,33,0.00,,---,0.00,VWS V14.00,2013-02-01 19:41:00,
2013-02-01 14:42:00,30.0,4.4,29.88,NNW,338,1.3,5.8,33,0.00,,---,0.00,VWS V14.00,2013-02-01 19:42:00,
2013-02-01 14:43:00,29.8,4.2,29.88,NW,315,8.1,9.6,33,0.00,,---,0.00,VWS V14.00,2013-02-01 19:43:00,
2013-02-01 14:44:00,29.7,4.1,29.88,South,180,4.0,8.1,33,0.00,,---,0.00,VWS V14.00,2013-02-01 19:44:00,
2013-02-01 14:45:00,29.8,4.2,29.88,WSW,248,10.3,10.3,33,0.00,,---,0.00,VWS V14.00,2013-02-01 19:45:00,
2013-02-01 14:46:00,29.7,4.1,29.88,NNW,338,3.1,8.7,33,0.00,,---,0.00,VWS V14.00,2013-02-01 19:46:00,
2013-02-01 14:47:00,29.5,3.9,29.88,WSW,248,6.3,6.5,33,0.00,,---,0.00,VWS V14.00,2013-02-01 19:47:00,
2013-02-01 14:48:00,29.5,3.9,29.88,NW,315,7.4,7.4,33,0.00,,---,0.00,VWS V14.00,2013-02-01 19:48:00,
2013-02-01 14:49:00,29.5,3.9,29.88,South,180,2.5,7.4,33,0.00,,---,0.00,VWS V14.00,2013-02-01 19:49:00,
2013-02-01 14:50:00,30.0,4.4,29.94,NW,315,3.4,8.7,33,0.00,,---,0.00,VWS V14.00,2013-02-01 19:50:00,
2013-02-01 14:51:00,29.5,3.9,29.88,WNW,292,10.3,10.3,33,0.00,,---,0.00,VWS V14.00,2013-02-01 19:51:00,
2013-02-01 14:52:00,29.5,3.9,29.88,WSW,248,4.0,10.3,33,0.00,,---,0.00,VWS V14.00,2013-02-01 19:52:00,
2013-02-01 14:53:00,29.5,3.9,29.88,South,180,7.2,7.2,33,0.00,,---,0.00,VWS V14.00,2013-02-01 19:53:00,
2013-02-01 14:54:00,29.5,3.9,29.88,WNW,292,3.4,7.8,33,0.00,,---,0.00,VWS V14.00,2013-02-01 19:54:00,
2013-02-01 14:55:00,30.0,4.4,29.94,NW,315,4.9,5.8,33,0.00,,---,0.00,VWS V14.00,2013-02-01 19:55:00,
2013-02-01 14:56:00,29.5,3.9,29.88,WNW,292,5.6,5.8,33,0.00,,---,0.00,VWS V14.00,2013-02-01 19:56:00,
2013-02-01 14:57:00,29.7,4.1,29.88,SW,225,7.4,7.4,33,0.00,,---,0.00,VWS V14.00,2013-02-01 19:57:00,
2013-02-01 14:58:00,29.7,4.1,29.88,NW,315,2.9,7.4,33,0.00,,---,0.00,VWS V14.00,2013-02-01 19:58:00,
2013-02-01 14:59:00,29.7,4.1,29.88,NW,315,5.4,5.4,33,0.00,,---,0.00,VWS V14.00,2013-02-01 19:59:00,
2013-02-01 15:00:00,29.8,4.2,29.94,WSW,248,2.5,3.4,33,0.00,,---,0.00,VWS V14.00,2013-02-01 20:00:00,
2013-02-01 15:01:00,29.7,4.1,29.88,SSW,202,2.2,6.3,33,0.00,,---,0.00,VWS V14.00,2013-02-01 20:01:00,
2013-02-01 15:02:00,29.8,4.2,29.88,South,180,5.6,5.6,33,0.00,,---,0.00,VWS V14.00,2013-02-01 20:02:00,
2013-02-01 15:03:00,29.8,4.2,29.88,NW,315,3.6,9.2,33,0.00,,---,0.00,VWS V14.00,2013-02-01 20:03:00,
2013-02-01 15:04:00,29.8,4.2,29.88,West,270,3.8,10.5,33,0.00,,---,0.00,VWS V14.00,2013-02-01 20:04:00,
2013-02-01 15:05:00,29.7,4.1,29.94,North,0,6.3,6.3,33,0.00,,---,0.00,VWS V14.00,2013-02-01 20:05:00,
2013-02-01 15:06:00,29.7,4.1,29.88,NW,315,3.8,8.1,33,0.00,,---,0.00,VWS V14.00,2013-02-01 20:06:00,
2013-02-01 15:07:00,29.7,4.1,29.88,WSW,248,2.9,6.5,33,0.00,,---,0.00,VWS V14.00,2013-02-01 20:07:00,
2013-02-01 15:08:00,29.5,3.9,29.88,South,180,6.5,7.8,33,0.00,,---,0.00,VWS V14.00,2013-02-01 20:08:00,
2013-02-01 15:09:00,29.5,3.9,29.88,NNE,22,4.0,7.8,33,0.00,,---,0.00,VWS V14.00,2013-02-01 20:09:00,
2013-02-01 15:10:00,29.5,3.9,29.94,SW,225,6.0,6.0,33,0.00,,---,0.00,VWS V14.00,2013-02-01 20:10:00,
2013-02-01 15:11:00,29.5,3.9,29.88,NNE,22,3.8,6.3,33,0.00,,---,0.00,VWS V14.00,2013-02-01 20:11:00,
2013-02-01 15:12:00,29.5,3.9,29.91,NNE,22,4.3,7.6,33,0.00,,---,0.00,VWS V14.00,2013-02-01 20:12:00,
2013-02-01 15:13:00,29.5,3.9,29.91,SW,225,3.1,4.3,33,0.00,,---,0.00,VWS V14.00,2013-02-01 20:13:00,
2013-02-01 15:14:00,29.5,3.9,29.91,SW,225,1.6,7.2,33,0.00,,---,0.00,VWS V14.00,2013-02-01 20:14:00,
2013-02-01 15:15:00,29.5,3.9,29.94,North,0,3.6,4.3,33,0.00,,---,0.00,VWS V14.00,2013-02-01 20:15:00,
2013-02-01 15:16:00,29.5,3.9,29.91,NNW,338,4.0,6.5,33,0.00,,---,0.00,VWS V14.00,2013-02-01 20:16:00,
2013-02-01 15:17:00,29.5,3.9,29.91,NNW,338,2.7,4.9,33,0.00,,---,0.00,VWS V14.00,2013-02-01 20:17:00,
2013-02-01 15:18:00,29.5,3.9,29.91,ESE,112,6.3,6.3,33,0.00,,---,0.00,VWS V14.00,2013-02-01 20:18:00,
2013-02-01 15:19:00,29.5,3.9,29.91,NNW,338,4.3,6.3,33,0.00,,---,0.00,VWS V14.00,2013-02-01 20:19:00,
2013-02-01 15:20:00,29.1,3.6,29.94,NNW,338,3.6,4.0,33,0.00,,---,0.00,VWS V14.00,2013-02-01 20:20:00,
2013-02-01 15:21:00,29.5,3.9,29.91,NE,45,5.6,5.6,33,0.00,,---,0.00,VWS V14.00,2013-02-01 20:21:00,
2013-02-01 15:22:00,29.5,3.9,29.91,ENE,68,2.5,5.6,33,0.00,,---,0.00,VWS V14.00,2013-02-01 20:22:00,
2013-02-01 15:23:00,29.3,3.8,29.91,West,270,3.6,3.8,33,0.00,,---,0.00,VWS V14.00,2013-02-01 20:23:00,
2013-02-01 15:24:00,29.5,3.9,29.91,WSW,248,3.6,5.6,33,0.00,,---,0.00,VWS V14.00,2013-02-01 20:24:00,
2013-02-01 15:25:00,28.9,3.5,29.94,SSW,202,3.8,5.4,33,0.00,,---,0.00,VWS V14.00,2013-02-01 20:25:00,
2013-02-01 15:26:00,29.3,3.8,29.91,West,270,4.3,5.4,33,0.00,,---,0.00,VWS V14.00,2013-02-01 20:26:00,
2013-02-01 15:27:00,29.3,3.8,29.91,WNW,292,5.6,6.3,33,0.00,,---,0.00,VWS V14.00,2013-02-01 20:27:00,
2013-02-01 15:28:00,29.3,3.8,29.91,WSW,248,4.7,7.4,33,0.00,,---,0.00,VWS V14.00,2013-02-01 20:28:00,
2013-02-01 15:29:00,29.1,3.6,29.91,West,270,2.5,6.5,33,0.00,,---,0.00,VWS V14.00,2013-02-01 20:29:00,
2013-02-01 15:30:00,28.8,3.3,29.94,SW,225,5.6,6.5,33,0.00,,---,0.00,VWS V14.00,2013-02-01 20:30:00,
2013-02-01 15:31:00,29.1,3.6,29.91,North,0,2.5,3.6,33,0.00,,---,0.00,VWS V14.00,2013-02-01 20:31:00,
2013-02-01 15:32:00,29.1,3.6,29.91,WNW,292,1.1,4.3,33,0.00,,---,0.00,VWS V14.00,2013-02-01 20:32:00,
2013-02-01 15:33:00,29.1,3.6,29.91,SSW,202,2.5,6.5,33,0.00,,---,0.00,VWS V14.00,2013-02-01 20:33:00,
2013-02-01 15:34:00,29.1,3.6,29.91,SSE,158,2.5,3.6,33,0.00,,---,0.00,VWS V14.00,2013-02-01 20:34:00,
2013-02-01 15:35:00,28.9,3.5,29.97,South,180,2.7,4.7,33,0.00,,---,0.00,VWS V14.00,2013-02-01 20:35:00,
2013-02-01 15:36:00,29.1,3.6,29.91,SW,225,3.4,7.4,33,0.00,,---,0.00,VWS V14.00,2013-02-01 20:36:00,
2013-02-01 15:37:00,29.3,3.8,29.91,West,270,2.7,7.6,33,0.00,,---,0.00,VWS V14.00,2013-02-01 20:37:00,
2013-02-01 15:38:00,29.3,3.8,29.91,NNW,338,6.5,6.5,33,0.00,,---,0.00,VWS V14.00,2013-02-01 20:38:00,
2013-02-01 15:39:00,29.5,3.9,29.91,North,0,4.3,6.5,33,0.00,,---,0.00,VWS V14.00,2013-02-01 20:39:00,
2013-02-01 15:40:00,28.8,3.3,29.97,NNW,338,4.9,5.6,33,0.00,,---,0.00,VWS V14.00,2013-02-01 20:40:00,
2013-02-01 15:41:00,29.5,3.9,29.91,NE,45,5.4,8.1,33,0.00,,---,0.00,VWS V14.00,2013-02-01 20:41:00,
2013-02-01 15:42:00,29.5,3.9,29.88,WNW,292,5.8,8.5,33,0.00,,---,0.00,VWS V14.00,2013-02-01 20:42:00,
2013-02-01 15:43:00,29.5,3.9,29.88,SSW,202,8.7,8.7,33,0.00,,---,0.00,VWS V14.00,2013-02-01 20:43:00,
2013-02-01 15:44:00,29.5,3.9,29.88,North,0,3.4,8.7,33,0.00,,---,0.00,VWS V14.00,2013-02-01 20:44:00,
2013-02-01 15:45:00,28.6,3.8,29.97,WSW,248,6.0,6.5,34,0.00,,---,0.00,VWS V14.00,2013-02-01 20:45:00,
2013-02-01 15:46:00,29.7,4.1,29.88,NW,315,5.4,7.6,33,0.00,,---,0.00,VWS V14.00,2013-02-01 20:46:00,
2013-02-01 15:47:00,29.7,4.1,29.88,WNW,292,3.8,6.3,33,0.00,,---,0.00,VWS V14.00,2013-02-01 20:47:00,
2013-02-01 15:48:00,29.7,4.1,29.88,South,180,3.6,4.0,33,0.00,,---,0.00,VWS V14.00,2013-02-01 20:48:00,
2013-02-01 15:49:00,29.7,4.1,29.88,NNW,338,1.6,8.1,33,0.00,,---,0.00,VWS V14.00,2013-02-01 20:49:00,
2013-02-01 15:50:00,28.4,3.6,29.97,NNW,338,4.3,4.7,34,0.00,,---,0.00,VWS V14.00,2013-02-01 20:50:00,
2013-02-01 15:51:00,29.8,4.2,29.88,WNW,292,8.5,8.5,33,0.00,,---,0.00,VWS V14.00,2013-02-01 20:51:00,
2013-02-01 15:52:00,29.8,4.2,29.88,North,0,9.6,9.6,33,0.00,,---,0.00,VWS V14.00,2013-02-01 20:52:00,
2013-02-01 15:53:00,29.8,4.2,29.88,WSW,248,3.6,9.6,33,0.00,,---,0.00,VWS V14.00,2013-02-01 20:53:00,
2013-02-01 15:54:00,30.0,4.4,29.88,NNW,338,9.4,13.0,33,0.00,,---,0.00,VWS V14.00,2013-02-01 20:54:00,
2013-02-01 15:55:00,28.4,3.6,29.97,South,180,3.4,3.4,34,0.00,,---,0.00,VWS V14.00,2013-02-01 20:55:00,
2013-02-01 15:56:00,30.0,4.4,29.88,WNW,292,8.1,8.1,33,0.00,,---,0.00,VWS V14.00,2013-02-01 20:56:00,
2013-02-01 15:57:00,30.0,4.4,29.94,WSW,248,6.3,8.7,33,0.00,,---,0.00,VWS V14.00,2013-02-01 20:57:00,
2013-02-01 15:58:00,30.0,4.4,29.94,NW,315,8.7,8.7,33,0.00,,---,0.00,VWS V14.00,2013-02-01 20:58:00,
2013-02-01 15:59:00,30.0,4.4,29.94,North,0,6.7,8.7,33,0.00,,---,0.00,VWS V14.00,2013-02-01 20:59:00,
2013-02-01 16:00:00,28.2,3.5,29.97,NNW,338,3.4,4.7,34,0.00,,---,0.00,VWS V14.00,2013-02-01 21:00:00,
2013-02-01 16:01:00,29.8,4.2,29.94,SW,225,4.0,5.8,33,0.00,,---,0.00,VWS V14.00,2013-02-01 21:01:00,
2013-02-01 16:02:00,29.8,4.2,29.94,WNW,292,4.0,11.0,33,0.00,,---,0.00,VWS V14.00,2013-02-01 21:02:00,
2013-02-01 16:03:00,30.0,4.4,29.94,NW,315,3.6,5.4,33,0.00,,---,0.00,VWS V14.00,2013-02-01 21:03:00,
2013-02-01 16:04:00,30.0,4.4,29.94,WSW,248,3.8,5.8,33,0.00,,---,0.00,VWS V14.00,2013-02-01 21:04:00,
2013-02-01 16:05:00,28.0,3.3,29.97,East,90,3.8,5.8,34,0.00,,---,0.00,VWS V14.00,2013-02-01 21:05:00,
2013-02-01 16:06:00,29.8,4.2,29.94,South,180,4.0,8.1,33,0.00,,---,0.00,VWS V14.00,2013-02-01 21:06:00,
2013-02-01 16:07:00,29.8,4.2,29.94,South,180,4.7,4.7,33,0.00,,---,0.00,VWS V14.00,2013-02-01 21:07:00,
2013-02-01 16:08:00,29.8,4.2,29.94,NW,315,3.4,5.8,33,0.00,,---,0.00,VWS V14.00,2013-02-01 21:08:00,
2013-02-01 16:09:00,29.7,4.1,29.94,South,180,4.3,4.3,33,0.00,,---,0.00,VWS V14.00,2013-02-01 21:09:00,
2013-02-01 16:10:00,27.9,3.2,29.97,WSW,248,4.3,4.3,34,0.00,,---,0.00,VWS V14.00,2013-02-01 21:10:00,
2013-02-01 16:11:00,29.7,4.1,29.94,WNW,292,4.3,4.3,33,0.00,,---,0.00,VWS V14.00,2013-02-01 21:11:00,
2013-02-01 16:12:00,29.7,4.1,29.94,NNW,338,2.0,4.5,33,0.00,,---,0.00,VWS V14.00,2013-02-01 21:12:00,
2013-02-01 16:13:00,29.7,4.1,29.94,NNW,338,1.1,2.5,33,0.00,,---,0.00,VWS V14.00,2013-02-01 21:13:00,
2013-02-01 16:14:00,29.7,4.1,29.94,NE,45,4.3,6.3,33,0.00,,---,0.00,VWS V14.00,2013-02-01 21:14:00,
2013-02-01 16:15:00,27.9,3.2,29.97,WSW,248,2.7,6.3,34,0.00,,---,0.00,VWS V14.00,2013-02-01 21:15:00,
2013-02-01 16:16:00,29.7,4.1,29.94,West,270,3.8,5.8,33,0.00,,---,0.00,VWS V14.00,2013-02-01 21:16:00,
2013-02-01 16:17:00,29.7,4.1,29.94,SE,135,2.5,4.0,33,0.00,,---,0.00,VWS V14.00,2013-02-01 21:17:00,
2013-02-01 16:18:00,29.5,3.9,29.94,NE,45,2.7,2.9,33,0.00,,---,0.00,VWS V14.00,2013-02-01 21:18:00,
2013-02-01 16:19:00,29.5,3.9,29.94,SW,225,3.4,6.0,33,0.00,,---,0.00,VWS V14.00,2013-02-01 21:19:00,
2013-02-01 16:20:00,27.9,3.2,29.94,SSE,158,2.5,3.4,34,0.00,,---,0.00,VWS V14.00,2013-02-01 21:20:00,
2013-02-01 16:21:00,29.5,3.9,29.94,West,270,4.3,4.7,33,0.00,,---,0.00,VWS V14.00,2013-02-01 21:21:00,
2013-02-01 16:22:00,29.5,3.9,29.94,SSW,202,8.1,8.1,33,0.00,,---,0.00,VWS V14.00,2013-02-01 21:22:00,
2013-02-01 16:23:00,29.5,3.9,29.94,North,0,4.3,12.8,33,0.00,,---,0.00,VWS V14.00,2013-02-01 21:23:00,
2013-02-01 16:24:00,29.5,3.9,29.94,NE,45,3.1,4.3,33,0.00,,---,0.00,VWS V14.00,2013-02-01 21:24:00,
2013-02-01 16:25:00,27.9,3.2,29.94,WNW,292,2.0,6.3,34,0.00,,---,0.00,VWS V14.00,2013-02-01 21:25:00,
2013-02-01 16:26:00,29.3,3.8,29.94,WSW,248,5.4,9.8,33,0.00,,---,0.00,VWS V14.00,2013-02-01 21:26:00,
2013-02-01 16:27:00,29.3,3.8,29.94,West,270,2.9,6.5,33,0.00,,---,0.00,VWS V14.00,2013-02-01 21:27:00,
2013-02-01 16:28:00,29.3,3.8,29.94,North,0,4.0,5.8,33,0.00,,---,0.00,VWS V14.00,2013-02-01 21:28:00,
2013-02-01 16:29:00,29.1,3.6,29.94,NW,315,4.3,4.3,33,0.00,,---,0.00,VWS V14.00,2013-02-01 21:29:00,
2013-02-01 16:30:00,27.9,3.2,29.94,WSW,248,2.0,2.9,34,0.00,,---,0.00,VWS V14.00,2013-02-01 21:30:00,
2013-02-01 16:31:00,29.1,3.6,29.94,SSW,202,7.4,9.8,33,0.00,,---,0.00,VWS V14.00,2013-02-01 21:31:00,
2013-02-01 16:32:00,28.9,3.5,29.94,WSW,248,7.6,7.6,33,0.00,,---,0.00,VWS V14.00,2013-02-01 21:32:00,
2013-02-01 16:33:00,28.9,3.5,29.94,NE,45,5.4,7.6,33,0.00,,---,0.00,VWS V14.00,2013-02-01 21:33:00,
2013-02-01 16:34:00,28.9,3.5,29.94,NW,315,2.7,5.4,33,0.00,,---,0.00,VWS V14.00,2013-02-01 21:34:00,
2013-02-01 16:35:00,27.9,3.2,29.97,WNW,292,2.5,3.4,34,0.00,,---,0.00,VWS V14.00,2013-02-01 21:35:00,
2013-02-01 16:36:00,28.8,3.3,29.94,West,270,6.3,6.3,33,0.00,,---,0.00,VWS V14.00,2013-02-01 21:36:00,
2013-02-01 16:37:00,28.8,3.3,29.94,SSE,158,3.4,6.3,33,0.00,,---,0.00,VWS V14.00,2013-02-01 21:37:00,
2013-02-01 16:38:00,28.8,3.3,29.94,SSE,158,6.5,6.5,33,0.00,,---,0.00,VWS V14.00,2013-02-01 21:38:00,
2013-02-01 16:39:00,28.8,3.3,29.94,SW,225,5.6,6.5,33,0.00,,---,0.00,VWS V14.00,2013-02-01 21:39:00,
2013-02-01 16:40:00,27.7,3.0,29.97,West,270,3.8,4.0,34,0.00,,---,0.00,VWS V14.00,2013-02-01 21:40:00,
2013-02-01 16:41:00,28.9,3.5,29.94,SSE,158,8.5,8.7,33,0.00,,---,0.00,VWS V14.00,2013-02-01 21:41:00,
2013-02-01 16:42:00,28.9,3.5,29.97,WSW,248,3.1,8.5,33,0.00,,---,0.00,VWS V14.00,2013-02-01 21:42:00,
2013-02-01 16:43:00,28.9,3.5,29.97,NW,315,2.5,4.9,33,0.00,,---,0.00,VWS V14.00,2013-02-01 21:43:00,
2013-02-01 16:44:00,28.9,3.5,29.97,NE,45,5.6,5.6,33,0.00,,---,0.00,VWS V14.00,2013-02-01 21:44:00,
2013-02-01 16:45:00,27.7,3.0,29.97,WNW,292,4.0,4.0,34,0.00,,---,0.00,VWS V14.00,2013-02-01 21:45:00,
2013-02-01 16:46:00,28.8,3.3,29.97,West,270,1.6,4.3,33,0.00,,---,0.00,VWS V14.00,2013-02-01 21:46:00,
2013-02-01 16:47:00,28.8,3.3,29.97,ENE,68,4.7,4.7,33,0.00,,---,0.00,VWS V14.00,2013-02-01 21:47:00,
2013-02-01 16:48:00,28.8,3.3,29.97,WNW,292,5.6,6.5,33,0.00,,---,0.00,VWS V14.00,2013-02-01 21:48:00,
2013-02-01 16:49:00,28.8,3.3,29.97,NNW,338,4.7,5.6,33,0.00,,---,0.00,VWS V14.00,2013-02-01 21:49:00,
2013-02-01 16:50:00,27.7,3.0,30.00,North,0,5.4,6.0,34,0.00,,---,0.00,VWS V14.00,2013-02-01 21:50:00,
2013-02-01 16:51:00,28.6,3.1,29.97,North,0,5.8,7.4,33,0.00,,---,0.00,VWS V14.00,2013-02-01 21:51:00,
2013-02-01 16:52:00,28.6,3.8,29.97,North,0,2.7,5.8,34,0.00,,---,0.00,VWS V14.00,2013-02-01 21:52:00,
2013-02-01 16:53:00,28.6,3.8,29.97,SSW,202,6.5,6.5,34,0.00,,---,0.00,VWS V14.00,2013-02-01 21:53:00,
2013-02-01 16:54:00,28.4,3.6,29.97,SW,225,5.8,6.5,34,0.00,,---,0.00,VWS V14.00,2013-02-01 21:54:00,
2013-02-01 16:55:00,27.5,2.8,30.00,ENE,68,3.8,4.0,34,0.00,,---,0.00,VWS V14.00,2013-02-01 21:55:00,
2013-02-01 16:56:00,28.4,3.6,29.97,NW,315,1.1,5.8,34,0.00,,---,0.00,VWS V14.00,2013-02-01 21:56:00,
2013-02-01 16:57:00,28.4,3.6,29.97,WSW,248,3.8,6.0,34,0.00,,---,0.00,VWS V14.00,2013-02-01 21:57:00,
2013-02-01 16:58:00,28.4,3.6,29.97,WNW,292,4.7,6.0,34,0.00,,---,0.00,VWS V14.00,2013-02-01 21:58:00,
2013-02-01 16:59:00,28.4,3.6,29.97,NNW,338,4.3,4.7,34,0.00,,---,0.00,VWS V14.00,2013-02-01 21:59:00,
2013-02-01 17:00:00,27.3,2.7,30.00,NNW,338,3.1,3.4,34,0.00,,---,0.00,VWS V14.00,2013-02-01 22:00:00,
2013-02-01 17:01:00,28.4,3.6,29.97,SSE,158,4.3,5.6,34,0.00,,---,0.00,VWS V14.00,2013-02-01 22:01:00,
2013-02-01 17:02:00,28.4,3.6,29.97,SSW,202,6.5,6.5,34,0.00,,---,0.00,VWS V14.00,2013-02-01 22:02:00,
2013-02-01 17:03:00,28.4,3.6,29.97,NW,315,2.9,6.5,34,0.00,,---,0.00,VWS V14.00,2013-02-01 22:03:00,
2013-02-01 17:04:00,28.4,3.6,29.97,WNW,292,4.3,4.3,34,0.00,,---,0.00,VWS V14.00,2013-02-01 22:04:00,
2013-02-01 17:05:00,27.3,2.7,30.03,SW,225,2.0,4.3,34,0.00,,---,0.00,VWS V14.00,2013-02-01 22:05:00,
2013-02-01 17:06:00,28.4,3.6,29.97,NW,315,6.0,6.3,34,0.00,,---,0.00,VWS V14.00,2013-02-01 22:06:00,
2013-02-01 17:07:00,28.2,3.5,29.97,NNW,338,3.6,6.0,34,0.00,,---,0.00,VWS V14.00,2013-02-01 22:07:00,
2013-02-01 17:08:00,28.2,3.5,29.97,NW,315,2.0,3.8,34,0.00,,---,0.00,VWS V14.00,2013-02-01 22:08:00,
2013-02-01 17:09:00,28.2,3.5,29.97,SSE,158,3.8,4.9,34,0.00,,---,0.00,VWS V14.00,2013-02-01 22:09:00,
2013-02-01 17:10:00,27.1,2.5,30.03,WSW,248,3.6,6.0,34,0.00,,---,0.00,VWS V14.00,2013-02-01 22:10:00,
2013-02-01 17:11:00,28.2,3.5,29.97,WSW,248,3.6,5.6,34,0.00,,---,0.00,VWS V14.00,2013-02-01 22:11:00,
2013-02-01 17:12:00,28.2,3.5,29.97,West,270,2.9,3.6,34,0.00,,---,0.00,VWS V14.00,2013-02-01 22:12:00,
2013-02-01 17:13:00,28.0,3.3,29.97,WNW,292,3.4,3.6,34,0.00,,---,0.00,VWS V14.00,2013-02-01 22:13:00,
2013-02-01 17:14:00,28.0,3.3,29.97,SW,225,3.1,5.8,34,0.00,,---,0.00,VWS V14.00,2013-02-01 22:14:00,
2013-02-01 17:15:00,27.1,2.5,30.03,NNW,338,1.3,2.9,34,0.00,,---,0.00,VWS V14.00,2013-02-01 22:15:00,
2013-02-01 17:16:00,27.9,3.2,29.97,West,270,2.9,3.4,34,0.00,,---,0.00,VWS V14.00,2013-02-01 22:16:00,
2013-02-01 17:17:00,27.9,3.2,29.97,South,180,3.4,4.7,34,0.00,,---,0.00,VWS V14.00,2013-02-01 22:17:00,
2013-02-01 17:18:00,27.9,3.2,29.97,West,270,3.4,3.4,34,0.00,,---,0.00,VWS V14.00,2013-02-01 22:18:00,
2013-02-01 17:19:00,27.9,3.2,29.97,SSW,202,3.4,4.3,34,0.00,,---,0.00,VWS V14.00,2013-02-01 22:19:00,
2013-02-01 17:20:00,27.0,2.3,30.03,SSE,158,2.5,5.4,34,0.00,,---,0.00,VWS V14.00,2013-02-01 22:20:00,
2013-02-01 17:21:00,27.9,3.2,29.97,SW,225,6.9,6.9,34,0.00,,---,0.00,VWS V14.00,2013-02-01 22:21:00,
2013-02-01 17:22:00,27.9,3.2,29.97,NNW,338,3.4,6.9,34,0.00,,---,0.00,VWS V14.00,2013-02-01 22:22:00,
2013-02-01 17:23:00,27.9,3.2,29.97,WSW,248,5.4,7.4,34,0.00,,---,0.00,VWS V14.00,2013-02-01 22:23:00,
2013-02-01 17:24:00,27.9,3.2,29.97,NW,315,3.1,6.3,34,0.00,,---,0.00,VWS V14.00,2013-02-01 22:24:00,
2013-02-01 17:25:00,27.0,2.3,30.03,SW,225,6.3,6.3,34,0.00,,---,0.00,VWS V14.00,2013-02-01 22:25:00,
2013-02-01 17:26:00,27.9,3.2,29.97,WSW,248,2.5,2.9,34,0.00,,---,0.00,VWS V14.00,2013-02-01 22:26:00,
2013-02-01 17:27:00,27.9,3.2,29.94,South,180,4.0,4.0,34,0.00,,---,0.00,VWS V14.00,2013-02-01 22:27:00,
2013-02-01 17:28:00,27.9,3.2,29.94,WNW,292,3.4,6.0,34,0.00,,---,0.00,VWS V14.00,2013-02-01 22:28:00,
2013-02-01 17:29:00,27.9,3.2,29.94,WSW,248,2.9,3.4,34,0.00,,---,0.00,VWS V14.00,2013-02-01 22:29:00,
2013-02-01 17:30:00,27.0,2.3,30.03,WNW,292,5.6,5.6,34,0.00,,---,0.00,VWS V14.00,2013-02-01 22:30:00,
2013-02-01 17:31:00,27.9,3.2,29.94,NW,315,3.6,3.8,34,0.00,,---,0.00,VWS V14.00,2013-02-01 22:31:00,
2013-02-01 17:32:00,27.9,3.2,29.94,NE,45,4.3,4.3,34,0.00,,---,0.00,VWS V14.00,2013-02-01 22:32:00,
2013-02-01 17:33:00,27.9,3.2,29.94,SSE,158,6.3,6.3,34,0.00,,---,0.00,VWS V14.00,2013-02-01 22:33:00,
2013-02-01 17:34:00,27.9,3.2,29.94,South,180,4.5,6.3,34,0.00,,---,0.00,VWS V14.00,2013-02-01 22:34:00,
2013-02-01 17:35:00,26.8,2.2,30.03,WNW,292,2.2,2.7,34,0.00,,---,0.00,VWS V14.00,2013-02-01 22:35:00,
2013-02-01 17:36:00,27.9,3.2,29.94,SW,225,3.6,5.4,34,0.00,,---,0.00,VWS V14.00,2013-02-01 22:36:00,
2013-02-01 17:37:00,27.9,3.2,29.94,NE,45,1.6,4.9,34,0.00,,---,0.00,VWS V14.00,2013-02-01 22:37:00,
2013-02-01 17:38:00,27.9,3.2,29.94,NE,45,1.6,2.9,34,0.00,,---,0.00,VWS V14.00,2013-02-01 22:38:00,
2013-02-01 17:39:00,27.9,3.2,29.94,NW,315,2.5,2.9,34,0.00,,---,0.00,VWS V14.00,2013-02-01 22:39:00,
2013-02-01 17:40:00,26.8,2.2,30.03,NW,315,4.3,6.0,34,0.00,,---,0.00,VWS V14.00,2013-02-01 22:40:00,
2013-02-01 17:41:00,27.9,3.2,29.94,WNW,292,6.3,6.3,34,0.00,,---,0.00,VWS V14.00,2013-02-01 22:41:00,
2013-02-01 17:42:00,27.9,3.2,29.97,NW,315,2.2,6.3,34,0.00,,---,0.00,VWS V14.00,2013-02-01 22:42:00,
2013-02-01 17:43:00,27.9,3.2,29.97,East,90,3.4,7.2,34,0.00,,---,0.00,VWS V14.00,2013-02-01 22:43:00,
2013-02-01 17:44:00,27.9,3.2,29.97,NNE,22,3.4,3.4,34,0.00,,---,0.00,VWS V14.00,2013-02-01 22:44:00,
2013-02-01 17:45:00,26.6,2.0,30.03,South,180,15.2,15.2,34,0.00,,---,0.00,VWS V14.00,2013-02-01 22:45:00,
2013-02-01 17:46:00,27.7,3.0,29.97,NE,45,3.8,3.8,34,0.00,,---,0.00,VWS V14.00,2013-02-01 22:46:00,
2013-02-01 17:47:00,27.7,3.0,29.97,NNW,338,4.9,4.9,34,0.00,,---,0.00,VWS V14.00,2013-02-01 22:47:00,
2013-02-01 17:48:00,27.7,3.0,29.97,NNW,338,4.0,4.9,34,0.00,,---,0.00,VWS V14.00,2013-02-01 22:48:00,
2013-02-01 17:49:00,27.7,3.0,29.97,SW,225,3.6,5.6,34,0.00,,---,0.00,VWS V14.00,2013-02-01 22:49:00,
2013-02-01 17:50:00,26.4,1.9,30.03,WNW,292,4.3,4.9,34,0.00,,---,0.00,VWS V14.00,2013-02-01 22:50:00,
2013-02-01 17:51:00,27.7,3.0,29.97,NNE,22,2.5,4.7,34,0.00,,---,0.00,VWS V14.00,2013-02-01 22:51:00,
2013-02-01 17:52:00,27.7,3.0,29.97,NW,315,2.2,3.8,34,0.00,,---,0.00,VWS V14.00,2013-02-01 22:52:00,
2013-02-01 17:53:00,27.7,3.0,29.97,West,270,2.2,2.9,34,0.00,,---,0.00,VWS V14.00,2013-02-01 22:53:00,
2013-02-01 17:54:00,27.7,3.0,29.97,SW,225,6.3,10.7,34,0.00,,---,0.00,VWS V14.00,2013-02-01 22:54:00,
2013-02-01 17:55:00,26.4,1.9,30.03,WNW,292,6.0,6.0,34,0.00,,---,0.00,VWS V14.00,2013-02-01 22:55:00,
2013-02-01 17:56:00,27.7,3.0,29.97,West,270,1.1,7.2,34,0.00,,---,0.00,VWS V14.00,2013-02-01 22:56:00,
2013-02-01 17:57:00,27.7,3.0,30.00,WNW,292,7.8,7.8,34,0.00,,---,0.00,VWS V14.00,2013-02-01 22:57:00,
2013-02-01 17:58:00,27.7,3.0,30.00,WSW,248,6.0,7.8,34,0.00,,---,0.00,VWS V14.00,2013-02-01 22:58:00,
2013-02-01 17:59:00,27.7,3.0,30.00,South,180,3.8,6.0,34,0.00,,---,0.00,VWS V14.00,2013-02-01 22:59:00,
2013-02-01 18:00:00,26.2,1.7,30.03,WSW,248,2.2,5.6,34,0.00,,---,0.00,VWS V14.00,2013-02-01 23:00:00,
2013-02-01 18:01:00,27.5,2.8,30.00,West,270,1.3,3.8,34,0.00,,---,0.00,VWS V14.00,2013-02-01 23:01:00,
2013-02-01 18:02:00,27.5,2.8,30.00,SSW,202,2.9,2.9,34,0.00,,---,0.00,VWS V14.00,2013-02-01 23:02:00,
2013-02-01 18:03:00,27.5,2.8,30.00,West,270,4.0,4.9,34,0.00,,---,0.00,VWS V14.00,2013-02-01 23:03:00,
2013-02-01 18:04:00,27.5,2.8,30.00,NNW,338,3.1,4.0,34,0.00,,---,0.00,VWS V14.00,2013-02-01 23:04:00,
2013-02-01 18:05:00,26.1,1.5,30.06,WSW,248,2.7,2.7,34,0.00,,---,0.00,VWS V14.00,2013-02-01 23:05:00,
2013-02-01 18:06:00,27.5,2.8,30.00,NW,315,1.6,8.5,34,0.00,,---,0.00,VWS V14.00,2013-02-01 23:06:00,
2013-02-01 18:07:00,27.5,2.8,30.00,WSW,248,2.9,4.0,34,0.00,,---,0.00,VWS V14.00,2013-02-01 23:07:00,
2013-02-01 18:08:00,27.3,2.7,30.00,WNW,292,3.4,5.6,34,0.00,,---,0.00,VWS V14.00,2013-02-01 23:08:00,
2013-02-01 18:09:00,27.3,2.7,30.00,West,270,2.9,3.4,34,0.00,,---,0.00,VWS V14.00,2013-02-01 23:09:00,
2013-02-01 18:10:00,26.1,1.5,30.06,SW,225,2.9,2.9,34,0.00,,---,0.00,VWS V14.00,2013-02-01 23:10:00,
2013-02-01 18:11:00,27.3,2.7,30.00,West,270,2.0,4.0,34,0.00,,---,0.00,VWS V14.00,2013-02-01 23:11:00,
2013-02-01 18:12:00,27.3,2.7,30.03,WNW,292,1.3,2.9,34,0.00,,---,0.00,VWS V14.00,2013-02-01 23:12:00,
2013-02-01 18:13:00,27.3,2.7,30.03,SW,225,2.0,2.7,34,0.00,,---,0.00,VWS V14.00,2013-02-01 23:13:00,
2013-02-01 18:14:00,27.3,2.7,30.03,WNW,292,3.1,4.3,34,0.00,,---,0.00,VWS V14.00,2013-02-01 23:14:00,
2013-02-01 18:15:00,25.9,1.4,30.06,SSW,202,5.4,5.4,34,0.00,,---,0.00,VWS V14.00,2013-02-01 23:15:00,
2013-02-01 18:16:00,27.1,2.5,30.03,NNW,338,2.7,4.0,34,0.00,,---,0.00,VWS V14.00,2013-02-01 23:16:00,
2013-02-01 18:17:00,27.1,2.5,30.03,NW,315,2.9,2.9,34,0.00,,---,0.00,VWS V14.00,2013-02-01 23:17:00,
2013-02-01 18:18:00,27.1,2.5,30.03,NNW,338,2.2,2.9,34,0.00,,---,0.00,VWS V14.00,2013-02-01 23:18:00,
2013-02-01 18:19:00,27.1,2.5,30.03,ESE,112,3.1,6.0,34,0.00,,---,0.00,VWS V14.00,2013-02-01 23:19:00,
2013-02-01 18:20:00,25.7,1.9,30.09,NNW,338,7.2,8.5,35,0.00,,---,0.00,VWS V14.00,2013-02-01 23:20:00,
2013-02-01 18:21:00,27.1,2.5,30.03,North,0,2.0,2.0,34,0.00,,---,0.00,VWS V14.00,2013-02-01 23:21:00,
2013-02-01 18:22:00,27.1,2.5,30.03,WNW,292,2.5,3.1,34,0.00,,---,0.00,VWS V14.00,2013-02-01 23:22:00,
2013-02-01 18:23:00,27.1,2.5,30.03,NW,315,2.0,3.8,34,0.00,,---,0.00,VWS V14.00,2013-02-01 23:23:00,
2013-02-01 18:24:00,27.1,2.5,30.03,NW,315,2.7,2.9,34,0.00,,---,0.00,VWS V14.00,2013-02-01 23:24:00,
2013-02-01 18:25:00,25.7,1.9,30.09,South,180,4.9,4.9,35,0.00,,---,0.00,VWS V14.00,2013-02-01 23:25:00,
2013-02-01 18:26:00,27.1,2.5,30.03,SE,135,3.4,4.9,34,0.00,,---,0.00,VWS V14.00,2013-02-01 23:26:00,
2013-02-01 18:27:00,27.0,2.3,30.03,SE,135,5.8,6.7,34,0.00,,---,0.00,VWS V14.00,2013-02-01 23:27:00,
2013-02-01 18:28:00,27.0,2.3,30.03,NNW,338,5.4,8.5,34,0.00,,---,0.00,VWS V14.00,2013-02-01 23:28:00,
2013-02-01 18:29:00,27.0,2.3,30.03,South,180,2.9,5.4,34,0.00,,---,0.00,VWS V14.00,2013-02-01 23:29:00,
2013-02-01 18:30:00,25.5,1.7,30.09,West,270,2.0,4.3,35,0.00,,---,0.00,VWS V14.00,2013-02-01 23:30:00,
2013-02-01 18:31:00,27.0,2.3,30.03,WNW,292,5.8,10.5,34,0.00,,---,0.00,VWS V14.00,2013-02-01 23:31:00,
2013-02-01 18:32:00,27.0,2.3,30.03,NW,315,5.8,7.6,34,0.00,,---,0.00,VWS V14.00,2013-02-01 23:32:00,
2013-02-01 18:33:00,27.0,2.3,30.03,SSW,202,4.5,5.8,34,0.00,,---,0.00,VWS V14.00,2013-02-01 23:33:00,
2013-02-01 18:34:00,27.0,2.3,30.03,West,270,4.9,6.3,34,0.00,,---,0.00,VWS V14.00,2013-02-01 23:34:00,
2013-02-01 18:35:00,25.3,1.5,30.09,ESE,112,7.2,7.2,35,0.00,,---,0.00,VWS V14.00,2013-02-01 23:35:00,
2013-02-01 18:36:00,27.0,2.3,30.03,WSW,248,2.5,3.4,34,0.00,,---,0.00,VWS V14.00,2013-02-01 23:36:00,
2013-02-01 18:37:00,27.0,2.3,30.03,WSW,248,3.1,3.1,34,0.00,,---,0.00,VWS V14.00,2013-02-01 23:37:00,
2013-02-01 18:38:00,27.0,2.3,30.03,NW,315,3.1,4.0,34,0.00,,---,0.00,VWS V14.00,2013-02-01 23:38:00,
2013-02-01 18:39:00,27.0,2.3,30.03,North,0,4.0,5.6,34,0.00,,---,0.00,VWS V14.00,2013-02-01 23:39:00,
2013-02-01 18:40:00,25.3,1.5,30.09,SSW,202,4.3,4.3,35,0.00,,---,0.00,VWS V14.00,2013-02-01 23:40:00,
2013-02-01 18:41:00,27.0,2.3,30.03,NW,315,2.9,4.0,34,0.00,,---,0.00,VWS V14.00,2013-02-01 23:41:00,
2013-02-01 18:42:00,27.0,2.3,30.03,SSW,202,3.8,4.9,34,0.00,,---,0.00,VWS V14.00,2013-02-01 23:42:00,
2013-02-01 18:43:00,26.8,2.2,30.03,West,270,2.7,3.8,34,0.00,,---,0.00,VWS V14.00,2013-02-01 23:43:00,
2013-02-01 18:44:00,26.8,2.2,30.03,NW,315,0.9,2.7,34,0.00,,---,0.00,VWS V14.00,2013-02-01 23:44:00,
2013-02-01 18:45:00,25.2,1.4,30.09,West,270,2.9,3.1,35,0.00,,---,0.00,VWS V14.00,2013-02-01 23:45:00,
2013-02-01 18:46:00,26.8,2.2,30.03,NNW,338,1.6,2.5,34,0.00,,---,0.00,VWS V14.00,2013-02-01 23:46:00,
2013-02-01 18:47:00,26.8,2.2,30.03,ESE,112,2.7,3.8,34,0.00,,---,0.00,VWS V14.00,2013-02-01 23:47:00,
2013-02-01 18:48:00,26.8,2.2,30.03,NW,315,3.8,4.3,34,0.00,,---,0.00,VWS V14.00,2013-02-01 23:48:00,
2013-02-01 18:49:00,26.8,2.2,30.03,West,270,3.6,6.0,34,0.00,,---,0.00,VWS V14.00,2013-02-01 23:49:00,
2013-02-01 18:50:00,25.2,1.4,30.06,SW,225,3.4,3.4,35,0.00,,---,0.00,VWS V14.00,2013-02-01 23:50:00,
2013-02-01 18:51:00,26.6,2.0,30.03,SSW,202,2.5,6.0,34,0.00,,---,0.00,VWS V14.00,2013-02-01 23:51:00,
2013-02-01 18:52:00,26.6,2.0,30.03,South,180,5.6,5.6,34,0.00,,---,0.00,VWS V14.00,2013-02-01 23:52:00,
2013-02-01 18:53:00,26.6,2.0,30.03,West,270,3.4,5.6,34,0.00,,---,0.00,VWS V14.00,2013-02-01 23:53:00,
2013-02-01 18:54:00,26.6,2.0,30.03,SSW,202,9.6,15.2,34,0.00,,---,0.00,VWS V14.00,2013-02-01 23:54:00,
2013-02-01 18:55:00,25.2,1.4,30.06,SSW,202,3.4,4.3,35,0.00,,---,0.00,VWS V14.00,2013-02-01 23:55:00,
2013-02-01 18:56:00,26.6,2.0,30.03,SSW,202,3.4,5.4,34,0.00,,---,0.00,VWS V14.00,2013-02-01 23:56:00,
2013-02-01 18:57:00,26.4,1.9,30.03,SSW,202,2.7,3.6,34,0.00,,---,0.00,VWS V14.00,2013-02-01 23:57:00,
2013-02-01 18:58:00,26.4,1.9,30.03,West,270,4.9,4.9,34,0.00,,---,0.00,VWS V14.00,2013-02-01 23:58:00,
2013-02-01 18:59:00,26.4,1.9,30.03,West,270,4.0,6.3,34,0.00,,---,0.00,VWS V14.00,2013-02-01 23:59:00,
2013-02-01 19:00:00,25.0,1.8,30.06,West,270,1.1,3.4,36,0.00,,---,0.00,VWS V14.00,2013-02-02 00:00:00,
2013-02-01 19:01:00,26.4,1.9,30.03,NW,315,2.5,3.8,34,0.00,,---,0.00,VWS V14.00,2013-02-02 00:01:00,
2013-02-01 19:02:00,26.4,1.9,30.03,North,0,2.7,3.1,34,0.00,,---,0.00,VWS V14.00,2013-02-02 00:02:00,
2013-02-01 19:03:00,26.4,1.9,30.03,WNW,292,6.0,6.0,34,0.00,,---,0.00,VWS V14.00,2013-02-02 00:03:00,
2013-02-01 19:04:00,26.4,1.9,30.03,West,270,2.0,6.0,34,0.00,,---,0.00,VWS V14.00,2013-02-02 00:04:00,
2013-02-01 19:05:00,24.8,1.6,30.09,SW,225,4.0,4.0,36,0.00,,---,0.00,VWS V14.00,2013-02-02 00:05:00,
2013-02-01 19:06:00,26.4,1.9,30.03,NW,315,5.8,5.8,34,0.00,,---,0.00,VWS V14.00,2013-02-02 00:06:00,
2013-02-01 19:07:00,26.2,1.7,30.03,NW,315,4.9,5.8,34,0.00,,---,0.00,VWS V14.00,2013-02-02 00:07:00,
2013-02-01 19:08:00,26.2,1.7,30.03,South,180,2.9,4.9,34,0.00,,---,0.00,VWS V14.00,2013-02-02 00:08:00,
2013-02-01 19:09:00,26.2,1.7,30.03,SSW,202,2.7,5.6,34,0.00,,---,0.00,VWS V14.00,2013-02-02 00:09:00,
2013-02-01 19:10:00,24.8,1.6,30.09,South,180,2.2,3.4,36,0.00,,---,0.00,VWS V14.00,2013-02-02 00:10:00,
2013-02-01 19:11:00,26.2,1.7,30.03,WNW,292,4.5,4.5,34,0.00,,---,0.00,VWS V14.00,2013-02-02 00:11:00,
2013-02-01 19:12:00,26.2,1.7,30.06,West,270,2.7,4.5,34,0.00,,---,0.00,VWS V14.00,2013-02-02 00:12:00,
2013-02-01 19:13:00,26.1,1.5,30.06,SSE,158,1.6,2.7,34,0.00,,---,0.00,VWS V14.00,2013-02-02 00:13:00,
2013-02-01 19:14:00,26.1,1.5,30.06,SE,135,3.1,3.1,34,0.00,,---,0.00,VWS V14.00,2013-02-02 00:14:00,
2013-02-01 19:15:00,24.6,1.5,30.09,West,270,0.0,2.2,36,0.00,,---,0.00,VWS V14.00,2013-02-02 00:15:00,
2013-02-01 19:16:00,26.1,1.5,30.06,WNW,292,3.8,5.4,34,0.00,,---,0.00,VWS V14.00,2013-02-02 00:16:00,
2013-02-01 19:17:00,26.1,1.5,30.06,SSE,158,3.6,3.8,34,0.00,,---,0.00,VWS V14.00,2013-02-02 00:17:00,
2013-02-01 19:18:00,26.1,1.5,30.06,WSW,248,2.9,6.5,34,0.00,,---,0.00,VWS V14.00,2013-02-02 00:18:00,
2013-02-01 19:19:00,26.1,1.5,30.06,NNE,22,4.3,4.3,34,0.00,,---,0.00,VWS V14.00,2013-02-02 00:19:00,
2013-02-01 19:20:00,24.6,1.5,30.09,SSE,158,2.5,3.4,36,0.00,,---,0.00,VWS V14.00,2013-02-02 00:20:00,
2013-02-01 19:21:00,26.1,1.5,30.06,WNW,292,4.0,5.6,34,0.00,,---,0.00,VWS V14.00,2013-02-02 00:21:00,
2013-02-01 19:22:00,25.9,1.4,30.06,WNW,292,2.0,4.0,34,0.00,,---,0.00,VWS V14.00,2013-02-02 00:22:00,
2013-02-01 19:23:00,25.9,1.4,30.06,West,270,3.6,4.9,34,0.00,,---,0.00,VWS V14.00,2013-02-02 00:23:00,
2013-02-01 19:24:00,25.9,1.4,30.06,SSE,158,3.8,5.4,34,0.00,,---,0.00,VWS V14.00,2013-02-02 00:24:00,
2013-02-01 19:25:00,24.6,1.5,30.09,WNW,292,2.9,2.9,36,0.00,,---,0.00,VWS V14.00,2013-02-02 00:25:00,
2013-02-01 19:26:00,25.9,1.4,30.06,WSW,248,2.9,3.8,34,0.00,,---,0.00,VWS V14.00,2013-02-02 00:26:00,
2013-02-01 19:27:00,25.9,1.4,30.09,WSW,248,3.4,5.6,34,0.00,,---,0.00,VWS V14.00,2013-02-02 00:27:00,
2013-02-01 19:28:00,25.9,2.0,30.09,SSW,202,6.5,6.5,35,0.00,,---,0.00,VWS V14.00,2013-02-02 00:28:00,
2013-02-01 19:29:00,25.7,1.9,30.09,SSW,202,3.1,8.5,35,0.00,,---,0.00,VWS V14.00,2013-02-02 00:29:00,
2013-02-01 19:30:00,24.6,1.5,30.09,SW,225,2.7,4.0,36,0.00,,---,0.00,VWS V14.00,2013-02-02 00:30:00,
2013-02-01 19:31:00,25.7,1.9,30.09,WNW,292,3.8,6.0,35,0.00,,---,0.00,VWS V14.00,2013-02-02 00:31:00,
2013-02-01 19:32:00,25.7,1.9,30.09,SSW,202,2.9,4.9,35,0.00,,---,0.00,VWS V14.00,2013-02-02 00:32:00,
2013-02-01 19:33:00,25.7,1.9,30.09,WSW,248,4.3,4.3,35,0.00,,---,0.00,VWS V14.00,2013-02-02 00:33:00,
2013-02-01 19:34:00,25.7,1.9,30.09,SSW,202,3.1,4.9,35,0.00,,---,0.00,VWS V14.00,2013-02-02 00:34:00,
2013-02-01 19:35:00,24.4,1.3,30.12,SSW,202,1.1,3.6,36,0.00,,---,0.00,VWS V14.00,2013-02-02 00:35:00,
2013-02-01 19:36:00,25.5,1.7,30.09,SSW,202,2.0,5.6,35,0.00,,---,0.00,VWS V14.00,2013-02-02 00:36:00,
2013-02-01 19:37:00,25.5,1.7,30.09,WNW,292,2.9,2.9,35,0.00,,---,0.00,VWS V14.00,2013-02-02 00:37:00,
2013-02-01 19:38:00,25.5,1.7,30.09,WNW,292,4.0,4.0,35,0.00,,---,0.00,VWS V14.00,2013-02-02 00:38:00,
2013-02-01 19:39:00,25.5,1.7,30.09,WSW,248,2.7,4.3,35,0.00,,---,0.00,VWS V14.00,2013-02-02 00:39:00,
2013-02-01 19:40:00,24.4,1.3,30.12,WNW,292,4.0,4.0,36,0.00,,---,0.00,VWS V14.00,2013-02-02 00:40:00,
2013-02-01 19:41:00,25.3,1.5,30.09,West,270,5.6,5.6,35,0.00,,---,0.00,VWS V14.00,2013-02-02 00:41:00,
2013-02-01 19:42:00,25.3,1.5,30.09,South,180,2.9,5.6,35,0.00,,---,0.00,VWS V14.00,2013-02-02 00:42:00,
2013-02-01 19:43:00,25.3,1.5,30.09,WNW,292,3.1,5.4,35,0.00,,---,0.00,VWS V14.00,2013-02-02 00:43:00,
2013-02-01 19:44:00,25.3,1.5,30.09,WSW,248,2.0,7.2,35,0.00,,---,0.00,VWS V14.00,2013-02-02 00:44:00,
2013-02-01 19:45:00,24.4,1.9,30.12,SSE,158,1.1,2.0,37,0.00,,---,0.00,VWS V14.00,2013-02-02 00:45:00,
2013-02-01 19:46:00,25.3,1.5,30.09,SSE,158,3.8,3.8,35,0.00,,---,0.00,VWS V14.00,2013-02-02 00:46:00,
2013-02-01 19:47:00,25.3,1.5,30.09,SSW,202,4.9,4.9,35,0.00,,---,0.00,VWS V14.00,2013-02-02 00:47:00,
2013-02-01 19:48:00,25.3,1.5,30.09,South,180,4.3,4.9,35,0.00,,---,0.00,VWS V14.00,2013-02-02 00:48:00,
2013-02-01 19:49:00,25.3,1.5,30.09,WNW,292,2.7,4.3,35,0.00,,---,0.00,VWS V14.00,2013-02-02 00:49:00,
2013-02-01 19:50:00,24.4,1.9,30.15,SW,225,3.8,3.8,37,0.00,,---,0.00,VWS V14.00,2013-02-02 00:50:00,
2013-02-01 19:51:00,25.3,1.5,30.09,NW,315,1.1,3.1,35,0.00,,---,0.00,VWS V14.00,2013-02-02 00:51:00,
2013-02-01 19:52:00,25.3,1.5,30.09,SSE,158,3.8,3.8,35,0.00,,---,0.00,VWS V14.00,2013-02-02 00:52:00,
2013-02-01 19:53:00,25.3,1.5,30.09,WNW,292,3.1,6.0,35,0.00,,---,0.00,VWS V14.00,2013-02-02 00:53:00,
2013-02-01 19:54:00,25.2,1.4,30.09,SSW,202,4.0,4.0,35,0.00,,---,0.00,VWS V14.00,2013-02-02 00:54:00,
2013-02-01 19:55:00,24.4,1.9,30.15,West,270,1.6,4.9,37,0.00,,---,0.00,VWS V14.00,2013-02-02 00:55:00,
2013-02-01 19:56:00,25.2,1.4,30.09,NNW,338,2.0,2.0,35,0.00,,---,0.00,VWS V14.00,2013-02-02 00:56:00,
2013-02-01 19:57:00,25.2,1.4,30.06,SSE,158,3.4,3.4,35,0.00,,---,0.00,VWS V14.00,2013-02-02 00:57:00,
2013-02-01 19:58:00,25.2,1.4,30.06,WNW,292,2.7,3.4,35,0.00,,---,0.00,VWS V14.00,2013-02-02 00:58:00,
2013-02-01 19:59:00,25.2,1.4,30.06,WNW,292,2.7,3.4,35,0.00,,---,0.00,VWS V14.00,2013-02-02 00:59:00,
2013-02-01 20:00:00,24.4,1.9,30.15,NNE,22,2.0,3.4,37,0.00,,---,0.00,VWS V14.00,2013-02-02 01:00:00,
2013-02-01 20:01:00,25.2,1.4,30.06,West,270,2.9,3.6,35,0.00,,---,0.00,VWS V14.00,2013-02-02 01:01:00,
2013-02-01 20:02:00,25.2,1.4,30.06,WSW,248,2.5,2.9,35,0.00,,---,0.00,VWS V14.00,2013-02-02 01:02:00,
2013-02-01 20:03:00,25.2,1.4,30.06,WNW,292,4.3,4.3,35,0.00,,---,0.00,VWS V14.00,2013-02-02 01:03:00,
2013-02-01 20:04:00,25.0,1.8,30.06,WNW,292,3.8,4.3,36,0.00,,---,0.00,VWS V14.00,2013-02-02 01:04:00,
2013-02-01 20:05:00,24.3,1.8,30.15,South,180,2.9,6.7,37,0.00,,---,0.00,VWS V14.00,2013-02-02 01:05:00,
2013-02-01 20:06:00,25.0,1.8,30.06,South,180,7.6,7.6,36,0.00,,---,0.00,VWS V14.00,2013-02-02 01:06:00,
2013-02-01 20:07:00,25.0,1.8,30.06,WSW,248,4.9,7.6,36,0.00,,---,0.00,VWS V14.00,2013-02-02 01:07:00,
2013-02-01 20:08:00,25.0,1.8,30.06,West,270,3.4,4.9,36,0.00,,---,0.00,VWS V14.00,2013-02-02 01:08:00,
2013-02-01 20:09:00,24.8,1.6,30.06,WNW,292,2.7,3.4,36,0.00,,---,0.00,VWS V14.00,2013-02-02 01:09:00,
2013-02-01 20:10:00,24.3,1.8,30.15,West,270,3.1,3.8,37,0.00,,---,0.00,VWS V14.00,2013-02-02 01:10:00,
2013-02-01 20:11:00,24.8,1.6,30.06,SSW,202,3.1,3.6,36,0.00,,---,0.00,VWS V14.00,2013-02-02 01:11:00,
2013-02-01 20:12:00,24.8,1.6,30.09,WSW,248,2.7,3.1,36,0.00,,---,0.00,VWS V14.00,2013-02-02 01:12:00,
2013-02-01 20:13:00,24.8,1.6,30.09,SW,225,4.0,4.0,36,0.00,,---,0.00,VWS V14.00,2013-02-02 01:13:00,
2013-02-01 20:14:00,24.8,1.6,30.09,SW,225,4.0,4.0,36,0.00,,---,0.00,VWS V14.00,2013-02-02 01:14:00,
2013-02-01 20:15:00,24.3,1.8,30.15,WNW,292,2.5,3.6,37,0.00,,---,0.00,VWS V14.00,2013-02-02 01:15:00,
2013-02-01 20:16:00,24.8,1.6,30.09,NW,315,1.6,3.4,36,0.00,,---,0.00,VWS V14.00,2013-02-02 01:16:00,
2013-02-01 20:17:00,24.8,1.6,30.09,WSW,248,0.0,2.7,36,0.00,,---,0.00,VWS V14.00,2013-02-02 01:17:00,
2013-02-01 20:18:00,24.8,1.6,30.09,NNW,338,2.7,3.1,36,0.00,,---,0.00,VWS V14.00,2013-02-02 01:18:00,
2013-02-01 20:19:00,24.8,1.6,30.09,NW,315,3.4,3.4,36,0.00,,---,0.00,VWS V14.00,2013-02-02 01:19:00,
2013-02-01 20:20:00,24.3,1.8,30.15,SSW,202,2.5,2.5,37,0.00,,---,0.00,VWS V14.00,2013-02-02 01:20:00,
2013-02-01 20:21:00,24.8,1.6,30.09,NNW,338,3.1,3.1,36,0.00,,---,0.00,VWS V14.00,2013-02-02 01:21:00,
2013-02-01 20:22:00,24.6,1.5,30.09,SW,225,2.2,3.1,36,0.00,,---,0.00,VWS V14.00,2013-02-02 01:22:00,
2013-02-01 20:23:00,24.6,1.5,30.09,West,270,2.2,2.5,36,0.00,,---,0.00,VWS V14.00,2013-02-02 01:23:00,
2013-02-01 20:24:00,24.6,1.5,30.09,SE,135,2.0,2.2,36,0.00,,---,0.00,VWS V14.00,2013-02-02 01:24:00,
2013-02-01 20:25:00,24.1,1.6,30.15,West,270,3.6,3.6,37,0.00,,---,0.00,VWS V14.00,2013-02-02 01:25:00,
2013-02-01 20:26:00,24.6,1.5,30.09,SSW,202,2.5,4.3,36,0.00,,---,0.00,VWS V14.00,2013-02-02 01:26:00,
2013-02-01 20:27:00,24.6,1.5,30.09,SSE,158,4.7,5.6,36,0.00,,---,0.00,VWS V14.00,2013-02-02 01:27:00,
2013-02-01 20:28:00,24.6,1.5,30.09,WSW,248,2.5,6.0,36,0.00,,---,0.00,VWS V14.00,2013-02-02 01:28:00,
2013-02-01 20:29:00,24.6,1.5,30.09,SSW,202,3.4,5.6,36,0.00,,---,0.00,VWS V14.00,2013-02-02 01:29:00,
2013-02-01 20:30:00,24.1,1.6,30.15,WNW,292,0.9,1.3,37,0.00,,---,0.00,VWS V14.00,2013-02-02 01:30:00,
2013-02-01 20:31:00,24.6,1.5,30.09,WNW,292,5.6,5.6,36,0.00,,---,0.00,VWS V14.00,2013-02-02 01:31:00,
2013-02-01 20:32:00,24.6,1.5,30.09,WNW,292,2.5,5.6,36,0.00,,---,0.00,VWS V14.00,2013-02-02 01:32:00,
2013-02-01 20:33:00,24.6,1.5,30.09,WNW,292,2.7,2.7,36,0.00,,---,0.00,VWS V14.00,2013-02-02 01:33:00,
2013-02-01 20:34:00,24.6,1.5,30.09,North,0,2.9,4.3,36,0.00,,---,0.00,VWS V14.00,2013-02-02 01:34:00,
2013-02-01 20:35:00,24.1,1.6,30.12,SSE,158,3.8,3.8,37,0.00,,---,0.00,VWS V14.00,2013-02-02 01:35:00,
2013-02-01 20:36:00,24.6,1.5,30.09,SSW,202,2.0,4.3,36,0.00,,---,0.00,VWS V14.00,2013-02-02 01:36:00,
2013-02-01 20:37:00,24.6,1.5,30.09,SSW,202,2.9,3.6,36,0.00,,---,0.00,VWS V14.00,2013-02-02 01:37:00,
2013-02-01 20:38:00,24.6,1.5,30.09,NNW,338,4.0,4.9,36,0.00,,---,0.00,VWS V14.00,2013-02-02 01:38:00,
2013-02-01 20:39:00,24.6,1.5,30.09,South,180,1.6,4.0,36,0.00,,---,0.00,VWS V14.00,2013-02-02 01:39:00,
2013-02-01 20:40:00,23.9,1.4,30.12,WNW,292,2.0,4.0,37,0.00,,---,0.00,VWS V14.00,2013-02-02 01:40:00,
2013-02-01 20:41:00,24.6,1.5,30.09,SSE,158,2.9,3.4,36,0.00,,---,0.00,VWS V14.00,2013-02-02 01:41:00,
2013-02-01 20:42:00,24.6,1.5,30.12,WNW,292,0.0,3.4,36,0.00,,---,0.00,VWS V14.00,2013-02-02 01:42:00,
2013-02-01 20:43:00,24.6,1.5,30.12,West,270,3.6,3.6,36,0.00,,---,0.00,VWS V14.00,2013-02-02 01:43:00,
2013-02-01 20:44:00,24.4,1.3,30.12,SSW,202,2.7,4.9,36,0.00,,---,0.00,VWS V14.00,2013-02-02 01:44:00,
2013-02-01 20:45:00,23.9,2.0,30.12,WNW,292,3.1,3.1,38,0.00,,---,0.00,VWS V14.00,2013-02-02 01:45:00,
2013-02-01 20:46:00,24.4,1.3,30.12,SE,135,2.7,3.6,36,0.00,,---,0.00,VWS V14.00,2013-02-02 01:46:00,
2013-02-01 20:47:00,24.4,1.3,30.12,NW,315,1.3,3.6,36,0.00,,---,0.00,VWS V14.00,2013-02-02 01:47:00,
2013-02-01 20:48:00,24.4,1.3,30.12,WNW,292,3.1,5.4,36,0.00,,---,0.00,VWS V14.00,2013-02-02 01:48:00,
2013-02-01 20:49:00,24.4,1.3,30.12,NNW,338,3.8,4.0,36,0.00,,---,0.00,VWS V14.00,2013-02-02 01:49:00,
2013-02-01 20:50:00,23.7,1.8,30.15,West,270,2.2,2.2,38,0.00,,---,0.00,VWS V14.00,2013-02-02 01:50:00,
2013-02-01 20:51:00,24.4,1.3,30.12,SSW,202,3.6,6.3,36,0.00,,---,0.00,VWS V14.00,2013-02-02 01:51:00,
2013-02-01 20:52:00,24.4,1.9,30.12,SSE,158,4.0,4.3,37,0.00,,---,0.00,VWS V14.00,2013-02-02 01:52:00,
2013-02-01 20:53:00,24.4,1.9,30.12,NE,45,2.0,4.0,37,0.00,,---,0.00,VWS V14.00,2013-02-02 01:53:00,
2013-02-01 20:54:00,24.4,1.9,30.12,West,270,3.4,3.4,37,0.00,,---,0.00,VWS V14.00,2013-02-02 01:54:00,
2013-02-01 20:55:00,23.7,1.8,30.15,SSW,202,3.6,3.6,38,0.00,,---,0.00,VWS V14.00,2013-02-02 01:55:00,
2013-02-01 20:56:00,24.4,1.9,30.12,West,270,3.4,3.8,37,0.00,,---,0.00,VWS V14.00,2013-02-02 01:56:00,
2013-02-01 20:57:00,24.4,1.9,30.15,SSE,158,2.2,4.0,37,0.00,,---,0.00,VWS V14.00,2013-02-02 01:57:00,
2013-02-01 20:58:00,24.4,1.9,30.15,NW,315,3.4,3.8,37,0.00,,---,0.00,VWS V14.00,2013-02-02 01:58:00,
2013-02-01 20:59:00,24.4,1.9,30.15,SSE,158,6.5,6.5,37,0.00,,---,0.00,VWS V14.00,2013-02-02 01:59:00,
2013-02-01 21:00:00,23.5,1.7,30.15,SSW,202,2.7,4.7,38,0.00,,---,0.00,VWS V14.00,2013-02-02 02:00:00,
2013-02-01 21:01:00,24.4,1.9,30.15,NW,315,3.6,3.6,37,0.00,,---,0.00,VWS V14.00,2013-02-02 02:01:00,
2013-02-01 21:02:00,24.4,1.9,30.15,NW,315,3.1,7.8,37,0.00,,---,0.00,VWS V14.00,2013-02-02 02:02:00,
2013-02-01 21:03:00,24.4,1.9,30.15,SW,225,4.9,5.6,37,0.00,,---,0.00,VWS V14.00,2013-02-02 02:03:00,
2013-02-01 21:04:00,24.4,1.9,30.15,WSW,248,2.0,4.9,37,0.00,,---,0.00,VWS V14.00,2013-02-02 02:04:00,
2013-02-01 21:05:00,23.5,2.2,30.18,SW,225,2.7,2.7,39,0.00,,---,0.00,VWS V14.00,2013-02-02 02:05:00,
2013-02-01 21:06:00,24.4,1.9,30.15,ESE,112,2.5,3.1,37,0.00,,---,0.00,VWS V14.00,2013-02-02 02:06:00,
2013-02-01 21:07:00,24.4,1.9,30.15,SSE,158,6.0,6.0,37,0.00,,---,0.00,VWS V14.00,2013-02-02 02:07:00,
2013-02-01 21:08:00,24.4,1.9,30.15,SSW,202,3.1,7.4,37,0.00,,---,0.00,VWS V14.00,2013-02-02 02:08:00,
2013-02-01 21:09:00,24.4,1.9,30.15,South,180,3.1,3.4,37,0.00,,---,0.00,VWS V14.00,2013-02-02 02:09:00,
2013-02-01 21:10:00,23.5,2.2,30.18,SSW,202,0.9,2.7,39,0.00,,---,0.00,VWS V14.00,2013-02-02 02:10:00,
2013-02-01 21:11:00,24.3,1.8,30.15,SW,225,2.2,2.5,37,0.00,,---,0.00,VWS V14.00,2013-02-02 02:11:00,
2013-02-01 21:12:00,24.3,1.8,30.15,WNW,292,3.1,5.6,37,0.00,,---,0.00,VWS V14.00,2013-02-02 02:12:00,
2013-02-01 21:13:00,24.3,1.8,30.15,South,180,6.7,6.7,37,0.00,,---,0.00,VWS V14.00,2013-02-02 02:13:00,
2013-02-01 21:14:00,24.3,1.8,30.15,SSE,158,2.5,6.7,37,0.00,,---,0.00,VWS V14.00,2013-02-02 02:14:00,
2013-02-01 21:15:00,23.4,2.1,30.18,SSW,202,2.7,3.1,39,0.00,,---,0.00,VWS V14.00,2013-02-02 02:15:00,
2013-02-01 21:16:00,24.3,1.8,30.15,WSW,248,2.7,5.6,37,0.00,,---,0.00,VWS V14.00,2013-02-02 02:16:00,
2013-02-01 21:17:00,24.3,1.8,30.15,WNW,292,2.7,4.9,37,0.00,,---,0.00,VWS V14.00,2013-02-02 02:17:00,
2013-02-01 21:18:00,24.3,1.8,30.15,South,180,1.1,2.9,37,0.00,,---,0.00,VWS V14.00,2013-02-02 02:18:00,
2013-02-01 21:19:00,24.3,1.8,30.15,SSW,202,3.1,3.8,37,0.00,,---,0.00,VWS V14.00,2013-02-02 02:19:00,
2013-02-01 21:20:00,23.2,1.9,30.18,SW,225,1.1,2.0,39,0.00,,---,0.00,VWS V14.00,2013-02-02 02:20:00,
2013-02-01 21:21:00,24.3,1.8,30.15,SW,225,1.1,3.8,37,0.00,,---,0.00,VWS V14.00,2013-02-02 02:21:00,
2013-02-01 21:22:00,24.3,1.8,30.15,West,270,4.7,4.7,37,0.00,,---,0.00,VWS V14.00,2013-02-02 02:22:00,
2013-02-01 21:23:00,24.3,1.8,30.15,WNW,292,3.6,7.6,37,0.00,,---,0.00,VWS V14.00,2013-02-02 02:23:00,
2013-02-01 21:24:00,24.3,1.8,30.15,WNW,292,3.1,3.6,37,0.00,,---,0.00,VWS V14.00,2013-02-02 02:24:00,
2013-02-01 21:25:00,23.2,2.5,30.18,SW,225,1.1,1.1,40,0.00,,---,0.00,VWS V14.00,2013-02-02 02:25:00,
2013-02-01 21:26:00,24.3,1.8,30.15,SSW,202,2.7,4.7,37,0.00,,---,0.00,VWS V14.00,2013-02-02 02:26:00,
2013-02-01 21:27:00,24.3,1.8,30.15,SW,225,1.6,2.7,37,0.00,,---,0.00,VWS V14.00,2013-02-02 02:27:00,
2013-02-01 21:28:00,24.3,1.8,30.15,West,270,2.0,2.0,37,0.00,,---,0.00,VWS V14.00,2013-02-02 02:28:00,
2013-02-01 21:29:00,24.1,1.6,30.15,SSW,202,2.0,2.5,37,0.00,,---,0.00,VWS V14.00,2013-02-02 02:29:00,
2013-02-01 21:30:00,23.0,2.8,30.18,South,180,0.0,0.9,41,0.00,,---,0.00,VWS V14.00,2013-02-02 02:30:00,
2013-02-01 21:31:00,24.1,1.6,30.15,SSW,202,1.6,4.0,37,0.00,,---,0.00,VWS V14.00,2013-02-02 02:31:00,
2013-02-01 21:32:00,24.1,1.6,30.15,West,270,3.1,3.6,37,0.00,,---,0.00,VWS V14.00,2013-02-02 02:32:00,
2013-02-01 21:33:00,24.1,1.6,30.15,WNW,292,3.1,3.1,37,0.00,,---,0.00,VWS V14.00,2013-02-02 02:33:00,
2013-02-01 21:34:00,24.1,1.6,30.15,West,270,2.0,3.6,37,0.00,,---,0.00,VWS V14.00,2013-02-02 02:34:00,
2013-02-01 21:35:00,23.0,2.8,30.18,South,180,1.6,1.6,41,0.00,,---,0.00,VWS V14.00,2013-02-02 02:35:00,
2013-02-01 21:36:00,24.1,1.6,30.15,SW,225,2.0,4.0,37,0.00,,---,0.00,VWS V14.00,2013-02-02 02:36:00,
2013-02-01 21:37:00,24.1,1.6,30.15,WSW,248,2.7,5.8,37,0.00,,---,0.00,VWS V14.00,2013-02-02 02:37:00,
2013-02-01 21:38:00,24.1,1.6,30.15,West,270,0.0,3.1,37,0.00,,---,0.00,VWS V14.00,2013-02-02 02:38:00,
2013-02-01 21:39:00,24.1,1.6,30.15,ESE,112,3.4,3.4,37,0.00,,---,0.00,VWS V14.00,2013-02-02 02:39:00,
2013-02-01 21:40:00,22.8,3.2,30.18,SW,225,1.3,3.8,42,0.00,,---,0.00,VWS V14.00,2013-02-02 02:40:00,
2013-02-01 21:41:00,24.1,1.6,30.15,West,270,1.6,4.0,37,0.00,,---,0.00,VWS V14.00,2013-02-02 02:41:00,
2013-02-01 21:42:00,24.1,1.6,30.12,WSW,248,1.3,2.7,37,0.00,,---,0.00,VWS V14.00,2013-02-02 02:42:00,
2013-02-01 21:43:00,24.1,1.6,30.12,SSE,158,2.5,2.5,37,0.00,,---,0.00,VWS V14.00,2013-02-02 02:43:00,
2013-02-01 21:44:00,24.1,1.6,30.12,ENE,68,2.7,3.8,37,0.00,,---,0.00,VWS V14.00,2013-02-02 02:44:00,
2013-02-01 21:45:00,22.8,3.2,30.18,WNW,292,0.9,1.3,42,0.00,,---,0.00,VWS V14.00,2013-02-02 02:45:00,
2013-02-01 21:46:00,23.9,1.4,30.12,SSW,202,2.9,3.4,37,0.00,,---,0.00,VWS V14.00,2013-02-02 02:46:00,
2013-02-01 21:47:00,23.9,1.4,30.12,SSE,158,3.4,3.4,37,0.00,,---,0.00,VWS V14.00,2013-02-02 02:47:00,
2013-02-01 21:48:00,23.9,1.4,30.12,SSW,202,3.6,4.0,37,0.00,,---,0.00,VWS V14.00,2013-02-02 02:48:00,
2013-02-01 21:49:00,23.9,1.4,30.12,WSW,248,4.0,4.0,37,0.00,,---,0.00,VWS V14.00,2013-02-02 02:49:00,
2013-02-01 21:50:00,23.0,3.3,30.18,NW,315,2.7,2.7,42,0.00,,---,0.00,VWS V14.00,2013-02-02 02:50:00,
2013-02-01 21:51:00,23.9,1.4,30.12,ENE,68,1.3,5.4,37,0.00,,---,0.00,VWS V14.00,2013-02-02 02:51:00,
2013-02-01 21:52:00,23.9,1.4,30.12,SSW,202,5.6,5.6,37,0.00,,---,0.00,VWS V14.00,2013-02-02 02:52:00,
2013-02-01 21:53:00,23.9,2.0,30.12,SW,225,2.7,5.8,38,0.00,,---,0.00,VWS V14.00,2013-02-02 02:53:00,
2013-02-01 21:54:00,23.9,2.0,30.12,West,270,2.5,3.1,38,0.00,,---,0.00,VWS V14.00,2013-02-02 02:54:00,
2013-02-01 21:55:00,23.0,3.3,30.18,WNW,292,0.0,2.7,42,0.00,,---,0.00,VWS V14.00,2013-02-02 02:55:00,
2013-02-01 21:56:00,23.7,1.8,30.12,South,180,1.6,2.7,38,0.00,,---,0.00,VWS V14.00,2013-02-02 02:56:00,
2013-02-01 21:57:00,23.7,1.8,30.15,NNW,338,2.7,3.4,38,0.00,,---,0.00,VWS V14.00,2013-02-02 02:57:00,
2013-02-01 21:58:00,23.7,1.8,30.15,South,180,1.1,3.4,38,0.00,,---,0.00,VWS V14.00,2013-02-02 02:58:00,
2013-02-01 21:59:00,23.7,1.8,30.15,WSW,248,2.9,2.9,38,0.00,,---,0.00,VWS V14.00,2013-02-02 02:59:00,
2013-02-01 22:00:00,23.0,3.3,30.18,NW,315,1.1,2.5,42,0.00,,---,0.00,VWS V14.00,2013-02-02 03:00:00,
2013-02-01 22:01:00,23.7,1.8,30.15,SSW,202,4.0,5.8,38,0.00,,---,0.00,VWS V14.00,2013-02-02 03:01:00,
2013-02-01 22:02:00,23.7,1.8,30.15,South,180,3.1,6.5,38,0.00,,---,0.00,VWS V14.00,2013-02-02 03:02:00,
2013-02-01 22:03:00,23.7,1.8,30.15,SSW,202,2.5,7.2,38,0.00,,---,0.00,VWS V14.00,2013-02-02 03:03:00,
2013-02-01 22:04:00,23.7,1.8,30.15,SSW,202,6.5,6.5,38,0.00,,---,0.00,VWS V14.00,2013-02-02 03:04:00,
2013-02-01 22:05:00,23.0,3.3,30.18,SW,225,2.2,3.1,42,0.00,,---,0.00,VWS V14.00,2013-02-02 03:05:00,
2013-02-01 22:06:00,23.7,1.8,30.15,SW,225,1.6,3.1,38,0.00,,---,0.00,VWS V14.00,2013-02-02 03:06:00,
2013-02-01 22:07:00,23.5,1.7,30.15,WNW,292,2.9,2.9,38,0.00,,---,0.00,VWS V14.00,2013-02-02 03:07:00,
2013-02-01 22:08:00,23.5,1.7,30.15,SSE,158,4.0,4.0,38,0.00,,---,0.00,VWS V14.00,2013-02-02 03:08:00,
2013-02-01 22:09:00,23.5,1.7,30.15,SW,225,3.8,4.7,38,0.00,,---,0.00,VWS V14.00,2013-02-02 03:09:00,
2013-02-01 22:10:00,23.0,3.3,30.18,SSW,202,3.1,3.1,42,0.00,,---,0.00,VWS V14.00,2013-02-02 03:10:00,
2013-02-01 22:11:00,23.5,1.7,30.15,SSE,158,2.7,3.6,38,0.00,,---,0.00,VWS V14.00,2013-02-02 03:11:00,
2013-02-01 22:12:00,23.5,2.2,30.18,South,180,2.5,3.8,39,0.00,,---,0.00,VWS V14.00,2013-02-02 03:12:00,
2013-02-01 22:13:00,23.5,2.2,30.18,WSW,248,2.5,4.9,39,0.00,,---,0.00,VWS V14.00,2013-02-02 03:13:00,
2013-02-01 22:14:00,23.5,2.2,30.18,ESE,112,2.0,2.7,39,0.00,,---,0.00,VWS V14.00,2013-02-02 03:14:00,
2013-02-01 22:15:00,23.0,3.3,30.18,South,180,1.1,2.9,42,0.00,,---,0.00,VWS V14.00,2013-02-02 03:15:00,
2013-02-01 22:16:00,23.5,2.2,30.18,SSE,158,1.6,3.4,39,0.00,,---,0.00,VWS V14.00,2013-02-02 03:16:00,
2013-02-01 22:17:00,23.5,2.2,30.18,SW,225,4.3,4.3,39,0.00,,---,0.00,VWS V14.00,2013-02-02 03:17:00,
2013-02-01 22:18:00,23.5,2.2,30.18,West,270,2.7,4.3,39,0.00,,---,0.00,VWS V14.00,2013-02-02 03:18:00,
2013-02-01 22:19:00,23.4,2.1,30.18,WSW,248,3.1,3.8,39,0.00,,---,0.00,VWS V14.00,2013-02-02 03:19:00,
2013-02-01 22:20:00,23.0,3.3,30.18,West,270,0.0,0.0,42,0.00,,---,0.00,VWS V14.00,2013-02-02 03:20:00,
2013-02-01 22:21:00,23.4,2.1,30.18,NE,45,3.8,4.7,39,0.00,,---,0.00,VWS V14.00,2013-02-02 03:21:00,
2013-02-01 22:22:00,23.4,2.1,30.18,South,180,2.7,3.8,39,0.00,,---,0.00,VWS V14.00,2013-02-02 03:22:00,
2013-02-01 22:23:00,23.4,2.1,30.18,SSW,202,2.5,4.0,39,0.00,,---,0.00,VWS V14.00,2013-02-02 03:23:00,
2013-02-01 22:24:00,23.4,2.1,30.18,SSW,202,2.2,3.1,39,0.00,,---,0.00,VWS V14.00,2013-02-02 03:24:00,
2013-02-01 22:25:00,22.8,3.2,30.18,West,270,0.9,1.6,42,0.00,,---,0.00,VWS V14.00,2013-02-02 03:25:00,
2013-02-01 22:26:00,23.2,1.9,30.18,SSW,202,2.9,3.6,39,0.00,,---,0.00,VWS V14.00,2013-02-02 03:26:00,
2013-02-01 22:27:00,23.2,1.9,30.18,SSW,202,2.9,3.4,39,0.00,,---,0.00,VWS V14.00,2013-02-02 03:27:00,
2013-02-01 22:28:00,23.2,1.9,30.18,SW,225,2.0,2.9,39,0.00,,---,0.00,VWS V14.00,2013-02-02 03:28:00,
2013-02-01 22:29:00,23.2,2.5,30.18,SSW,202,2.2,2.2,40,0.00,,---,0.00,VWS V14.00,2013-02-02 03:29:00,
2013-02-01 22:30:00,22.6,3.0,30.18,SW,225,0.0,0.0,42,0.00,,---,0.00,VWS V14.00,2013-02-02 03:30:00,
2013-02-01 22:31:00,23.2,2.5,30.18,NNW,338,3.1,5.4,40,0.00,,---,0.00,VWS V14.00,2013-02-02 03:31:00,
2013-02-01 22:32:00,23.2,2.5,30.18,West,270,2.5,3.1,40,0.00,,---,0.00,VWS V14.00,2013-02-02 03:32:00,
2013-02-01 22:33:00,23.2,2.5,30.18,WSW,248,1.1,2.5,40,0.00,,---,0.00,VWS V14.00,2013-02-02 03:33:00,
2013-02-01 22:34:00,23.2,2.5,30.18,SSE,158,1.1,1.1,40,0.00,,---,0.00,VWS V14.00,2013-02-02 03:34:00,
2013-02-01 22:35:00,22.6,3.0,30.21,SSE,158,1.1,2.5,42,0.00,,---,0.00,VWS V14.00,2013-02-02 03:35:00,
2013-02-01 22:36:00,23.2,2.5,30.18,South,180,3.6,3.6,40,0.00,,---,0.00,VWS V14.00,2013-02-02 03:36:00,
2013-02-01 22:37:00,23.2,2.5,30.18,WNW,292,2.7,3.6,40,0.00,,---,0.00,VWS V14.00,2013-02-02 03:37:00,
2013-02-01 22:38:00,23.0,2.8,30.18,SSW,202,0.9,2.7,41,0.00,,---,0.00,VWS V14.00,2013-02-02 03:38:00,
2013-02-01 22:39:00,23.0,2.8,30.18,SSE,158,1.1,1.1,41,0.00,,---,0.00,VWS V14.00,2013-02-02 03:39:00,
2013-02-01 22:40:00,22.5,2.8,30.21,NW,315,2.0,2.0,42,0.00,,---,0.00,VWS V14.00,2013-02-02 03:40:00,
2013-02-01 22:41:00,23.0,2.8,30.18,West,270,2.5,2.5,41,0.00,,---,0.00,VWS V14.00,2013-02-02 03:41:00,
2013-02-01 22:42:00,23.0,2.8,30.18,South,180,3.8,3.8,41,0.00,,---,0.00,VWS V14.00,2013-02-02 03:42:00,
2013-02-01 22:43:00,23.0,2.8,30.18,WSW,248,1.3,3.8,41,0.00,,---,0.00,VWS V14.00,2013-02-02 03:43:00,
2013-02-01 22:44:00,23.0,3.3,30.18,WSW,248,1.3,1.6,42,0.00,,---,0.00,VWS V14.00,2013-02-02 03:44:00,
2013-02-01 22:45:00,22.5,2.8,30.21,North,0,1.1,1.3,42,0.00,,---,0.00,VWS V14.00,2013-02-02 03:45:00,
2013-02-01 22:46:00,23.0,3.3,30.18,WNW,292,1.6,2.0,42,0.00,,---,0.00,VWS V14.00,2013-02-02 03:46:00,
2013-02-01 22:47:00,23.0,3.3,30.18,West,270,2.7,3.1,42,0.00,,---,0.00,VWS V14.00,2013-02-02 03:47:00,
2013-02-01 22:48:00,22.8,3.2,30.18,SSW,202,3.8,4.0,42,0.00,,---,0.00,VWS V14.00,2013-02-02 03:48:00,
2013-02-01 22:49:00,23.0,3.3,30.18,South,180,2.9,3.8,42,0.00,,---,0.00,VWS V14.00,2013-02-02 03:49:00,
2013-02-01 22:50:00,22.5,2.8,30.21,NW,315,2.2,3.8,42,0.00,,---,0.00,VWS V14.00,2013-02-02 03:50:00,
2013-02-01 22:51:00,22.8,3.2,30.18,ENE,68,0.0,2.2,42,0.00,,---,0.00,VWS V14.00,2013-02-02 03:51:00,
2013-02-01 22:52:00,22.8,3.2,30.18,NW,315,1.3,1.3,42,0.00,,---,0.00,VWS V14.00,2013-02-02 03:52:00,
2013-02-01 22:53:00,22.8,3.2,30.18,SSW,202,0.9,1.3,42,0.00,,---,0.00,VWS V14.00,2013-02-02 03:53:00,
2013-02-01 22:54:00,22.8,3.2,30.18,SSW,202,1.3,3.6,42,0.00,,---,0.00,VWS V14.00,2013-02-02 03:54:00,
2013-02-01 22:55:00,22.5,2.8,30.21,SW,225,2.9,2.9,42,0.00,,---,0.00,VWS V14.00,2013-02-02 03:55:00,
2013-02-01 22:56:00,22.8,3.2,30.18,North,0,1.6,1.6,42,0.00,,---,0.00,VWS V14.00,2013-02-02 03:56:00,
2013-02-01 22:57:00,22.8,3.2,30.18,North,0,1.3,1.6,42,0.00,,---,0.00,VWS V14.00,2013-02-02 03:57:00,
2013-02-01 22:58:00,23.0,3.3,30.18,ENE,68,0.9,1.3,42,0.00,,---,0.00,VWS V14.00,2013-02-02 03:58:00,
2013-02-01 22:59:00,23.0,3.3,30.18,WNW,292,2.0,2.7,42,0.00,,---,0.00,VWS V14.00,2013-02-02 03:59:00,
2013-02-01 23:00:00,22.5,2.8,30.21,SSW,202,2.0,4.9,42,0.00,,---,0.00,VWS V14.00,2013-02-02 04:00:00,
2013-02-01 23:01:00,23.0,3.3,30.18,SSW,202,2.9,3.1,42,0.00,,---,0.00,VWS V14.00,2013-02-02 04:01:00,
2013-02-01 23:02:00,23.0,3.3,30.18,SW,225,0.0,2.9,42,0.00,,---,0.00,VWS V14.00,2013-02-02 04:02:00,
2013-02-01 23:03:00,23.0,3.3,30.18,WSW,248,2.7,2.7,42,0.00,,---,0.00,VWS V14.00,2013-02-02 04:03:00,
2013-02-01 23:04:00,23.0,3.3,30.18,SW,225,2.2,2.7,42,0.00,,---,0.00,VWS V14.00,2013-02-02 04:04:00,
2013-02-01 23:05:00,22.5,2.8,30.21,West,270,1.6,3.4,42,0.00,,---,0.00,VWS V14.00,2013-02-02 04:05:00,
2013-02-01 23:06:00,23.0,3.3,30.18,WSW,248,4.9,4.9,42,0.00,,---,0.00,VWS V14.00,2013-02-02 04:06:00,
2013-02-01 23:07:00,23.0,3.3,30.18,SSE,158,3.6,4.9,42,0.00,,---,0.00,VWS V14.00,2013-02-02 04:07:00,
2013-02-01 23:08:00,23.0,3.3,30.18,South,180,2.5,3.6,42,0.00,,---,0.00,VWS V14.00,2013-02-02 04:08:00,
2013-02-01 23:09:00,23.0,3.3,30.18,North,0,1.1,2.5,42,0.00,,---,0.00,VWS V14.00,2013-02-02 04:09:00,
2013-02-01 23:10:00,22.3,2.7,30.21,South,180,3.1,3.1,42,0.00,,---,0.00,VWS V14.00,2013-02-02 04:10:00,
2013-02-01 23:11:00,23.0,3.3,30.18,West,270,1.3,2.7,42,0.00,,---,0.00,VWS V14.00,2013-02-02 04:11:00,
2013-02-01 23:12:00,23.0,3.3,30.18,SW,225,1.3,2.7,42,0.00,,---,0.00,VWS V14.00,2013-02-02 04:12:00,
2013-02-01 23:13:00,23.0,3.3,30.18,NNE,22,3.1,3.1,42,0.00,,---,0.00,VWS V14.00,2013-02-02 04:13:00,
2013-02-01 23:14:00,23.0,3.3,30.18,SSW,202,2.5,3.1,42,0.00,,---,0.00,VWS V14.00,2013-02-02 04:14:00,
2013-02-01 23:15:00,22.3,2.7,30.21,West,270,4.3,4.3,42,0.00,,---,0.00,VWS V14.00,2013-02-02 04:15:00,
2013-02-01 23:16:00,23.0,3.3,30.18,SW,225,0.0,1.1,42,0.00,,---,0.00,VWS V14.00,2013-02-02 04:16:00,
2013-02-01 23:17:00,23.0,3.3,30.18,WSW,248,2.7,4.9,42,0.00,,---,0.00,VWS V14.00,2013-02-02 04:17:00,
2013-02-01 23:18:00,23.0,3.3,30.18,SSW,202,3.1,4.9,42,0.00,,---,0.00,VWS V14.00,2013-02-02 04:18:00,
2013-02-01 23:19:00,23.0,3.3,30.18,South,180,2.9,3.1,42,0.00,,---,0.00,VWS V14.00,2013-02-02 04:19:00,
2013-02-01 23:20:00,22.3,2.7,30.21,West,270,2.5,2.5,42,0.00,,---,0.00,VWS V14.00,2013-02-02 04:20:00,
2013-02-01 23:21:00,23.0,3.3,30.18,West,270,2.2,2.7,42,0.00,,---,0.00,VWS V14.00,2013-02-02 04:21:00,
2013-02-01 23:22:00,23.0,3.3,30.18,SSW,202,0.0,2.5,42,0.00,,---,0.00,VWS V14.00,2013-02-02 04:22:00,
2013-02-01 23:23:00,23.0,3.3,30.18,SSE,158,2.9,2.9,42,0.00,,---,0.00,VWS V14.00,2013-02-02 04:23:00,
2013-02-01 23:24:00,23.0,3.3,30.18,ENE,68,0.0,2.9,42,0.00,,---,0.00,VWS V14.00,2013-02-02 04:24:00,
2013-02-01 23:25:00,22.3,2.7,30.21,WSW,248,2.0,3.8,42,0.00,,---,0.00,VWS V14.00,2013-02-02 04:25:00,
2013-02-01 23:26:00,23.0,3.3,30.18,NNW,338,1.1,1.3,42,0.00,,---,0.00,VWS V14.00,2013-02-02 04:26:00,
2013-02-01 23:27:00,23.0,3.3,30.18,NW,315,0.0,1.3,42,0.00,,---,0.00,VWS V14.00,2013-02-02 04:27:00,
2013-02-01 23:28:00,23.0,3.3,30.18,West,270,0.0,0.0,42,0.00,,---,0.00,VWS V14.00,2013-02-02 04:28:00,
2013-02-01 23:29:00,22.8,3.2,30.18,West,270,0.0,0.0,42,0.00,,---,0.00,VWS V14.00,2013-02-02 04:29:00,
2013-02-01 23:30:00,22.3,2.7,30.21,SSW,202,2.5,2.5,42,0.00,,---,0.00,VWS V14.00,2013-02-02 04:30:00,
2013-02-01 23:31:00,22.8,3.2,30.18,SE,135,0.9,1.3,42,0.00,,---,0.00,VWS V14.00,2013-02-02 04:31:00,
2013-02-01 23:32:00,22.8,3.2,30.18,SW,225,3.1,3.1,42,0.00,,---,0.00,VWS V14.00,2013-02-02 04:32:00,
2013-02-01 23:33:00,22.8,3.2,30.18,South,180,1.6,3.1,42,0.00,,---,0.00,VWS V14.00,2013-02-02 04:33:00,
2013-02-01 23:34:00,22.8,3.2,30.18,South,180,2.9,2.9,42,0.00,,---,0.00,VWS V14.00,2013-02-02 04:34:00,
2013-02-01 23:35:00,22.3,2.7,30.21,WNW,292,2.5,8.5,42,0.00,,---,0.00,VWS V14.00,2013-02-02 04:35:00,
2013-02-01 23:36:00,22.8,3.2,30.18,East,90,0.0,1.6,42,0.00,,---,0.00,VWS V14.00,2013-02-02 04:36:00,
2013-02-01 23:37:00,22.8,3.2,30.18,SSW,202,0.0,0.0,42,0.00,,---,0.00,VWS V14.00,2013-02-02 04:37:00,
2013-02-01 23:38:00,22.8,3.2,30.18,SSW,202,0.0,0.0,42,0.00,,---,0.00,VWS V14.00,2013-02-02 04:38:00,
2013-02-01 23:39:00,22.6,3.0,30.18,SSW,202,0.0,0.0,42,0.00,,---,0.00,VWS V14.00,2013-02-02 04:39:00,
2013-02-01 23:40:00,22.3,3.2,30.21,WSW,248,6.0,7.4,43,0.00,,---,0.00,VWS V14.00,2013-02-02 04:40:00,
2013-02-01 23:41:00,22.6,3.0,30.18,SSW,202,0.0,2.0,42,0.00,,---,0.00,VWS V14.00,2013-02-02 04:41:00,
2013-02-01 23:42:00,22.6,3.0,30.21,SSW,202,0.0,0.0,42,0.00,,---,0.00,VWS V14.00,2013-02-02 04:42:00,
2013-02-01 23:43:00,22.6,3.0,30.21,WSW,248,0.0,0.0,42,0.00,,---,0.00,VWS V14.00,2013-02-02 04:43:00,
2013-02-01 23:44:00,22.6,3.0,30.21,SSE,158,0.0,2.5,42,0.00,,---,0.00,VWS V14.00,2013-02-02 04:44:00,
2013-02-01 23:45:00,22.3,3.2,30.21,West,270,1.1,2.2,43,0.00,,---,0.00,VWS V14.00,2013-02-02 04:45:00,
2013-02-01 23:46:00,22.5,3.4,30.21,SSE,158,2.5,2.5,43,0.00,,---,0.00,VWS V14.00,2013-02-02 04:46:00,
2013-02-01 23:47:00,22.5,3.4,30.21,WNW,292,1.1,4.0,43,0.00,,---,0.00,VWS V14.00,2013-02-02 04:47:00,
2013-02-01 23:48:00,22.5,2.8,30.21,NNE,22,0.9,1.3,42,0.00,,---,0.00,VWS V14.00,2013-02-02 04:48:00,
2013-02-01 23:49:00,22.5,3.4,30.21,SW,225,2.0,2.0,43,0.00,,---,0.00,VWS V14.00,2013-02-02 04:49:00,
2013-02-01 23:50:00,22.3,3.2,30.21,NW,315,2.2,6.0,43,0.00,,---,0.00,VWS V14.00,2013-02-02 04:50:00,
2013-02-01 23:51:00,22.5,2.8,30.21,SSW,202,2.0,3.6,42,0.00,,---,0.00,VWS V14.00,2013-02-02 04:51:00,
2013-02-01 23:52:00,22.5,2.8,30.21,NNE,22,2.2,2.2,42,0.00,,---,0.00,VWS V14.00,2013-02-02 04:52:00,
2013-02-01 23:53:00,22.5,2.8,30.21,SW,225,1.3,2.2,42,0.00,,---,0.00,VWS V14.00,2013-02-02 04:53:00,
2013-02-01 23:54:00,22.5,2.8,30.21,WNW,292,2.9,2.9,42,0.00,,---,0.00,VWS V14.00,2013-02-02 04:54:00,
2013-02-01 23:55:00,22.3,3.2,30.21,South,180,2.9,4.9,43,0.00,,---,0.00,VWS V14.00,2013-02-02 04:55:00,
2013-02-01 23:56:00,22.5,2.8,30.21,NNW,338,2.0,3.8,42,0.00,,---,0.00,VWS V14.00,2013-02-02 04:56:00,
2013-02-01 23:57:00,22.5,2.8,30.21,South,180,1.3,2.0,42,0.00,,---,0.00,VWS V14.00,2013-02-02 04:57:00,
2013-02-01 23:58:00,22.5,2.8,30.21,WSW,248,0.0,1.3,42,0.00,,---,0.00,VWS V14.00,2013-02-02 04:58:00,
2013-02-01 23:59:00,22.5,2.8,30.21,SSW,202,1.1,3.8,42,0.00,,---,0.00,VWS V14.00,2013-02-02 04:59:00,